[[{"header":{"parameterUnit":"m.s-1","parameterCategory":1,"la1":30.6,"la2":28.766,"lo1":-90.7593,"lo2":-88.6598,"dx":0.0162,"dy":0.0183,"nx":116,"ny":114,"refTime":"2022-11-24T18:00:00:Z","depth":0,"parameterNumber":2,"parameterNumberName":"U-component_of_WINDS"},"data":[0.0,0.0,0.0,0.0,0.0,0.0,0.0,0.0,0.0,0.0,0.0,0.0,0.0,0.0,0.0,0.0,0.0,0.0,0.0,0.0,0.0,0.0,0.0,0.0,0.0,0.0,0.0,0.0,0.0,0.0,0.0,0.0,0.0,0.0,0.0,0.0,0.0,0.0,0.0,0.0,0.0,0.0,0.0,0.0,0.0,0.0,0.0,0.0,0.0,0.0,0.0,0.0,0.0,0.0,0.0,0.0,0.0,0.0,0.0,0.0,0.0,0.0,0.0,0.0,0.0,0.0,0.0,0.0,0.0,0.0,0.0,0.0,0.0,0.0,0.0,0.0,0.0,0.0,0.0,0.0,0.0,0.0,0.0,0.0,0.0,0.0,0.0,0.0,0.0,0.0,0.0,0.0,0.0,0.0,0.0,0.0,0.0,0.0,0.0,0.0,0.0,0.0,0.0,0.0,0.0,0.0,0.0,0.0,0.0,0.0,0.0,0.0,0.0,0.0,0.0,0.0,0.0,0.0,0.0,0.0,0.0,0.0,0.0,0.0,0.0,0.0,0.0,0.0,0.0,0.0,0.0,0.0,0.0,0.0,0.0,0.0,0.0,0.0,0.0,0.0,0.0,0.0,0.0,0.0,0.0,0.0,0.0,0.0,0.0,0.0,0.0,0.0,0.0,0.0,0.0,0.0,0.0,0.0,0.0,0.0,0.0,0.0,0.0,0.0,0.0,0.0,0.0,0.0,0.0,0.0,0.0,0.0,0.0,0.0,0.0,0.0,0.0,0.0,0.0,0.0,0.0,0.0,0.0,0.0,0.0,0.0,0.0,0.0,0.0,0.0,0.0,0.0,0.0,0.0,0.0,0.0,0.0,0.0,0.0,0.0,0.0,0.0,0.0,0.0,0.0,0.0,0.0,0.0,0.0,0.0,0.0,0.0,0.0,0.0,0.0,0.0,0.0,0.0,0.0,0.0,0.0,0.0,0.0,0.0,0.0,0.0,0.0,0.0,0.0,0.0,0.0,0.0,0.0,0.0,0.0,0.0,0.0,0.0,0.0,0.0,0.0,0.0,0.0,0.0,0.0,0.0,0.0,0.0,0.0,0.0,0.0,0.0,0.0,0.0,0.0,0.0,0.0,0.0,0.0,0.0,0.0,0.0,0.0,0.0,0.0,0.0,0.0,0.0,0.0,0.0,0.0,0.0,0.0,0.0,0.0,0.0,0.0,0.0,0.0,0.0,0.0,0.0,0.0,0.0,0.0,0.0,0.0,0.0,0.0,0.0,0.0,0.0,0.0,0.0,0.0,0.0,0.0,0.0,0.0,0.0,0.0,0.0,0.0,0.0,0.0,0.0,0.0,0.0,0.0,0.0,0.0,0.0,0.0,0.0,0.0,0.0,0.0,0.0,0.0,0.0,0.0,0.0,0.0,0.0,0.0,0.0,0.0,0.0,0.0,0.0,0.0,0.0,0.0,0.0,0.0,0.0,0.0,0.0,0.0,0.0,0.0,0.0,0.0,0.0,0.0,0.0,0.0,0.0,0.0,0.0,0.0,0.0,0.0,0.0,0.0,0.0,0.0,0.0,0.0,0.0,0.0,0.0,0.0,0.0,0.0,0.0,0.0,0.0,0.0,0.0,0.0,0.0,0.0,0.0,0.0,0.0,0.0,0.0,0.0,0.0,0.0,0.0,0.0,0.0,0.0,0.0,0.0,0.0,0.0,0.0,0.0,0.0,0.0,0.0,0.0,0.0,0.0,0.0,0.0,0.0,0.0,0.0,0.0,0.0,0.0,0.0,0.0,0.0,0.0,0.0,0.0,0.0,0.0,0.0,0.0,0.0,0.0,0.0,0.0,0.0,0.0,0.0,0.0,0.0,0.0,0.0,0.0,0.0,0.0,0.0,0.0,0.0,0.0,0.0,0.0,0.0,0.0,0.0,0.0,0.0,0.0,0.0,0.0,0.0,0.0,0.0,0.0,0.0,0.0,0.0,0.0,0.0,0.0,0.0,0.0,0.0,0.0,0.0,0.0,0.0,0.0,0.0,0.0,0.0,0.0,0.0,0.0,0.0,0.0,0.0,0.0,0.0,0.0,0.0,0.0,0.0,0.0,0.0,0.0,0.0,0.0,0.0,0.0,0.0,0.0,0.0,0.0,0.0,0.0,0.0,0.0,0.0,0.0,0.0,0.0,0.0,0.0,0.0,0.0,0.0,0.0,0.0,0.0,0.0,0.0,0.0,0.0,0.0,0.0,0.0,0.0,0.0,0.0,0.0,0.0,0.0,0.0,0.0,0.0,0.0,0.0,0.0,0.0,0.0,0.0,0.0,0.0,0.0,0.0,0.0,0.0,0.0,0.0,0.0,0.0,0.0,0.0,0.0,0.0,0.0,0.0,0.0,0.0,0.0,0.0,0.0,0.0,0.0,0.0,0.0,0.0,0.0,0.0,0.0,0.0,0.0,0.0,0.0,0.0,0.0,0.0,0.0,0.0,0.0,0.0,0.0,0.0,0.0,0.0,0.0,0.0,0.0,0.0,0.0,0.0,0.0,0.0,0.0,0.0,0.0,0.0,0.0,0.0,0.0,0.0,0.0,0.0,0.0,0.0,0.0,0.0,0.0,0.0,0.0,0.0,0.0,0.0,0.0,0.0,0.0,0.0,0.0,0.0,0.0,0.0,0.0,0.0,0.0,0.0,0.0,0.0,0.0,0.0,0.0,0.0,0.0,0.0,0.0,0.0,0.0,0.0,0.0,0.0,0.0,0.0,0.0,0.0,0.0,0.0,0.0,0.0,0.0,0.0,0.0,0.0,0.0,0.0,0.0,0.0,0.0,0.0,0.0,0.0,0.0,0.0,0.0,0.0,0.0,0.0,0.0,0.0,0.0,0.0,0.0,0.0,0.0,0.0,0.0,0.0,0.0,0.0,0.0,0.0,0.0,0.0,0.0,0.0,0.0,0.0,0.0,0.0,0.0,0.0,0.0,0.0,0.0,0.0,0.0,0.0,0.0,0.0,0.0,0.0,0.0,0.0,0.0,0.0,0.0,0.0,0.0,0.0,0.0,0.0,0.0,0.0,0.0,0.0,0.0,0.0,0.0,0.0,0.0,0.0,0.0,0.0,0.0,0.0,0.0,0.0,0.0,0.0,0.0,0.0,0.0,0.0,0.0,0.0,0.0,0.0,0.0,0.0,0.0,0.0,0.0,0.0,0.0,0.0,0.0,0.0,0.0,0.0,0.0,0.0,0.0,0.0,0.0,0.0,0.0,0.0,0.0,0.0,0.0,0.0,0.0,0.0,0.0,0.0,0.0,0.0,0.0,0.0,0.0,0.0,0.0,0.0,0.0,0.0,0.0,0.0,0.0,0.0,0.0,0.0,0.0,0.0,0.0,0.0,0.0,0.0,0.0,0.0,0.0,0.0,0.0,0.0,0.0,0.0,0.0,0.0,0.0,0.0,0.0,0.0,0.0,0.0,0.0,0.0,0.0,0.0,0.0,0.0,0.0,0.0,0.0,0.0,0.0,0.0,0.0,0.0,0.0,0.0,0.0,0.0,0.0,0.0,0.0,0.0,0.0,0.0,0.0,0.0,0.0,0.0,0.0,0.0,0.0,0.0,0.0,0.0,0.0,0.0,0.0,0.0,0.0,0.0,0.0,0.0,0.0,0.0,0.0,0.0,0.0,0.0,0.0,0.0,0.0,0.0,0.0,0.0,0.0,0.0,0.0,0.0,0.0,0.0,0.0,0.0,0.0,0.0,0.0,0.0,0.0,0.0,0.0,0.0,0.0,0.0,0.0,0.0,0.0,0.0,0.0,0.0,0.0,0.0,0.0,0.0,0.0,0.0,0.0,0.0,0.0,0.0,0.0,0.0,0.0,0.0,0.0,0.0,0.0,0.0,0.0,0.0,0.0,0.0,0.0,0.0,0.0,0.0,0.0,0.0,0.0,0.0,0.0,0.0,0.0,0.0,0.0,0.0,0.0,0.0,0.0,0.0,0.0,0.0,0.0,0.0,0.0,0.0,0.0,0.0,0.0,0.0,0.0,0.0,0.0,0.0,0.0,0.0,0.0,0.0,0.0,0.0,0.0,0.0,0.0,0.0,0.0,0.0,0.0,0.0,0.0,0.0,0.0,0.0,0.0,0.0,0.0,0.0,0.0,0.0,0.0,0.0,0.0,0.0,0.0,0.0,0.0,0.0,0.0,0.0,0.0,0.0,0.0,0.0,0.0,0.0,0.0,0.0,0.0,0.0,0.0,0.0,0.0,0.0,0.0,0.0,0.0,0.0,0.0,0.0,0.0,0.0,0.0,0.0,0.0,0.0,0.0,0.0,0.0,0.0,0.0,0.0,0.0,0.0,0.0,0.0,0.0,0.0,0.0,0.0,0.0,0.0,0.0,0.0,0.0,0.0,0.0,0.0,0.0,0.0,0.0,0.0,0.0,0.0,0.0,0.0,0.0,0.0,0.0,0.0,0.0,0.0,0.0,0.0,0.0,0.0,0.0,0.0,0.0,0.0,0.0,0.0,0.0,0.0,0.0,0.0,0.0,0.0,0.0,0.0,0.0,0.0,0.0,0.0,0.0,0.0,0.0,0.0,0.0,0.0,0.0,0.0,0.0,0.0,0.0,0.0,0.0,0.0,0.0,0.0,0.0,0.0,0.0,0.0,0.0,0.0,0.0,0.0,0.0,0.0,0.0,0.0,0.0,0.0,0.0,0.0,0.0,0.0,0.0,0.0,0.0,0.0,0.0,0.0,0.0,0.0,0.0,0.0,0.0,0.0,0.0,0.0,0.0,0.0,0.0,0.0,0.0,0.0,0.0,0.0,0.0,0.0,0.0,0.0,0.0,0.0,0.0,0.0,0.0,0.0,0.0,0.0,0.0,0.0,0.0,0.0,0.0,0.0,0.0,0.0,0.0,0.0,0.0,0.0,0.0,0.0,0.0,0.0,0.0,0.0,0.0,0.0,0.0,0.0,0.0,0.0,0.0,0.0,0.0,0.0,0.0,0.0,0.0,0.0,0.0,0.0,0.0,0.0,0.0,0.0,0.0,0.0,0.0,0.0,0.0,0.0,0.0,0.0,0.0,0.0,0.0,0.0,0.0,0.0,0.0,0.0,0.0,0.0,0.0,0.0,0.0,0.0,0.0,0.0,0.0,0.0,0.0,0.0,0.0,0.0,0.0,0.0,0.0,0.0,0.0,0.0,0.0,0.0,0.0,0.0,0.0,0.0,0.0,0.0,0.0,0.0,0.0,0.0,0.0,0.0,0.0,0.0,0.0,0.0,0.0,0.0,0.0,0.0,0.0,0.0,0.0,0.0,0.0,0.0,0.0,0.0,0.0,0.0,0.0,0.0,0.0,0.0,0.0,0.0,0.0,0.0,0.0,0.0,0.0,0.0,0.0,0.0,0.0,0.0,0.0,0.0,0.0,0.0,0.0,0.0,0.0,0.0,0.0,0.0,0.0,0.0,0.0,0.0,0.0,0.0,0.0,0.0,0.0,0.0,0.0,0.0,0.0,0.0,0.0,0.0,0.0,0.0,0.0,0.0,0.0,0.0,0.0,0.0,0.0,0.0,0.0,0.0,0.0,0.0,0.0,0.0,0.0,0.0,0.0,0.0,0.0,0.0,0.0,0.0,0.0,0.0,0.0,0.0,0.0,0.0,0.0,0.0,0.0,0.0,0.0,0.0,0.0,0.0,0.0,0.0,0.0,0.0,0.0,0.0,0.0,0.0,0.0,0.0,0.0,0.0,0.0,0.0,0.0,0.0,0.0,0.0,0.0,0.0,0.0,0.0,0.0,0.0,0.0,0.0,0.0,0.0,0.0,0.0,0.0,0.0,0.0,0.0,0.0,0.0,0.0,0.0,0.0,0.0,0.0,0.0,0.0,0.0,0.0,0.0,0.0,0.0,0.0,0.0,0.0,0.0,0.0,0.0,0.0,0.0,0.0,0.0,0.0,0.0,0.0,0.0,0.0,0.0,0.0,0.0,0.0,0.0,0.0,0.0,0.0,0.0,0.0,0.0,0.0,0.0,0.0,0.0,0.0,0.0,0.0,0.0,0.0,0.0,0.0,0.0,0.0,0.0,0.0,0.0,0.0,-1.8081,-1.4833,0.0,0.0,0.0,0.0,0.0,0.0,0.0,0.0,0.0,0.0,0.0,0.0,0.0,0.0,0.0,0.0,0.0,0.0,0.0,0.0,0.0,0.0,0.0,-0.5373,-0.5449,-0.5449,-0.5449,0.0,0.0,0.0,0.0,0.0,0.0,0.0,0.0,0.0,-0.5526,-0.6343,-0.6791,-0.7898,-0.9526,-0.8428,-0.794,-0.7999,0.0,0.0,0.0,0.0,0.0,0.0,0.0,0.0,0.0,0.0,0.0,0.0,0.0,0.0,0.0,0.0,0.0,0.0,0.0,0.0,0.0,0.0,0.0,0.0,0.0,0.0,0.0,0.0,0.0,0.0,0.0,0.0,0.0,0.0,0.0,0.0,0.0,0.0,0.0,0.0,0.0,0.0,0.0,0.0,0.0,0.0,0.0,0.0,0.0,0.0,0.0,0.0,0.0,0.0,0.0,0.0,0.0,0.0,0.0,0.0,0.0,0.0,0.0,0.0,0.0,0.0,0.0,0.0,0.0,0.0,-1.9758,-1.7941,0.0,0.0,0.0,0.0,0.0,0.0,0.0,0.0,0.0,0.0,0.0,0.0,0.0,0.0,0.0,0.0,0.0,0.0,0.0,0.0,0.0,-0.5333,-0.5612,-0.5872,-0.6097,-0.6234,-0.6117,-0.6038,-0.6038,-0.5527,0.0,0.0,0.0,0.0,-0.5215,-0.5292,-0.6149,-0.7802,-0.8533,-0.9822,-1.1591,-1.1504,-1.1388,-1.1213,-0.9667,0.0,0.0,0.0,0.0,0.0,0.0,0.0,0.0,0.0,0.0,0.0,0.0,0.0,0.0,0.0,0.0,0.0,0.0,0.0,0.0,0.0,0.0,0.0,0.0,0.0,0.0,0.0,0.0,0.0,0.0,0.0,0.0,0.0,0.0,0.0,0.0,0.0,0.0,0.0,0.0,0.0,0.0,0.0,0.0,0.0,0.0,0.0,0.0,0.0,0.0,0.0,0.0,0.0,0.0,0.0,0.0,0.0,0.0,0.0,0.0,0.0,0.0,0.0,-2.0491,-2.0576,-2.0166,-2.0812,-2.1973,-2.3465,-2.1732,-2.1707,-2.2731,-1.9059,0.0,0.0,0.0,0.0,0.0,0.0,0.0,0.0,0.0,0.0,0.0,0.0,0.0,0.0,0.0,0.0,0.0,0.0,0.0,-0.5906,-0.6258,-0.6685,-0.7227,-0.7999,-0.7363,-0.6934,-0.6934,-0.6152,0.0,0.0,0.0,-0.5292,-0.5705,-0.6055,-0.6914,-0.8301,-1.1818,-1.42,-1.5553,-1.5945,-1.5918,-1.533,-1.1729,-1.0335,-1.0637,0.0,0.0,0.0,0.0,0.0,0.0,0.0,0.0,0.0,0.0,0.0,0.0,0.0,0.0,0.0,0.0,0.0,0.0,0.0,0.0,0.0,0.0,0.0,0.0,0.0,0.0,0.0,0.0,0.0,0.0,0.0,0.0,0.0,0.0,0.0,0.0,0.0,0.0,0.0,0.0,0.0,-1.837,-1.8334,0.0,0.0,0.0,0.0,0.0,0.0,0.0,0.0,0.0,0.0,0.0,0.0,0.0,-1.8906,-1.9913,-2.1564,-2.2509,-2.2886,-2.46,-2.5656,-2.6174,-2.5769,-2.6542,-2.805,-2.6891,0.0,-2.2512,-2.2366,0.0,0.0,0.0,0.0,0.0,0.0,0.0,0.0,0.0,0.0,0.0,0.0,0.0,0.0,0.0,0.0,0.0,0.0,0.0,0.0,0.0,-0.8179,-0.8955,-0.9642,-0.9512,-0.908,-0.8316,-0.7635,0.0,0.0,-0.5818,-0.6055,-0.6523,-0.7168,-0.875,-1.127,-1.4248,-1.5996,-1.6517,-1.6758,-1.6697,-1.6437,-1.468,-1.3372,-1.2418,-1.1101,0.0,0.0,0.0,0.0,0.0,0.0,0.0,0.0,0.0,0.0,0.0,0.0,0.0,0.0,0.0,0.0,0.0,0.0,0.0,0.0,0.0,0.0,0.0,0.0,0.0,0.0,0.0,0.0,0.0,0.0,0.0,0.0,0.0,0.0,0.0,0.0,0.0,0.0,0.0,-1.7553,-1.8758,-1.9251,-1.771,-1.615,0.0,0.0,0.0,0.0,0.0,0.0,0.0,0.0,0.0,-2.1261,-2.2008,-2.3015,-2.4364,-2.5294,-2.5806,-2.5893,-2.6641,-2.7087,-2.7223,-2.7201,-2.7606,-2.8355,-2.7693,-2.6532,-2.5159,-2.4157,-2.2288,-1.9997,0.0,0.0,0.0,0.0,-1.8516,-1.8633,0.0,0.0,0.0,0.0,0.0,0.0,0.0,0.0,0.0,0.0,0.0,0.0,-0.8725,-0.9928,-1.0799,-1.1267,-1.1389,-1.0963,-0.9873,-0.8948,-0.8009,-0.6953,-0.6582,-0.6719,-0.7422,-0.8906,-1.1152,-1.416,-1.5996,-1.6953,-1.7051,-1.7051,-1.7051,-1.7051,-1.7051,-1.6096,-1.4473,-1.3351,-1.2161,-1.0865,0.0,0.0,0.0,0.0,0.0,0.0,0.0,0.0,0.0,0.0,0.0,0.0,0.0,0.0,0.0,0.0,0.0,0.0,0.0,0.0,0.0,0.0,0.0,0.0,0.0,0.0,0.0,0.0,0.0,0.0,0.0,0.0,0.0,0.0,0.0,0.0,0.0,-1.881,-1.992,-2.0571,-1.9403,-1.7861,0.0,0.0,0.0,0.0,0.0,0.0,-1.9897,-2.0514,-2.1907,-2.4104,-2.5314,-2.6476,-2.7717,-2.7985,-2.801,-2.7935,-2.7729,-2.758,-2.7522,-2.7844,-2.8065,-2.8166,-2.7941,-2.7759,-2.7582,-2.5788,-2.4439,-2.3516,-2.2001,-2.1411,-2.1411,-2.23,-2.2335,-2.2394,0.0,0.0,0.0,0.0,0.0,0.0,0.0,0.0,0.0,0.0,0.0,-0.951,-1.0494,-1.1753,-1.2677,-1.2922,-1.2339,-1.1839,-1.1492,-0.9655,-0.8517,-0.8313,-0.707,-0.7012,-0.8313,-1.1562,-1.4121,-1.5998,-1.6875,-1.7559,-1.7949,-1.7949,-1.7949,-1.7949,-1.7949,-1.775,-1.7267,-1.5424,-1.468,-1.4449,-1.0925,0.0,0.0,0.0,0.0,0.0,0.0,0.0,0.0,0.0,0.0,0.0,0.0,0.0,0.0,0.0,0.0,0.0,0.0,0.0,0.0,0.0,0.0,0.0,0.0,0.0,0.0,0.0,0.0,0.0,0.0,0.0,0.0,0.0,0.0,0.0,0.0,0.0,0.0,-2.3101,-2.3352,0.0,0.0,0.0,0.0,-1.8573,-1.9422,-2.0946,-2.3229,-2.3555,-2.4682,-2.695,-2.7241,-2.7565,-2.7918,-2.8078,-2.8225,-2.8225,-2.7985,-2.8127,-2.8428,-2.8448,-2.8689,-2.9071,-2.9071,-2.883,-2.8408,-2.7602,-2.6307,-2.4874,-2.545,-2.4743,-2.3527,-2.5563,-2.6139,-2.6207,0.0,0.0,0.0,-0.6152,-0.6043,-0.5856,-0.5461,-0.5837,-0.6249,-0.6511,-0.8413,-1.0127,-1.1121,-1.2958,-1.4286,-1.4729,-1.4674,-1.4101,-1.2789,-1.1424,-1.0468,-1.002,-0.9023,-0.9573,-1.2031,-1.4102,-1.5723,-1.6914,-1.75,-1.8008,-1.8418,-1.8418,-1.8555,-1.8828,-1.8828,-1.8636,-1.814,-1.7002,-1.5979,-1.5103,-1.3578,-1.1523,0.0,0.0,0.0,0.0,0.0,0.0,0.0,0.0,0.0,0.0,0.0,0.0,0.0,0.0,0.0,0.0,0.0,0.0,0.0,0.0,0.0,0.0,0.0,0.0,0.0,0.0,0.0,0.0,0.0,0.0,0.0,0.0,0.0,0.0,0.0,0.0,0.0,-2.3323,-2.2947,0.0,-2.113,-2.1538,-2.1894,-2.2087,-2.3515,-2.4902,-2.6073,-2.6259,-2.6791,-2.8056,-2.8304,-2.8431,-2.8532,-2.8942,-2.9064,-2.9064,-2.9188,-2.929,-2.9434,-2.9434,-2.9516,-2.9679,-2.9237,-2.9212,-2.9313,-2.8854,-2.8257,-2.7663,-2.7905,-2.8046,-2.8087,-2.8874,-2.9051,-2.9046,0.0,-0.6553,0.0,-0.6043,-0.5952,-0.5763,-0.5387,-0.592,-0.6598,-0.7202,-0.9287,-1.1198,-1.2315,-1.4218,-1.5459,-1.5647,-1.5846,-1.5388,-1.3982,-1.2749,-1.1955,-1.1777,-1.123,-1.2025,-1.4512,-1.5703,-1.6719,-1.7598,-1.8008,-1.8359,-1.8562,-1.8789,-1.9004,-1.9297,-1.9297,-1.9121,-1.8809,-1.8105,-1.7227,-1.6211,-1.5352,-1.3633,-1.1465,0.0,0.0,0.0,0.0,0.0,0.0,0.0,0.0,0.0,0.0,0.0,0.0,0.0,0.0,0.0,0.0,0.0,0.0,0.0,0.0,0.0,0.0,0.0,0.0,0.0,0.0,0.0,0.0,0.0,0.0,0.0,0.0,0.0,0.0,-2.1943,-2.3606,-2.3697,-2.3766,-2.3594,-2.3014,-2.384,-2.4629,-2.5171,-2.6422,-2.7345,-2.7737,-2.7921,-2.8246,-2.8734,-2.9126,-2.935,-2.9475,-3.0011,-3.0319,-3.0463,-3.0426,-3.0532,-3.0677,-3.0532,-3.047,-3.047,-3.0079,-3.0194,-3.0478,-3.0309,-3.0399,-3.0567,-3.0154,-3.0498,-3.1279,-3.1421,-3.1451,-3.1479,-0.7518,-0.6736,-0.6123,-0.5856,-0.5633,-0.5446,-0.5234,-0.5965,-0.7096,-0.8592,-1.0794,-1.2764,-1.4153,-1.5565,-1.6174,-1.5574,-1.5648,-1.5532,-1.5044,-1.3551,-1.2922,-1.3496,-1.3594,-1.4199,-1.5449,-1.6328,-1.7187,-1.8027,-1.8437,-1.8582,-1.8691,-1.9102,-1.9316,-1.9336,-1.9336,-1.9316,-1.9277,-1.8848,-1.8437,-1.7891,-1.6191,-1.5449,-1.5098,0.0,0.0,0.0,0.0,0.0,0.0,0.0,0.0,0.0,0.0,0.0,0.0,0.0,0.0,0.0,0.0,0.0,0.0,0.0,0.0,0.0,0.0,0.0,0.0,0.0,0.0,0.0,0.0,0.0,0.0,0.0,0.0,0.0,-2.1229,-2.3326,-2.4895,-2.4457,-2.6016,-2.6854,-2.604,-2.6522,-2.7008,-2.7455,-2.777,-2.8054,-2.8207,-2.8676,-2.8921,-2.8901,-2.9758,-3.0335,-3.0677,-3.1153,-3.1588,-3.2023,-3.1588,-3.1629,-3.2023,-3.1609,-3.1422,-3.1443,-3.1543,-3.1728,-3.1993,-3.1761,-3.2418,-3.3306,-3.2076,-3.2128,-3.283,-3.3244,-3.3443,-3.3595,-0.7518,-0.676,-0.6147,-0.5911,-0.567,-0.5444,-0.5291,-0.634,-0.7535,-0.8637,-1.1115,-1.3197,-1.4272,-1.5604,-1.6305,-1.617,-1.6371,-1.6115,-1.527,-1.438,-1.3937,-1.3945,-1.5469,-1.6484,-1.6836,-1.7383,-1.793,-1.8457,-1.8574,-1.8945,-1.957,-1.9687,-1.9902,-2.0215,-2.0215,-2.0039,-1.9727,-1.9609,-1.9316,-1.8848,-1.7734,-1.6543,-1.5312,0.0,0.0,0.0,0.0,0.0,0.0,0.0,0.0,0.0,0.0,0.0,0.0,0.0,0.0,0.0,0.0,0.0,0.0,0.0,0.0,0.0,0.0,0.0,0.0,0.0,0.0,0.0,0.0,0.0,0.0,0.0,-2.1464,-2.3601,-2.3178,-2.5116,-2.6629,-2.6845,-2.7415,-2.7725,-2.7565,-2.7574,-2.7864,-2.8513,-2.8614,-2.8799,-2.9146,-2.9517,-2.9704,-2.9704,-3.0261,-3.057,-3.0677,-3.1153,-3.1443,-3.1567,-3.1754,-3.1919,-3.2043,-3.225,-3.2354,-3.2354,-3.2137,-3.2248,-3.267,-3.2347,-3.2768,-3.3469,-3.2758,-3.3053,-3.372,-3.3844,-3.3948,-3.3953,-0.7529,-0.6916,-0.6423,-0.6048,-0.5708,-0.5482,-0.5463,-0.6557,-0.7871,-0.9262,-1.1503,-1.3495,-1.4789,-1.5807,-1.6394,-1.6394,-1.668,-1.6433,-1.5608,-1.5282,-1.5153,-1.5215,-1.6602,-1.7559,-1.791,-1.8144,-1.8477,-1.8906,-1.9082,-1.9434,-1.9922,-2.0098,-2.0332,-2.0566,-2.0566,-2.043,-2.0176,-1.998,-1.9766,-1.9492,-1.8809,-1.7832,-1.6699,-1.6172,-1.5352,-1.4414,-1.3887,-1.3555,-1.332,-1.2715,0.0,0.0,0.0,0.0,0.0,0.0,0.0,0.0,0.0,0.0,0.0,0.0,0.0,0.0,0.0,0.0,0.0,0.0,0.0,0.0,0.0,0.0,0.0,0.0,-2.4047,-2.5964,-2.5964,-2.6867,-2.7692,-2.8241,-2.825,-2.8416,-2.8956,-2.8574,-2.8488,-2.9166,-2.9062,-2.9164,-2.9764,-2.9889,-2.9994,-2.9994,-3.0636,-3.1071,-3.1257,-3.1899,-3.2416,-3.2789,-3.2851,-3.2996,-3.3182,-3.3265,-3.3285,-3.3306,-3.3141,-3.3366,-3.3731,-3.3436,-3.368,-3.4327,0.0,0.0,0.0,0.0,-3.4389,-3.451,-0.7711,-0.7283,-0.6931,-0.6385,-0.5977,-0.5727,-0.5843,-0.684,-0.8263,-1.0194,-1.1998,-1.3739,-1.5515,-1.6182,-1.6454,-1.6342,-1.667,-1.6716,-1.6097,-1.6197,-1.6449,-1.6777,-1.7266,-1.7871,-1.8543,-1.8691,-1.8926,-1.9355,-1.9727,-1.9941,-2.0,-2.0391,-2.0566,-2.0566,-2.0566,-2.0566,-2.0547,-2.0156,-1.998,-1.9941,-1.9531,-1.9102,-1.8574,-1.7337,-1.6889,-1.6797,-1.5586,-1.4902,-1.4398,-1.3711,0.0,0.0,0.0,0.0,0.0,0.0,0.0,0.0,0.0,0.0,0.0,0.0,0.0,0.0,0.0,0.0,0.0,0.0,0.0,0.0,0.0,0.0,0.0,0.0,-2.6885,-2.8488,-2.869,-2.8284,-2.8285,-2.886,-2.8773,-2.9003,-2.9863,-2.9204,-2.9026,-2.9554,-2.9343,-2.9448,-2.9994,-2.9994,0.0,0.0,0.0,-3.165,-3.2043,-3.2975,-3.3865,-3.4672,-3.432,-3.4362,-3.4755,-3.4383,-3.4217,-3.4238,-3.4409,-3.4594,-3.4859,-3.4634,-3.4942,-3.5418,-3.4186,-3.4104,-3.4513,-3.484,-3.5003,-3.5128,-0.875,-0.8079,-0.7633,-0.7581,-0.7167,-0.6903,-0.6991,-0.7909,-0.9283,-1.1186,-1.2677,-1.4117,-1.5606,-1.6592,-1.6779,-1.5938,-1.7047,-1.7616,-1.712,-1.7263,-1.7278,-1.7266,-1.7988,-1.8477,-1.8633,-1.8984,-1.9375,-1.9785,-1.9883,-2.0098,-2.0449,-2.0527,-2.0566,-2.0566,-2.0566,-2.0566,-2.0566,-2.0469,-2.043,-2.0391,-1.9961,-1.9551,-1.9102,-1.8496,-1.8193,-1.8184,-1.7598,-1.7324,-1.7227,-1.707,-1.6328,-1.5488,-1.5525,-1.4478,0.0,0.0,0.0,0.0,0.0,0.0,0.0,0.0,0.0,0.0,0.0,0.0,0.0,0.0,0.0,0.0,0.0,0.0,0.0,-2.4863,-2.6415,-2.7798,-2.853,-2.8869,-2.9039,-2.8941,-2.9187,-2.9415,-2.9704,-2.9282,-2.9237,-2.9889,-2.9889,-2.9889,-2.9994,-2.9994,-2.9994,-2.9994,-3.0908,-3.1625,-3.2043,-3.3073,-3.3793,-3.4196,-3.4486,0.0,-3.4776,-3.5045,-3.5148,-3.5169,-3.5129,-3.517,-3.5293,-3.5273,-3.5521,-3.5914,-3.5253,-3.5088,-3.5232,-3.5686,-3.5851,-3.5913,-0.9366,-0.8802,-0.8294,-0.8093,-0.7666,-0.7349,-0.7394,-0.8053,-0.9292,-1.1425,-1.2459,-1.3701,-1.5589,-1.5843,-1.5702,-1.5383,-1.641,-1.7124,-1.712,-1.7551,-1.7704,-1.7695,-1.8154,-1.8586,-1.8945,-1.918,-1.959,-2.0234,-2.0234,-2.0352,-2.0566,-2.0566,-2.0566,-2.0566,-2.0566,-2.0566,-2.0566,-2.0566,-2.0566,-2.0547,-2.0332,-2.0117,-1.9863,-1.9199,-1.8828,-1.8543,-1.8398,-1.8184,-1.7969,-1.7773,-1.7402,-1.7056,-1.7219,-1.6277,-1.5031,0.0,0.0,0.0,0.0,0.0,0.0,0.0,0.0,0.0,0.0,0.0,0.0,0.0,0.0,-2.1503,-2.253,0.0,-2.5594,-2.6909,-2.7526,-2.8342,-2.9558,-2.9434,-2.9227,-2.9456,-2.9642,-2.9829,-2.9743,-2.9343,-2.9132,-2.9343,-2.9448,-2.9448,-2.9343,-2.9784,-3.0098,-3.0325,-3.1223,-3.2025,-3.2706,-3.3726,-3.4165,-3.4248,-3.4861,-3.4964,-3.4595,-3.5191,-3.5418,-3.5418,-3.5418,-3.5418,-3.5438,-3.5417,-3.5787,-3.6177,-3.5951,-3.5848,-3.5889,-3.6115,-3.6198,-3.6259,-0.971,-0.9366,-0.8972,-0.8595,-0.8109,-0.7782,-0.7782,-0.8107,-0.9141,-1.1369,-1.1954,-1.2999,-1.5154,-1.4721,-1.4479,-1.4913,-1.5636,-1.6293,-1.6891,-1.764,-1.8035,-1.8056,-1.8291,-1.8666,-1.9213,-1.9316,-1.9746,-2.043,-2.0527,-2.0566,-2.0566,-2.0566,-2.0566,-2.0566,-2.0566,-2.0566,-2.0566,-2.0566,-2.0566,-2.0566,-2.0566,-2.0566,-2.0488,-1.9805,-1.9219,-1.875,-1.8601,-1.8359,-1.7949,-1.7617,-1.7734,-1.8017,-1.8238,-1.7765,-1.7056,-1.6697,-1.6072,0.0,0.0,0.0,0.0,0.0,0.0,0.0,0.0,-1.9011,-1.9938,-2.1825,-2.2892,-2.3892,-2.5211,-2.6292,-2.7466,-2.9067,-2.8927,-2.9127,-3.0493,-2.9829,-2.9448,-2.9994,-2.9889,-2.9889,-2.9994,-2.9448,-2.9026,-2.89,-2.9132,-2.9172,-2.8807,-2.9485,-3.0048,-3.0601,-3.137,-3.2227,-3.3141,-3.4183,-3.4575,-3.4298,-3.4922,-3.5046,-3.4548,-3.5046,-3.5211,-3.5314,-3.5521,-3.5562,-3.5583,-3.5701,-3.6131,-3.6541,-3.6541,-3.6643,-3.6807,-3.6705,-3.6725,-3.6869,-0.9788,-0.9739,-0.969,-0.9692,-0.9229,-0.8832,-0.8832,-0.8847,-0.9477,-1.1292,-1.1601,-1.2217,-1.3666,-1.3923,-1.4221,-1.486,-1.5426,-1.614,-1.7079,-1.7941,-1.8422,-1.8414,-1.8498,-1.8684,-1.8903,-1.9527,-1.9883,-1.998,-2.0371,-2.0566,-2.0566,-2.0566,-2.0566,-2.0566,-2.0566,-2.0566,-2.0566,-2.0566,-2.0566,-2.0566,-2.0566,-2.0566,-2.0547,-2.0469,-1.9922,-1.916,-1.8769,-1.8359,-1.8008,-1.7949,-1.7969,-1.8008,-1.8017,-1.8362,-1.8775,-1.8867,-1.8108,-1.7137,-1.7111,-1.6831,-1.7181,-1.9758,-2.0347,-2.133,0.0,-2.5529,-2.535,-2.6843,-2.7608,-2.8028,-2.8195,-2.8312,-2.8707,-2.9745,-2.9477,-2.9456,-2.9953,-2.9953,-2.9889,-2.9994,-2.9554,-2.9448,-2.9994,-2.9448,-2.9343,-2.9784,-2.9889,-2.9737,-2.9263,-2.9302,-2.9659,-3.0113,-3.0762,-3.1443,-3.2172,-3.3653,-3.4238,-3.3922,-3.4673,-3.4922,-3.4797,-3.4673,-3.477,-3.5174,-3.5963,-3.6254,-3.6254,-3.6573,-3.6991,-3.7425,-3.7425,-3.7769,-3.8429,-3.8171,-3.814,-3.8553,-0.9788,-0.9814,-0.9788,-0.9686,-0.9289,-0.8937,-0.8795,-0.8746,-0.9262,-1.0819,-1.0977,-1.1398,-1.2605,-1.2374,-1.237,-1.2934,-1.4383,-1.5642,-1.6495,-1.8022,-1.8751,-1.8482,-1.8642,-1.8794,-1.8894,-1.9199,-1.937,-1.9551,-1.998,-2.0195,-2.0195,-2.0449,-2.0566,-2.0566,-2.0566,-2.0566,-2.0566,-2.0566,-2.0566,-2.0566,-2.0566,-2.0566,-2.0566,-2.0566,-2.0176,-1.959,-1.916,-1.8574,0.0,-1.8008,-1.7852,-1.7695,-1.793,-1.8302,-1.8589,-1.8323,-1.8437,-1.9104,-2.1339,-2.1393,-2.1435,-2.3881,-2.4566,-2.5083,-2.6898,-2.6978,-2.7167,-2.891,-2.9182,-2.9042,-2.9039,-2.9228,-2.9456,-2.958,-2.9331,-2.935,-2.9973,-2.9679,-2.9448,-2.9448,-2.9554,-2.9679,-2.9994,-2.9784,-2.9343,-2.8794,-2.9353,-2.9487,-2.8597,-2.9525,-3.0167,-3.0431,-3.1169,-3.1687,-3.1865,-3.3105,-3.3544,-3.3019,-3.4047,-3.4153,-3.3398,-3.3926,-3.4132,-3.4154,-3.4478,-3.4844,-3.5078,-3.5211,-3.5751,-3.6281,-3.6281,-3.6793,-3.7722,-3.8356,-3.8688,-3.8957,-0.984,-0.984,-0.9738,-0.9555,-0.9289,-0.9046,-0.8745,-0.8656,-0.9084,-1.0401,-1.0363,-1.048,-1.1228,-1.0723,-1.0578,-1.1137,-1.3186,-1.4873,-1.5915,-1.7739,-1.8742,-1.8684,-1.8684,-1.8758,-1.8854,-1.8924,-1.9002,-1.9174,-1.9531,-1.9746,-1.9746,-2.0176,-2.0391,-2.0391,-2.0508,-2.0566,-2.0566,-2.0566,-2.0566,-2.0566,-2.0566,-2.0566,-2.0566,-2.0566,-2.0156,-1.9512,-1.9082,-1.8457,-1.7773,-1.7422,-1.709,-1.6914,-1.7344,-1.7829,-1.8176,-1.803,-1.8841,-2.0455,-2.3341,-2.4046,-2.4354,-2.6456,-2.7382,-2.7867,-2.7964,-2.8103,-2.872,-3.0215,-3.017,-2.9782,-2.9828,-2.9953,-3.0077,-2.9746,-2.9638,-2.9591,-3.0015,-2.9679,-2.9343,-2.9343,-2.9784,-2.9994,-2.9994,-2.9889,-2.9384,-2.8418,-2.9154,-2.942,-2.8783,-2.9699,-3.0451,-3.0873,-3.1245,-3.1388,-3.1299,-3.2359,-3.2638,-3.2001,-3.3146,-3.3204,-3.2445,-3.3364,-3.3633,-3.3385,-3.3632,-3.401,-3.4448,-3.4448,-3.491,-3.5606,-3.5606,-3.6132,-3.6759,-3.7879,-3.8234,-3.8575,-0.9893,-0.9893,-0.9816,-0.9555,-0.9502,-0.9369,-0.9019,-0.8745,-0.9007,-1.0164,-0.998,-0.9597,-0.931,-0.9077,-0.9294,-1.0057,-1.1881,-1.3765,-1.5587,-1.7124,-1.8304,-1.9044,-1.8596,-1.8482,-1.8838,-1.8903,-1.8914,-1.8934,-1.9154,-1.9297,-1.9316,-1.9746,-1.9941,-1.9941,-2.0371,-2.0566,-2.0566,-2.0566,-2.0566,-2.0566,-2.0566,-2.0566,-2.0566,-2.0566,-1.9785,-1.8613,-1.8203,-1.7773,-1.7207,-1.5918,-1.5488,-1.5547,-1.5977,-1.6977,-1.8211,-1.9069,-1.9901,-2.0758,-2.1502,-2.2803,-2.4329,-2.6189,-2.7828,-2.9063,-2.9639,-3.0262,-3.0835,-3.1443,-3.1384,-3.1091,-3.1085,-3.085,-3.0657,-3.0657,-3.0657,-3.0512,-3.0056,-2.9994,-2.9994,-2.9994,-2.9994,-2.9994,-2.9994,-2.9448,-2.9313,-2.9607,-2.9609,-2.9789,-3.0276,-2.9785,-3.0015,-3.1202,-3.0357,-3.0063,-3.0325,-3.1359,-3.1616,-3.0861,-3.1616,-3.2096,-3.2376,-3.2906,-3.3138,-3.3175,-3.3972,-3.4571,-3.4846,-3.5256,-3.5549,-3.5976,-3.5976,-3.625,-3.6759,-3.6759,-3.7034,-3.7406,-0.9893,-0.9893,-0.9816,-0.9555,-0.9502,-0.9475,-0.9343,-0.9262,-0.9333,-0.9716,-0.9658,0.0,0.0,0.0,0.0,0.0,-1.1572,-1.3222,-1.5111,-1.6547,-1.7719,-1.8589,-1.8479,-1.8492,-1.8798,-1.8826,-1.8751,-1.8614,-1.8914,-1.9061,-1.9081,-1.937,-1.9492,-1.9512,-1.9648,-1.9727,-1.9727,-1.9727,-1.9727,-1.9727,-1.9727,-1.9727,-1.9746,-2.0019,-1.916,-1.7715,0.0,-1.6445,-1.6055,-1.5898,-1.5644,-1.5488,-1.5918,-1.6435,-1.6942,-1.7396,-1.9486,-2.2031,-2.3728,-2.6189,-2.8684,-3.0787,-3.166,-3.192,-3.1931,-3.1899,-3.1786,-3.16,-3.0656,-2.9927,-3.0278,-3.0104,-3.0007,-3.0427,-3.0601,-3.0739,-3.0884,-3.0387,-2.9993,-2.9876,-2.9969,-2.9802,-2.9319,-2.9447,-2.9399,-2.9233,-2.9122,-2.9316,-2.9766,-2.9841,-3.0098,-3.0501,-3.0537,-3.0219,-2.9709,-3.0473,-3.0858,-3.0864,-3.1396,-3.1853,-3.2097,-3.1837,-3.1826,-3.2071,-3.2333,-3.2806,-3.3381,-3.3521,-3.3937,-3.449,-3.449,-3.4564,-3.4872,-3.5135,-3.5323,-3.567,-0.9893,-0.9893,-0.9841,-0.9686,-0.9581,0.0,0.0,0.0,0.0,0.0,0.0,0.0,0.0,0.0,0.0,0.0,0.0,-1.2463,-1.3931,-1.5355,-1.6526,-1.7388,-1.7513,-1.7677,-1.7859,-1.7859,-1.7938,-1.8067,-1.8148,-1.8378,-1.8696,-1.8919,-1.9062,-1.9062,-1.9219,-1.9297,-1.9297,-1.9297,-1.9375,-1.9473,-1.9023,-1.8926,-1.9023,-1.8672,-1.7578,0.0,-1.541,-1.4668,-1.4102,-1.4551,-1.4512,-1.4414,-1.5137,-1.5948,-1.6772,-1.7384,-1.9754,-2.2708,-2.4978,-2.7567,-3.0007,-3.1869,-3.2333,-3.2374,-3.2158,-3.2016,-3.1854,-3.1884,-3.0427,-2.9254,-2.9882,-2.9706,-2.9543,-2.965,-3.0472,-3.1147,-3.1272,-3.0622,-3.0162,-3.0166,-3.0196,-2.9921,-2.9213,-2.962,-2.9597,-2.9041,-2.8782,-2.9065,-2.986,-2.9897,-3.0068,-3.0337,-3.0348,-2.997,-2.9316,-2.9848,-3.0373,-3.074,-3.1143,-3.1458,-3.1685,-3.1288,-3.1337,-3.1559,-3.1559,-3.1999,-3.2701,-3.2701,-3.3121,-3.3817,-3.3817,-3.3908,-3.4055,-3.4312,-3.4495,-3.4839,-0.9893,-0.9893,-0.9893,0.0,0.0,0.0,0.0,0.0,0.0,0.0,0.0,0.0,0.0,0.0,0.0,0.0,0.0,0.0,-1.2215,-1.3634,-1.4818,-1.5566,-1.5833,-1.6042,-1.6161,-1.6104,-1.6473,-1.7203,-1.6954,-1.7308,-1.814,-1.835,-1.8477,-1.8496,-1.8906,-1.9082,-1.9082,-1.9082,-1.9316,-1.957,-1.834,-1.8086,-1.8262,-1.6621,-1.5176,-1.3984,-1.3613,-1.2617,-1.1626,-1.209,-1.2344,-1.2656,-1.3945,-1.5739,-1.7586,-1.8954,-2.0775,-2.2914,-2.5209,-2.7037,-2.8563,-2.9639,-3.0319,-3.0706,-3.0591,-3.0808,-3.1227,-3.2022,-3.0373,-2.8892,-2.9508,-2.9367,-2.9083,-2.8754,-3.0456,-3.1612,-3.1184,-3.0815,-3.053,-3.0743,-3.0739,-3.0396,-2.9836,-2.9931,-2.9872,-2.92,-2.8773,-2.9101,-3.0519,-2.9798,-2.9807,-3.0714,-2.9822,-2.9316,-2.9333,-2.9744,-3.0121,-3.0463,-3.0857,-3.1046,-3.1063,-3.1405,-3.1559,-3.1559,-3.1559,-3.1999,-3.2701,-3.2701,-3.3139,-3.3853,-3.3853,-3.4092,-3.444,-3.4458,-3.4715,-3.5064,0.0,0.0,0.0,0.0,0.0,0.0,0.0,0.0,0.0,0.0,0.0,0.0,0.0,0.0,0.0,0.0,0.0,0.0,-1.145,-1.2194,-1.3049,-1.3998,-1.444,-1.4993,-1.5669,-1.6074,-1.6304,-1.6353,-1.6177,-1.6238,-1.6336,-1.6253,-1.623,-1.623,-1.6348,-1.6406,-1.6406,-1.6406,-1.6465,-1.6504,-1.5859,-1.5664,-1.5723,-1.5273,-1.4121,-1.2706,-1.2969,-1.1992,-1.0861,-1.2246,-1.3873,-1.5641,-1.744,-1.8365,-1.889,-1.9573,-2.2264,-2.5125,-2.6073,-2.8623,-3.1204,-3.1619,-3.1971,-3.2159,-3.1893,-3.1833,-3.1412,-2.9645,-2.7934,-2.6535,-2.581,-2.626,-2.7158,-2.8196,-3.0125,-3.1709,-3.2163,-3.1667,-3.1266,-3.1629,-3.0942,-3.0419,-3.0069,-2.9736,-2.9313,-2.9028,-2.8701,-2.898,-2.9883,-2.9529,-2.9524,-3.0048,-2.9822,-2.9699,-2.9744,-3.0395,-3.0772,-3.0874,-3.1251,-3.1422,-3.1422,-3.1789,-3.1841,-3.1559,-3.1841,-3.2263,-3.2701,-3.2701,-3.33,-3.4257,-3.4257,-3.4495,-3.4899,-3.5192,-3.5375,-3.5504,0.0,0.0,0.0,0.0,0.0,0.0,0.0,0.0,0.0,0.0,0.0,0.0,0.0,0.0,0.0,0.0,0.0,0.0,0.0,-1.0893,-1.1481,-1.194,-1.2453,-1.2925,-1.3321,-1.3731,-1.4215,-1.478,-1.4345,-1.456,-1.5442,-1.4821,-1.4668,-1.4844,-1.4844,-1.4844,-1.4844,-1.4844,-1.4961,0.0,0.0,-1.4062,-1.4141,-1.3379,-1.248,-1.166,-1.1719,-1.2027,-1.2641,-1.4566,-1.6056,-1.7362,-1.8839,-1.9614,-2.0236,-2.1267,-2.3773,-2.6428,-2.7107,-2.9054,-3.1031,-3.1453,-3.1567,-3.1331,-3.0471,-3.0287,-2.9449,-2.6708,-2.4906,-2.3633,-2.2875,-2.4271,-2.585,-2.6714,-2.9487,-3.1843,-3.2469,-3.1864,-3.1503,-3.194,-3.1055,-3.0398,-3.0156,-2.9795,-2.9325,-2.9076,-2.8636,-2.8738,-2.9386,-2.919,-2.9165,-2.9543,-2.9733,-2.9963,-3.0378,-3.0806,-3.1097,-3.1268,-3.1456,-3.1559,-3.1559,-3.1965,-3.1982,-3.1559,-3.2123,-3.2561,-3.2719,-3.3037,-3.3639,-3.4422,-3.4605,-3.4935,-3.532,-3.554,-3.5724,-3.5925,0.0,0.0,0.0,0.0,0.0,0.0,0.0,0.0,0.0,-0.9709,-0.9332,-0.9051,0.0,0.0,0.0,0.0,0.0,0.0,0.0,0.0,0.0,-0.9864,-1.0364,-1.0593,-1.0482,-1.0777,-1.1531,-1.2829,-1.2083,-1.2656,-1.4467,-1.3488,-1.3281,-1.3633,-1.3633,-1.3633,-1.3633,-1.3633,-1.3867,-1.416,-1.3008,-1.2793,-1.2988,0.0,-1.082,-1.0781,-1.0469,-1.2313,-1.5156,-1.7409,-1.8332,-1.8675,-1.9687,-2.07,-2.1765,-2.3433,-2.5231,-2.7019,-2.8137,-2.8892,-2.9611,-3.037,-3.0404,-2.9807,-2.8028,-2.7549,-2.6665,-2.3629,-2.1829,-2.073,-2.0309,-2.2553,-2.466,-2.4935,-2.8625,-3.1677,-3.2297,-3.1699,-3.1445,-3.187,-3.1045,-3.0366,-3.012,-2.9928,-2.9568,-2.8975,-2.8755,-2.872,-2.9066,-2.8922,-2.8945,-2.9367,-2.9813,-3.0361,-3.1011,-3.1063,-3.1251,-3.1559,-3.1559,-3.1559,-3.1559,-3.1965,-3.1982,-3.17,-3.2421,-3.2701,-3.2877,-3.3498,-3.4121,-3.4532,-3.4954,-3.5375,-3.5797,-3.5834,-3.6072,-3.6421,0.0,0.0,0.0,0.0,0.0,0.0,0.0,0.0,0.0,0.0,-0.9864,-0.9337,0.0,0.0,0.0,0.0,0.0,0.0,0.0,0.0,0.0,-0.9182,-0.9588,-0.9866,-1.0019,-1.0919,-1.1206,-1.0904,-1.1225,-1.1304,-1.1158,-1.0959,-1.0879,-1.0957,-1.0957,-1.0957,-1.0957,-1.0957,-1.1191,-1.1543,-1.0957,-1.0977,-1.1289,-1.0645,0.0,0.0,-1.0703,-1.2178,-1.445,-1.7408,-1.977,-2.1645,-2.314,-2.4033,-2.455,-2.5295,-2.6187,-2.7225,-2.8307,-2.8914,-2.944,-3.0569,-3.0843,-3.0199,-2.8114,-2.7291,-2.5722,-2.1135,-1.9651,-1.8812,-1.7348,-1.9536,-2.2134,-2.4111,-2.7416,-3.0384,-3.185,-3.1996,-3.1787,-3.1836,-3.0923,-3.0139,-3.0004,-2.953,-2.9094,-2.8993,-2.8993,-2.8835,-2.8694,-2.8888,-2.9322,-2.9761,-3.0463,-3.0891,-3.1011,-3.1319,-3.1508,-3.1559,-3.1559,-3.1559,-3.1559,-3.1965,-3.2105,-3.1965,-3.2561,-3.2859,-3.3278,-3.335,-3.403,-3.4972,-3.5357,-3.5981,-3.6659,-3.6989,-3.7154,-3.7228,0.0,0.0,0.0,0.0,0.0,0.0,0.0,-1.0759,-1.1113,-1.2284,-1.1736,-1.0971,-1.0207,-0.9456,-0.9096,0.0,0.0,0.0,0.0,0.0,0.0,0.0,0.0,0.0,-0.8828,-0.9315,-0.9742,-1.0074,0.0,-0.9718,-1.0312,-0.9646,-0.9414,-0.9629,-0.9629,-0.9629,-0.9629,-0.9629,-0.9863,-1.0234,-1.002,-1.0195,-1.0566,0.0,0.0,0.0,-1.1016,-1.262,-1.4746,-1.6738,-1.936,-2.2129,-2.436,-2.5186,-2.5357,-2.6041,-2.6764,-2.761,-2.8828,-2.8914,-2.918,-3.0808,-3.0908,-2.9676,-2.6213,-2.5126,-2.3351,-1.8137,-1.6657,-1.6158,-1.5632,-1.765,-2.0114,-2.2185,-2.5509,-2.8592,-3.0494,-3.1203,-3.1543,-3.1539,-3.0675,-3.0044,-2.9678,-2.9201,-2.8975,-2.8975,-2.9057,-2.8985,-2.8889,-2.9287,-2.9664,-3.0155,-3.072,-3.1114,-3.1302,-3.1474,-3.1559,-3.1559,-3.1559,-3.1559,-3.1559,-3.1965,-3.2105,-3.2105,-3.2701,-3.3139,-3.3278,-3.3757,-3.4335,-3.5082,-3.5687,-3.6292,-3.6879,-3.7283,-3.7429,-3.7448,0.0,0.0,0.0,0.0,0.0,0.0,0.0,-1.2067,-1.26,-1.4037,-1.3827,-1.2966,-1.132,-1.0323,-0.9736,0.0,0.0,0.0,0.0,0.0,0.0,0.0,0.0,0.0,0.0,0.0,0.0,-0.9635,-0.8639,0.0,0.0,0.0,0.0,0.0,-0.8867,-0.8828,-0.873,-0.8828,-0.9121,0.0,0.0,-0.9883,-1.0273,0.0,0.0,0.0,0.0,-1.2675,-1.4461,-1.5792,-1.8009,-2.0689,-2.3643,-2.4723,-2.5001,-2.5896,-2.663,-2.7558,-2.89,-2.8839,-2.8955,-3.0838,-3.0743,-2.8972,-2.4448,-2.2955,-2.1105,-1.5796,-1.4292,-1.4102,-1.4453,-1.6376,-1.8402,-2.0195,-2.3458,-2.6633,-2.8716,-2.9937,-3.0701,-3.0744,-3.0309,-2.9623,-2.9047,-2.8972,-2.8911,-2.8864,-2.9076,-2.9101,-2.9153,-2.9578,-3.0069,-3.0412,-3.0891,-3.1268,-3.1559,-3.1559,-3.1559,-3.1559,-3.1559,-3.1559,-3.1559,-3.1841,-3.2123,-3.2263,-3.2841,-3.3278,-3.3436,-3.4006,-3.4568,-3.5119,-3.5907,-3.6512,-3.7026,-3.7503,-3.7686,-3.7723,0.0,0.0,0.0,0.0,0.0,0.0,0.0,-1.2941,-1.3942,-1.5664,-1.5508,-1.4668,-1.3359,-1.1915,-1.0603,0.0,0.0,0.0,0.0,0.0,0.0,0.0,0.0,0.0,0.0,0.0,0.0,-0.9145,-0.9457,0.0,0.0,0.0,0.0,0.0,0.0,-0.8223,-0.7841,-0.8262,0.0,0.0,0.0,0.0,0.0,0.0,0.0,0.0,0.0,-1.1394,-1.2308,-1.4835,-1.5946,-1.6879,-2.0023,-2.2206,-2.3737,-2.4313,-2.5248,-2.6493,-2.8115,-2.8603,-2.8891,-3.0034,-3.0006,-2.8718,-2.4288,-2.2391,-2.0191,-1.5285,-1.3881,-1.3574,-1.3613,-1.5279,-1.7184,-1.8765,-2.1611,-2.445,-2.6943,-2.8244,-2.908,-2.9431,0.0,-2.87,-2.8137,-2.84,-2.8559,-2.8674,-2.8993,-2.916,-2.9195,-2.9585,-3.0069,-3.0412,-3.1131,-3.1525,-3.1559,-3.1559,-3.1559,-3.1559,-3.1559,-3.1559,-3.1559,-3.1559,-3.1999,-3.2701,-3.2701,-3.3121,-3.3817,-3.3853,-3.433,-3.5119,-3.5907,-3.6677,-3.7466,-3.8255,-3.853,-3.853,0.0,0.0,0.0,0.0,0.0,0.0,-1.2381,-1.2934,-1.3892,-1.6174,-1.6074,-1.5508,-1.4746,-1.3625,-1.2167,-1.0129,0.0,0.0,0.0,0.0,0.0,0.0,0.0,0.0,0.0,0.0,-0.9332,-0.941,-0.9332,0.0,0.0,0.0,0.0,0.0,0.0,-0.8652,-0.8516,-0.8691,0.0,0.0,0.0,0.0,0.0,0.0,0.0,0.0,0.0,0.0,-1.1473,-1.3354,-1.4469,-1.5235,-1.6675,-1.8198,-2.0171,-2.3002,-2.4214,-2.5088,-2.739,-2.782,-2.7978,-2.9402,-2.8604,-2.6509,-2.3166,-2.0865,-1.8338,-1.4264,-1.3008,-1.2716,-1.2987,-1.373,-1.5054,-1.7174,-1.9193,-2.1391,-2.3841,-2.584,-2.7083,-2.722,-2.7957,-2.837,-2.7669,-2.7908,-2.8286,-2.8694,-2.8968,-2.9223,-2.9206,-2.9739,-3.0069,-3.0412,-3.096,-3.1337,-3.1559,-3.1559,-3.1559,-3.1559,-3.1559,-3.1559,-3.1559,-3.1841,-3.2123,-3.2701,-3.2999,-3.34,-3.3817,-3.3817,-3.4147,-3.4733,-3.554,-3.6347,-3.7173,-3.7961,-3.842,-3.864,0.0,0.0,0.0,0.0,0.0,-1.0652,-1.2638,-1.3185,-1.4134,-1.6272,-1.6367,-1.5996,-1.5293,-1.4355,-1.2969,-1.1099,-1.033,0.0,0.0,0.0,0.0,0.0,0.0,0.0,0.0,0.0,-0.9707,-0.9962,-0.9844,-0.9844,0.0,0.0,-0.9434,-0.9199,0.0,0.0,0.0,0.0,0.0,0.0,0.0,0.0,0.0,0.0,0.0,0.0,0.0,0.0,0.0,0.0,0.0,-1.4056,-1.4331,-1.5153,-1.6815,-2.1014,-2.2696,-2.3657,-2.6173,-2.7108,-2.7505,-2.8781,-2.7366,-2.4998,-2.2303,-1.9658,-1.6819,-1.3481,-1.2324,-1.1964,-1.2359,-1.2632,-1.3449,-1.5581,-1.7177,-1.9014,-2.1244,-2.3438,-2.4914,-2.533,-2.6769,-2.7432,-2.6902,-2.7568,-2.8272,-2.8828,-2.9084,-2.9284,-2.9299,-2.9573,-2.9932,-3.0412,-3.0909,-3.1302,-3.1559,-3.1559,-3.1559,-3.1559,-3.1679,-3.173,-3.173,-3.2156,-3.2438,-3.2861,-3.3175,-3.3539,-3.3817,-3.3817,-3.4037,-3.4477,-3.5302,-3.6036,-3.6751,-3.7686,-3.8199,-3.8475,0.0,0.0,0.0,0.0,0.0,0.0,-1.2909,-1.4064,-1.5008,-1.5958,-1.6445,-1.623,-1.4941,-1.3652,-1.2715,-1.22,-1.1016,0.0,0.0,0.0,0.0,0.0,0.0,0.0,0.0,0.0,-1.0898,-1.0898,-1.1371,-1.1351,-1.0898,-1.0898,-1.043,-0.9592,0.0,0.0,0.0,0.0,0.0,0.0,0.0,0.0,0.0,0.0,0.0,0.0,0.0,0.0,0.0,0.0,0.0,0.0,0.0,-1.3535,-1.4272,-1.7942,-2.0426,-2.2413,-2.437,-2.6352,-2.7903,-2.7924,-2.6651,-2.4638,-2.1941,-1.8936,-1.5928,-1.3185,-1.192,-1.1452,-1.1845,-1.2215,-1.2846,-1.3923,-1.5718,-1.7639,-1.9611,-2.124,-2.2631,-2.403,-2.5256,-2.5866,-2.5643,-2.7227,-2.8467,-2.9084,-2.9223,-2.9299,-2.9316,-2.9316,-2.9658,-3.0412,-3.1165,-3.1559,-3.1559,-3.1559,-3.1559,-3.1576,-3.1953,-3.2124,-3.2124,-3.2555,-3.2841,-3.3251,-3.33,-3.3539,-3.3817,-3.3817,-3.4037,-3.4477,-3.5302,-3.587,-3.6366,-3.7576,-3.8016,-3.8089,0.0,0.0,0.0,0.0,0.0,0.0,0.0,-1.2193,-1.3096,-1.4531,-1.4609,-1.459,-1.4766,-1.3379,-1.2383,-1.22,-1.1035,0.0,0.0,0.0,0.0,0.0,0.0,0.0,0.0,0.0,-1.1055,-1.139,-1.1547,-1.1528,-1.139,-1.1055,-1.0762,-1.0488,-1.0215,-1.0,0.0,0.0,0.0,0.0,0.0,0.0,0.0,0.0,0.0,0.0,0.0,0.0,0.0,0.0,0.0,0.0,0.0,0.0,0.0,-1.5135,-1.7248,-1.9464,-2.146,-2.2533,-2.2961,-2.2961,-2.1369,-1.9422,-1.8198,-1.5878,-1.3527,-1.196,-1.1166,-1.0841,-1.1228,-1.1593,-1.2628,-1.5191,-1.6123,-1.7185,-1.9182,-2.1225,0.0,-2.3073,-2.5519,-2.7029,-2.6935,-2.7985,-2.8648,-2.8879,-2.9111,-2.9316,-2.9316,-2.9573,-2.9813,-3.0052,-3.0532,-3.0909,-3.1183,-3.1439,-3.1696,-3.1953,-3.2073,-3.2261,-3.2501,-3.3243,-3.3391,-3.3269,-3.3852,-3.3915,-3.3817,-3.3817,-3.389,-3.4073,-3.4899,-3.5467,-3.5925,-3.6861,-3.7558,-3.8034,0.0,0.0,0.0,0.0,0.0,0.0,0.0,-1.1214,-1.1979,-1.3027,-1.3086,-1.3301,-1.3984,-1.2676,-1.183,-1.2161,-1.1035,0.0,0.0,0.0,0.0,0.0,0.0,0.0,0.0,-1.123,-1.1699,-1.2332,-1.2461,-1.2461,-1.2285,-1.2012,-1.1543,-1.0898,-1.0645,-1.043,0.0,0.0,0.0,0.0,0.0,0.0,-1.0918,0.0,0.0,0.0,0.0,0.0,0.0,0.0,0.0,0.0,0.0,0.0,0.0,0.0,-1.498,-1.675,-1.8943,-1.999,-2.0373,-2.0373,-1.8594,-1.6832,-1.6274,-1.4169,-1.2092,-1.1254,-1.0717,-1.0526,-1.089,-1.138,-1.247,-1.4799,-1.5551,-1.6601,-1.8825,-2.0443,0.0,-2.335,-2.5663,-2.7332,-2.7974,-2.849,-2.8837,-2.8974,-2.9179,-2.9316,-2.9316,-2.9539,-2.9676,-2.9676,-3.0309,-3.084,-3.1496,-3.1735,-3.2113,-3.2492,-3.2484,-3.2689,-3.2912,-3.3792,-3.3961,-3.3695,-3.4248,-3.4257,0.0,-3.3872,-3.3817,-3.3872,-3.4532,-3.5045,-3.5504,-3.6311,-3.7007,-3.7613,0.0,0.0,0.0,0.0,0.0,0.0,0.0,-1.0979,-1.1528,-1.1547,-1.1875,-1.2285,-1.2695,-1.1621,-1.1191,-1.1966,0.0,0.0,0.0,0.0,0.0,0.0,0.0,0.0,0.0,-1.1758,-1.2637,-1.3555,-1.3945,-1.3965,-1.3633,-1.3613,-1.2715,-1.1094,-1.1074,-1.0801,0.0,0.0,0.0,0.0,-1.1172,-1.0977,0.0,0.0,0.0,0.0,0.0,0.0,0.0,0.0,0.0,0.0,0.0,0.0,0.0,0.0,0.0,0.0,0.0,-1.8247,-1.9424,-1.9242,-1.777,-1.6247,-1.5737,-1.3575,0.0,-1.1075,-1.0625,-1.0496,-1.0956,-1.1638,-1.2397,-1.3351,-1.4488,-1.6078,-1.8547,-1.946,0.0,-2.4693,-2.5949,-2.7059,-2.8444,-2.8762,-2.8956,-2.9282,-2.9316,-2.9316,-2.9316,-2.9316,-2.9316,-2.935,-3.0429,-3.1461,-3.2088,-3.2079,-3.2474,-3.3308,-3.3248,-3.3289,-3.3306,-3.4031,-3.4457,-3.4386,-3.4521,-3.4458,-3.4367,-3.4,-3.3835,-3.3853,-3.4238,-3.466,-3.5119,-3.5889,-3.6457,-3.6952,0.0,0.0,0.0,0.0,0.0,0.0,0.0,0.0,0.0,0.0,-1.1152,-1.127,-1.1367,-1.0801,-1.0508,0.0,0.0,0.0,0.0,0.0,0.0,0.0,0.0,0.0,0.0,-1.1665,-1.2461,-1.3984,-1.4029,-1.436,-1.4961,-1.4629,-1.3906,-1.2891,-1.2559,-1.1992,0.0,0.0,0.0,0.0,-1.1953,-1.1719,0.0,0.0,0.0,0.0,-1.1494,-1.2056,0.0,0.0,0.0,0.0,0.0,0.0,0.0,0.0,-1.2215,-1.2299,-1.2548,0.0,-1.5293,-1.4772,-1.4026,-1.3437,0.0,-1.24,-1.1649,-1.1398,-1.1048,-1.1085,-1.2098,-1.2208,-1.2855,-1.5221,-1.6101,-1.7224,-1.947,-2.1878,0.0,-2.6257,-2.721,-2.7868,-2.8219,-2.8766,-2.9213,-2.9299,-2.9316,-2.9316,-2.9316,-2.9316,-2.9453,-2.9744,-3.0856,-3.1617,-3.1704,-3.1941,-3.2612,-3.3726,-3.3517,-3.3426,-3.37,-3.4434,-3.4705,-3.4422,-3.5121,-3.4972,-3.4403,-3.4293,-3.4092,-3.3853,-3.4238,-3.466,-3.5082,-3.5577,-3.6219,-3.6897,0.0,0.0,0.0,0.0,0.0,0.0,0.0,0.0,0.0,0.0,0.0,-1.0098,0.0,0.0,0.0,0.0,0.0,0.0,0.0,0.0,0.0,0.0,0.0,0.0,0.0,-1.1758,-1.2812,-1.4727,-1.4727,-1.5273,-1.6309,-1.5879,-1.5,-1.375,-1.2734,-1.2129,0.0,0.0,0.0,-1.2405,-1.2212,0.0,0.0,0.0,0.0,0.0,-1.1605,-1.2071,0.0,-1.2838,-1.2731,-1.2567,0.0,0.0,0.0,0.0,-1.178,-1.1593,-1.112,-1.2261,-1.3423,-1.3039,-1.2913,-1.2842,-1.2791,-1.2147,-1.1593,-1.1527,-1.1343,-1.1453,-1.23,-1.3168,-1.4278,-1.557,-1.737,-1.9352,-2.1265,-2.3507,-2.5488,-2.6446,-2.7487,-2.823,-2.8386,-2.8983,-2.9316,-2.9316,-2.9316,-2.9316,-2.9316,-2.9487,-2.9676,-2.9898,-3.0754,-3.16,-3.2368,-3.2711,-3.3388,-3.4408,-3.3828,-3.3631,-3.3837,-3.4556,-3.4883,-3.4688,-3.5394,-3.5375,-3.4935,-3.455,-3.4275,-3.4092,-3.411,-3.4495,-3.5064,-3.5265,-3.5852,-3.6641,0.0,0.0,0.0,0.0,0.0,0.0,0.0,0.0,0.0,0.0,0.0,0.0,0.0,0.0,0.0,0.0,0.0,0.0,0.0,0.0,0.0,0.0,0.0,0.0,0.0,0.0,-1.3231,-1.541,-1.5469,-1.6152,-1.7383,-1.7207,-1.6152,-1.4355,-1.2695,-1.209,0.0,0.0,-1.2141,-1.2657,-1.2225,0.0,0.0,0.0,0.0,0.0,0.0,0.0,0.0,-1.2878,-1.2664,-1.2389,-1.2827,0.0,0.0,0.0,0.0,0.0,-1.1067,-1.2073,-1.3106,-1.2632,-1.2892,-1.3259,-1.3131,-1.2305,-1.159,-1.1645,-1.1663,-1.192,-1.2711,-1.4484,-1.5873,-1.5816,-1.87,-2.1591,-2.3191,-2.4808,-2.5961,-2.6377,-2.747,-2.8407,-2.8759,-2.9059,-2.9316,-2.9316,-2.9316,-2.9333,-2.9402,-2.971,-2.9984,-3.0273,-3.0961,-3.2105,-3.3589,-3.3629,-3.4136,-3.5157,-3.4273,-3.3837,-3.3988,-3.4707,-3.5007,-3.4989,-3.5558,-3.5669,-3.5559,-3.488,-3.4513,-3.4367,-3.4037,-3.4367,-3.5027,-3.5027,-3.5522,-3.6329,0.0,0.0,0.0,0.0,0.0,0.0,0.0,0.0,0.0,0.0,0.0,0.0,0.0,0.0,0.0,0.0,0.0,0.0,0.0,0.0,0.0,0.0,0.0,0.0,0.0,0.0,0.0,-1.541,-1.5781,-1.6445,-1.7402,-1.8418,-1.7773,-1.5703,-1.4336,-1.3379,-1.2773,-1.2599,-1.2609,-1.2676,-1.2502,0.0,0.0,0.0,0.0,0.0,0.0,0.0,0.0,-1.2457,-1.2389,-1.2283,-1.2407,0.0,0.0,0.0,0.0,0.0,-1.1269,-1.302,-1.4289,-1.2177,-1.2489,-1.3112,-1.2415,-1.2122,-1.2085,-1.2466,-1.254,-1.3296,-1.5842,-1.5993,-1.6387,-1.8506,-2.0483,-2.247,-2.414,-2.5794,-2.7004,-2.7245,-2.8161,-2.8639,-2.8685,-2.9034,-2.9316,-2.9316,-2.9316,-2.9453,-2.9795,-2.9864,-3.0462,-3.1844,-3.2579,-3.3482,-3.4848,-3.3465,-3.3709,-3.5456,-3.4273,-3.3988,-3.429,-3.4724,-3.5007,-3.5007,-3.5849,-3.5925,-3.5614,-3.5485,-3.5027,-3.4403,-3.433,-3.4605,-3.5027,-3.5027,-3.5522,-3.6329,0.0,0.0,0.0,0.0,0.0,0.0,0.0,0.0,0.0,0.0,0.0,0.0,0.0,0.0,0.0,0.0,0.0,0.0,0.0,0.0,0.0,0.0,0.0,0.0,0.0,0.0,0.0,-1.6484,-1.7129,-1.7891,-1.875,-1.8095,-1.7116,-1.5894,-1.4077,-1.3092,-1.2774,-1.2627,-1.2578,-1.2578,0.0,0.0,0.0,0.0,0.0,0.0,0.0,0.0,0.0,0.0,-1.2166,-1.2166,-1.2166,0.0,0.0,0.0,0.0,0.0,-1.0827,-1.2122,-1.3406,-1.3023,-1.4896,-1.6656,-1.5921,-1.5613,-1.5269,-1.4599,-1.4454,-1.5043,-1.7009,-1.7653,-1.894,-2.2362,-2.2758,-2.3366,-2.5308,-2.6197,-2.6859,-2.7486,-2.8268,-2.8801,-2.8897,-2.9111,-2.9316,-2.9316,-2.9316,-2.9487,-2.9881,-3.041,-3.1236,-3.2105,-3.3126,-3.4017,-3.4752,-3.3821,-3.4014,-3.5306,-3.4273,-3.3837,-3.4139,-3.4707,-3.5007,-3.5007,-3.5903,-3.6109,-3.5925,-3.5705,-3.5265,-3.4715,-3.4495,-3.4513,-3.4752,-3.5192,-3.5999,-3.6916,0.0,0.0,0.0,0.0,0.0,0.0,0.0,0.0,0.0,0.0,0.0,0.0,0.0,0.0,0.0,0.0,0.0,0.0,0.0,0.0,0.0,0.0,0.0,0.0,0.0,0.0,-1.5605,-1.7676,-1.8418,-1.9219,-2.0019,-1.7852,-1.6548,-1.5969,-1.3762,-1.2769,-1.2627,-1.2529,-1.2431,-1.2431,0.0,0.0,0.0,0.0,0.0,0.0,0.0,0.0,0.0,0.0,0.0,0.0,0.0,0.0,0.0,-1.138,-1.1048,-1.0938,-1.1122,-1.184,-1.2876,-1.4502,-1.6733,-1.8556,-1.8662,-1.81,-1.7403,-1.6777,-1.6599,-1.6937,-1.8291,-1.9671,-2.1613,-2.4931,-2.4541,-2.4438,-2.6273,-2.6563,-2.6976,-2.773,-2.8425,-2.8939,-2.9265,-2.9316,-2.9316,-2.9316,-2.9316,-2.9521,-3.0001,-3.1062,-3.1966,-3.2526,-3.3624,-3.432,-3.4729,-3.4433,-3.4574,-3.5007,-3.4122,-3.3837,-3.3988,-3.4707,-3.5007,-3.5007,-3.5903,-3.6201,-3.6182,-3.5889,-3.5467,-3.499,-3.4678,-3.455,-3.4642,-3.5357,-3.6384,-3.7429,0.0,0.0,0.0,0.0,0.0,0.0,0.0,0.0,0.0,0.0,0.0,0.0,0.0,0.0,0.0,0.0,0.0,0.0,0.0,0.0,0.0,0.0,0.0,0.0,0.0,-1.6523,-1.6797,-1.8535,-1.9004,-1.9687,-2.0488,-1.8589,-1.7263,-1.635,-1.4506,-1.3252,-1.2529,-1.2382,-1.2332,-1.2283,-1.2184,0.0,0.0,0.0,0.0,0.0,0.0,0.0,0.0,0.0,0.0,0.0,0.0,0.0,-1.2067,-1.2012,-1.149,-1.1306,-1.3112,-1.3681,-1.4323,-1.6688,-1.579,-1.4969,-1.7411,-1.6705,-1.6136,-1.8338,-1.8567,-1.8901,-2.0889,-2.2496,-2.3626,-2.3876,-2.4876,-2.5926,-2.6936,-2.7693,-2.8152,-2.8597,-2.8991,-2.9248,-2.9299,-2.9316,-2.9316,-2.9316,-2.9316,-2.9624,-3.0343,-3.1201,-3.2211,-3.373,-3.463,-3.519,-3.5569,-3.542,-3.5288,-3.5007,-3.4122,-3.3988,-3.4441,-3.4857,-3.5007,-3.5007,-3.5903,-3.6201,-3.6201,-3.6182,-3.5724,-3.5027,-3.499,-3.499,-3.5045,-3.5467,-3.6384,-3.7429,0.0,0.0,0.0,0.0,0.0,0.0,0.0,0.0,0.0,0.0,0.0,0.0,0.0,0.0,0.0,0.0,0.0,0.0,0.0,0.0,0.0,0.0,0.0,-1.4943,-1.7038,-1.7706,-1.8652,-1.9844,-2.0273,-2.045,-2.0372,-1.7985,-1.651,-1.5737,-1.3642,-1.2613,-1.2382,-1.2234,-1.2234,-1.2283,-1.2166,-1.2085,0.0,0.0,0.0,0.0,0.0,0.0,0.0,0.0,-1.203,-1.1773,-1.2227,-1.2245,-1.203,-1.1773,-1.1343,-1.1122,-1.2104,-1.3205,-1.4484,-1.6378,-1.654,-1.6938,-1.953,-2.0183,-2.0359,-2.0554,-2.0709,-2.1094,-2.179,-2.3634,-2.5041,-2.468,-2.5561,-2.6489,-2.7278,-2.786,-2.834,-2.8734,-2.9093,-2.9316,-2.9316,-2.9316,-2.9316,-2.9316,-2.9539,-3.0135,-3.1029,-3.2071,-3.3269,-3.463,-3.5338,-3.5609,-3.5306,-3.5456,-3.5157,-3.4273,-3.4139,-3.4139,-3.3988,-3.4707,-3.5007,-3.5007,-3.5903,-3.6201,-3.6201,-3.6201,-3.5742,-3.4972,-3.4477,-3.4587,-3.5045,-3.5192,-3.6017,-3.7099,0.0,0.0,0.0,0.0,0.0,0.0,0.0,0.0,0.0,0.0,0.0,0.0,0.0,0.0,0.0,0.0,0.0,0.0,0.0,0.0,0.0,0.0,0.0,-1.4363,-1.5892,-1.8065,-1.9496,-2.0156,-2.08,-2.0622,-1.9736,-1.7586,-1.6317,-1.5701,-1.3478,-1.2577,-1.2772,-1.2282,-1.2166,-1.2234,-1.2135,-1.2085,0.0,0.0,0.0,0.0,0.0,0.0,0.0,0.0,-1.1718,-1.1553,-1.1957,-1.2208,-1.2227,-1.1792,-1.1871,-1.2186,-1.2586,-1.351,-1.4764,-1.683,-1.7546,-1.838,-2.1098,-2.203,-2.2426,-2.253,-2.2915,-2.3125,-2.2962,-2.4628,-2.5812,-2.5405,-2.6174,-2.6936,-2.7689,-2.8015,-2.8374,-2.8888,-2.9162,-2.9316,-2.9316,-2.9316,-2.9316,-2.9316,-2.9676,-3.0307,-3.1201,-3.2509,-3.3732,-3.4683,-3.5483,-3.5754,-3.5007,-3.5456,-3.5025,-3.3988,-3.4591,-3.4441,-3.3988,-3.4724,-3.5007,-3.5157,-3.5903,-3.6201,-3.6201,-3.6201,-3.5742,-3.4954,-3.4128,-3.4312,-3.5027,-3.5027,-3.5797,-3.6879,0.0,0.0,0.0,0.0,0.0,0.0,0.0,0.0,0.0,0.0,0.0,0.0,0.0,0.0,0.0,0.0,0.0,0.0,0.0,0.0,0.0,0.0,0.0,-1.4173,-1.4579,-1.7312,-1.8893,-1.9058,-2.0333,-2.0138,-1.8654,-1.768,-1.6943,-1.6458,-1.431,-1.3516,-1.3791,-1.258,-1.2085,-1.2085,-1.2085,-1.2085,-1.2067,0.0,0.0,0.0,0.0,0.0,0.0,0.0,-1.148,-1.1553,-1.1987,-1.2393,-1.2632,-1.2245,-1.3331,-1.4791,-1.5167,-1.5024,-1.5441,-1.832,-1.8408,-1.8497,-2.1518,-2.1212,-2.12,-2.4235,-2.4959,-2.5004,-2.468,-2.5529,-2.6056,-2.5796,-2.6437,-2.733,-2.8083,-2.8186,-2.8477,-2.923,-2.9316,-2.9316,-2.9316,-2.9316,-2.9316,-2.9316,-2.9676,-3.0052,-3.0412,-3.2211,-3.3446,-3.3836,-3.5043,-3.5456,-3.5007,-3.5456,-3.5174,-3.4441,-3.5174,-3.5174,-3.4441,-3.4857,-3.5157,-3.5605,-3.6052,-3.6201,-3.6201,-3.6201,-3.5742,-3.4954,-3.4128,-3.4312,-3.5027,-3.5027,-3.5797,-3.6824,0.0,0.0,0.0,0.0,0.0,0.0,0.0,0.0,0.0,0.0,0.0,0.0,0.0,0.0,0.0,0.0,0.0,0.0,-1.0449,-1.0626,-1.1133,0.0,0.0,0.0,0.0,0.0,-1.6779,-1.9278,-1.9373,-1.8689,-1.7229,-1.6637,-1.5724,-1.4699,-1.4031,-1.3296,-1.258,-1.2232,-1.2085,-1.2085,-1.2085,-1.1902,-1.1663,0.0,0.0,0.0,0.0,0.0,0.0,0.0,0.0,0.0,-1.1443,-1.1938,-1.2232,-1.2153,-1.2638,-1.3241,-1.3077,-1.497,-1.7075,-1.7539,-1.9565,-2.169,-2.2785,-2.2933,-2.3314,-2.511,-2.5133,-2.475,-2.5029,-2.5804,-2.6209,-2.5787,-2.6437,-2.733,-2.8083,-2.8186,-2.8477,-2.923,-2.9316,-2.9316,-2.9316,-2.9316,-2.9316,-2.9316,-2.9676,-3.0307,-3.1219,-3.2106,-3.3162,-3.4683,-3.4788,-3.489,-3.5007,-3.5157,-3.4875,-3.4441,-3.4875,-3.5007,-3.4857,-3.5306,-3.5456,-3.5605,-3.6052,-3.6201,-3.6164,-3.5614,-3.5247,-3.4954,-3.4128,-3.4312,-3.5027,-3.5027,-3.5614,-3.6289,0.0,0.0,0.0,0.0,0.0,0.0,0.0,0.0,0.0,0.0,-0.8867,-0.8809,0.0,0.0,0.0,0.0,0.0,0.0,-1.0369,-1.0253,-1.0755,-1.2049,-1.1715,-1.1883,-1.2711,-1.3774,-1.5321,-1.7455,-1.739,-1.6757,-1.5613,-1.5933,-1.5595,-1.4702,-1.4951,-1.4506,-1.3479,-1.3002,-1.2599,-1.2356,-1.2356,-1.2085,-1.1718,0.0,0.0,0.0,0.0,0.0,0.0,0.0,0.0,0.0,-1.0857,-1.1325,-1.1755,-1.2459,-1.3258,-1.4164,-1.5006,-1.6863,-1.8848,-1.9694,-2.1177,-2.2698,-2.3826,-2.421,-2.4523,-2.5492,-2.5457,-2.5353,-2.5639,-2.6382,-2.6796,-2.6347,-2.685,-2.7501,-2.81,-2.8323,-2.8648,-2.923,-2.9316,-2.9316,-2.9316,-2.9316,-2.9316,-2.9316,-2.9676,-3.029,-3.1029,-3.1844,-3.2878,-3.463,-3.4368,-3.4486,-3.5007,-3.4857,-3.4574,-3.4441,-3.5025,-3.5306,-3.5306,-3.5456,-3.5754,-3.5903,-3.6052,-3.6201,-3.6164,-3.5522,-3.5174,-3.499,-3.4495,-3.4605,-3.5045,-3.521,-3.5211,-3.5174,0.0,0.0,0.0,0.0,0.0,0.0,0.0,0.0,0.0,-0.8848,-0.8555,-0.8457,0.0,0.0,0.0,-0.9252,-0.8929,-0.9183,-1.0356,-1.0054,-1.0394,-1.1649,-1.1113,-1.1472,-1.2889,-1.3794,-1.4227,-1.4227,-1.4738,-1.4681,-1.4053,-1.534,-1.5931,-1.5809,-1.6486,-1.6321,-1.5441,-1.4231,-1.3259,-1.2614,-1.2614,-1.2356,-1.1969,-1.1969,0.0,0.0,0.0,0.0,0.0,0.0,0.0,0.0,-1.0293,-1.0588,-1.1223,-1.2842,-1.4523,-1.6403,-1.8859,-1.9608,-2.0464,-2.3289,-2.2945,-2.2577,-2.4694,-2.5069,-2.4984,-2.5457,-2.595,-2.6429,-2.6592,-2.7056,-2.7401,-2.7194,-2.7381,-2.7741,-2.8134,-2.8528,-2.8905,-2.9265,-2.9316,-2.9316,-2.9316,-2.9316,-2.9316,-2.9316,-2.9641,-3.0018,-3.0412,-3.1531,-3.2578,-3.3819,-3.3804,-3.4189,-3.5007,-3.4574,-3.429,-3.4441,-3.5174,-3.5605,-3.5605,-3.5605,-3.5903,-3.6201,-3.6201,-3.6201,-3.6182,-3.5779,-3.5394,-3.5027,-3.5027,-3.5027,-3.5082,-3.5321,-3.4652,-3.3768,0.0,0.0,0.0,0.0,0.0,0.0,0.0,0.0,-0.7861,-0.7958,-0.79,-0.788,-0.7958,-0.785,0.0,-0.7983,-0.7864,-0.8145,-0.9035,-0.8729,-0.9062,-1.0262,-1.0719,-1.119,-1.1679,-1.2286,-1.2391,-1.1974,-1.3037,-1.339,-1.316,-1.4542,-1.4924,-1.4564,-1.5548,-1.5331,-1.4194,-1.2984,-1.2177,-1.1737,-1.1737,-1.1343,-1.0698,-1.0698,-1.0349,0.0,0.0,0.0,0.0,0.0,0.0,0.0,-1.022,-1.0588,-1.1048,-1.1725,-1.3582,-1.5578,-1.612,-1.8241,-2.0633,-2.1873,-2.3169,-2.4407,-2.5181,-2.5353,-2.5474,-2.6065,-2.633,-2.6609,-2.6884,-2.7142,-2.7194,-2.7073,-2.7381,-2.7741,-2.8134,-2.8528,-2.8905,-2.9265,-2.9316,-2.9316,-2.9316,-2.9316,-2.9316,-2.9316,-2.9384,-2.9727,-3.0395,-3.1012,-3.1893,-3.3366,-3.3362,-3.3742,-3.4574,-3.4139,-3.4139,-3.4441,-3.4857,-3.5306,-3.5605,-3.5903,-3.6052,-3.6201,-3.6201,-3.6201,-3.6182,-3.5779,-3.5394,-3.5027,-3.5027,-3.5027,-3.4938,-3.3968,-3.3742,-3.3449,0.0,0.0,0.0,0.0,0.0,0.0,0.0,0.0,-0.7829,-0.7636,-0.7627,-0.7656,-0.7656,-0.7598,0.0,0.0,-0.7444,-0.7508,-0.8298,-0.8151,-0.8403,-0.9281,-1.0167,-1.0414,-1.0043,-1.081,-1.1043,-1.0698,-1.1055,-1.143,-1.1773,-1.3219,-1.3733,-1.3494,-1.5204,-1.5124,-1.3696,-1.3186,-1.2599,-1.2049,-1.2049,-1.1572,-1.0857,-1.0857,-1.0404,-0.9683,-0.9683,0.0,0.0,0.0,0.0,0.0,0.0,0.0,-1.06,-1.2027,-1.3367,-1.4818,-1.7181,-1.9081,-2.0828,-2.2395,-2.3802,-2.4915,-2.5292,-2.5515,-2.5737,-2.6347,-2.6471,-2.661,-2.7004,-2.7073,-2.7073,-2.7073,-2.7535,-2.7963,-2.8169,-2.8682,-2.9111,-2.9282,-2.9316,-2.9316,-2.9316,-2.9316,-2.9316,-2.9316,-2.9316,-2.9556,-3.0138,-3.0703,-3.158,-3.2959,-3.3258,-3.361,-3.4441,-3.3988,-3.3837,-3.4139,-3.4707,-3.5306,-3.5903,-3.6052,-3.6201,-3.6201,-3.6201,-3.6201,-3.6182,-3.5981,-3.5669,-3.5194,-3.4627,-3.428,-3.4009,-3.2725,-3.1918,-3.1146,0.0,0.0,0.0,0.0,0.0,0.0,0.0,0.0,0.0,-0.7537,-0.7539,-0.7598,-0.7598,-0.751,-0.7632,0.0,0.0,0.0,-0.774,-0.7706,-0.7937,-0.8485,-0.9361,-0.9471,-0.8667,-0.9613,-0.9947,-0.9724,-0.9381,-0.9577,-1.0422,-1.1962,-1.268,-1.2743,-1.4861,-1.4907,-1.333,-1.3474,-1.3002,-1.23,-1.23,-1.1877,-1.1168,-1.1168,-1.0545,-0.9683,-0.9683,-0.9683,-0.9683,-0.9683,0.0,0.0,0.0,0.0,-1.0118,-1.2304,-1.315,-1.4195,-1.8329,-1.987,-2.1003,-2.3616,-2.4521,-2.4915,-2.5292,-2.5669,-2.6045,-2.6405,-2.6542,-2.6696,-2.7021,-2.7073,-2.7073,-2.7073,-2.7655,-2.8117,-2.8186,-2.8785,-2.9248,-2.9299,-2.9316,-2.9316,-2.9316,-2.9316,-2.9316,-2.9316,-2.9316,-2.9487,-2.9881,-3.06,-3.1494,-3.2537,-3.3025,-3.361,-3.429,-3.3988,-3.3837,-3.3837,-3.4556,-3.5456,-3.6201,-3.6201,-3.6201,-3.6201,-3.6201,-3.6201,-3.6201,-3.5903,-3.5519,-3.5064,-3.3764,-3.3078,-3.2658,-3.1325,-3.0083,-2.8856,0.0,0.0,0.0,0.0,0.0,0.0,0.0,0.0,0.0,0.0,-0.751,-0.751,-0.751,-0.747,-0.7429,-0.7486,-0.7053,-0.6842,-0.6865,0.0,0.0,-0.763,-0.8238,-0.8505,-0.8372,-0.9249,-0.931,-0.8535,-0.8963,-0.9435,-0.986,-1.1359,-1.2163,-1.2382,-1.3418,-1.3407,-1.2616,-1.2067,-1.1333,-1.0625,-1.0625,-1.0367,-0.9921,-0.9921,-0.983,-0.9683,-0.9683,-0.9683,-0.9683,-0.9683,-0.9683,0.0,0.0,0.0,-0.983,-1.0545,-1.2045,-1.37,-1.4666,-1.7908,-2.1475,-2.3648,-2.4521,-2.4915,-2.5292,-2.5669,-2.6045,-2.6405,-2.6765,-2.7004,-2.7073,-2.7073,-2.7073,-2.7073,-2.7415,-2.7809,-2.8152,-2.858,-2.8956,-2.9265,-2.9316,-2.9316,-2.9316,-2.9316,-2.9316,-2.9316,-2.9316,-2.9487,-2.9881,-3.06,-3.1354,-3.2107,-3.2878,-3.346,-3.3837,-3.3837,-3.3837,-3.3837,-3.4556,-3.5456,-3.6201,-3.6201,-3.6201,-3.6201,-3.6201,-3.6201,-3.6052,-3.4672,-3.3845,-3.3403,-3.2086,-3.1397,-3.0839,-2.9653,-2.9012,-2.87,0.0,0.0,0.0,0.0,0.0,0.0,0.0,0.0,0.0,0.0,0.0,-0.6867,-0.6867,-0.6855,-0.6855,-0.6855,-0.6474,-0.623,-0.6133,-0.6101,-0.6293,-0.6747,-0.7015,-0.7135,-0.7135,-0.7507,-0.7641,-0.7559,-0.7825,-0.8655,0.0,-1.0606,-1.1108,-1.1609,-1.2594,-1.2471,-1.1502,-1.1492,-1.1022,-1.0312,-1.0312,-1.0754,-1.1251,-0.9888,-1.0072,-1.0919,-0.9778,-0.9373,-0.9409,-0.9649,-0.987,-1.0017,-0.9756,0.0,0.0,0.0,-1.1141,-1.2716,-1.568,-1.8737,-2.1648,-2.3939,-2.4693,-2.4915,-2.5292,-2.5497,-2.5788,-2.6371,-2.6628,-2.6816,-2.7039,-2.7073,-2.7073,-2.7073,-2.7381,-2.7741,-2.8134,-2.8528,-2.8905,-2.9265,-2.9316,-2.9316,-2.9316,-2.9316,-2.9316,-2.9316,-2.9316,-2.9384,-2.9556,-3.0498,-3.1165,-3.1491,-3.2947,-3.3655,-3.3811,-3.4035,-3.429,-3.4423,-3.5007,-3.5605,-3.6201,-3.5288,-3.5288,-3.6201,-3.5288,-3.4839,-3.4672,-3.3146,-3.2287,-3.2005,-3.0484,-2.9837,-2.9577,-2.8033,-2.7476,-2.7319,0.0,0.0,0.0,0.0,0.0,0.0,0.0,0.0,0.0,0.0,0.0,-0.6285,-0.6382,0.0,0.0,0.0,-0.6029,-0.5784,-0.5691,-0.5718,-0.5852,-0.6182,-0.6196,-0.6156,-0.6088,-0.6156,-0.6371,-0.6653,-0.6866,0.0,-0.99,-1.0047,-1.0555,-1.1357,-1.2305,-1.2003,-1.0792,-1.1274,-1.1077,-1.0453,-1.0588,-1.1297,-1.213,-1.0781,-1.1182,-1.2249,-1.0381,-0.973,-0.9736,-0.9694,-0.9885,-1.0109,-0.9815,-0.9851,0.0,0.0,0.0,-1.144,-1.6069,-1.8469,-2.0321,-2.3272,-2.4179,-2.4538,-2.5104,-2.5378,-2.5652,-2.6114,-2.6354,-2.6576,-2.6867,-2.7004,-2.7073,-2.7073,-2.7295,-2.7638,-2.8117,-2.8443,-2.8802,-2.9265,-2.9316,-2.9316,-2.9316,-2.9316,-2.9316,-2.9316,-2.9316,-2.9316,-2.9316,-3.0206,-3.0823,-3.1011,-3.2481,-3.3517,-3.3726,-3.4241,-3.4636,-3.5157,-3.5456,-3.5605,-3.5587,-3.4371,-3.4221,-3.4822,-3.3751,-3.3146,-3.2994,-3.13,-3.0685,-3.0531,-2.8856,-2.8232,-2.809,-2.6847,-2.6386,-2.6386,0.0,0.0,0.0,0.0,0.0,0.0,0.0,0.0,0.0,0.0,0.0,-0.5968,-0.6275,-0.6307,-0.6307,-0.6307,-0.5998,-0.5784,-0.5691,-0.5718,-0.5852,-0.6182,-0.6196,0.0,-0.5745,-0.6048,-0.6075,-0.5785,0.0,0.0,-0.9243,-0.986,-1.0875,-1.2271,-1.2661,-1.2114,-1.1022,-1.1323,-1.1269,-1.0922,-1.1331,-1.1349,-1.1256,-1.2764,-1.3413,-1.3374,-1.1968,-1.1446,-1.1301,-1.0091,-0.9701,-0.9701,-0.9683,-0.9465,-0.9152,0.0,0.0,0.0,-1.3396,-1.4942,-1.6599,-2.0754,-2.2615,-2.3721,-2.4607,-2.5395,-2.5823,-2.5497,-2.5994,-2.6491,-2.6508,-2.6816,-2.7073,-2.7073,-2.709,-2.7364,-2.8083,-2.822,-2.8494,-2.923,-2.9316,-2.9316,-2.9316,-2.9316,-2.9316,-2.9316,-2.9316,-2.9316,-2.9316,-2.9727,-3.0275,-3.0994,-3.1422,-3.229,-3.3325,-3.3986,-3.48,-3.5605,-3.5605,-3.4989,-3.3919,-3.3919,-3.2994,-3.1606,-3.1453,-3.1453,-3.13,-2.9619,-2.9012,-2.8856,-2.7162,-2.6544,-2.6544,-2.6386,-2.6386,-2.6386,0.0,0.0,0.0,0.0,0.0,0.0,0.0,0.0,0.0,0.0,0.0,0.0,0.0,-0.5168,-0.5082,-0.5082,-0.5124,-0.5239,-0.5443,-0.5438,-0.5478,-0.5618,-0.5631,-0.5578,-0.5438,-0.5578,-0.5638,-0.5718,-0.6025,-0.7041,-0.8697,-0.9285,-1.0033,-1.0954,-1.197,-1.1951,-1.1108,-1.1387,-1.0807,-0.9872,-1.1112,-1.2075,-1.2805,-1.3074,-1.397,-1.4957,-1.3379,0.0,-1.1559,-1.1397,-1.0911,-1.0385,-0.9888,-0.9612,-0.9391,-0.8857,-0.9078,-0.9972,-1.2271,-1.3892,0.0,-1.844,-2.0737,-2.246,-2.3358,-2.4425,-2.5309,-2.5669,-2.5943,-2.6199,-2.6439,-2.6816,-2.7073,-2.7073,-2.7073,-2.7244,-2.7741,-2.8032,-2.8391,-2.8905,-2.9179,-2.9316,-2.9316,-2.9316,-2.9316,-2.9316,-2.9316,-2.9316,-2.9316,-2.9898,-3.0496,-3.1045,-3.1895,-3.2768,-3.3744,-3.3395,-3.337,-3.3344,-3.2588,-3.211,-3.189,-3.0814,-3.0176,-2.9774,-2.8544,-2.87,-2.9619,-2.7933,-2.7319,-2.7319,-2.6702,-2.6386,-2.6386,-2.6386,-2.6386,-2.6413,0.0,0.0,0.0,0.0,0.0,0.0,0.0,0.0,0.0,-0.504,0.0,0.0,0.0,0.0,-0.4663,-0.4528,-0.4701,-0.4847,-0.4983,-0.5077,-0.513,-0.513,-0.5224,-0.5309,-0.5309,-0.5184,-0.5277,-0.5571,-0.5571,-0.6373,-0.7936,-0.8524,-0.9218,-1.0026,-1.0902,-1.1316,0.0,0.0,0.0,-0.9891,-1.1659,-1.2573,-1.3006,-1.4186,-1.5156,-1.5749,-1.4684,0.0,-1.2836,-1.2711,-1.2349,-1.1775,-1.0539,-0.9653,-0.8931,-0.8252,-0.8673,-0.9533,-1.0669,-1.2196,-1.4004,-1.6563,-1.8451,-2.0288,-2.2507,-2.3635,-2.4384,-2.5515,-2.584,-2.6011,-2.6251,-2.6525,-2.6782,-2.7039,-2.7073,-2.7193,-2.7552,-2.7946,-2.834,-2.8734,-2.9093,-2.9316,-2.9316,-2.9316,-2.9316,-2.943,-2.943,-2.9561,-2.9709,-3.0299,-3.0632,-3.06,-3.1034,-3.1676,-3.2356,-3.1885,-3.1626,-3.1465,-3.0711,-3.0229,-2.9864,-2.8806,-2.8081,-2.7933,-2.6697,-2.6908,-2.7933,-2.6847,-2.6386,-2.6386,-2.6386,-2.6386,-2.6386,-2.6386,-2.6386,-2.6426,0.0,0.0,0.0,0.0,0.0,0.0,0.0,0.0,-0.4207,-0.4728,0.0,0.0,0.0,0.0,0.0,-0.486,-0.4821,-0.4701,-0.4436,-0.4648,-0.4794,-0.4794,-0.5104,-0.5295,-0.5295,-0.4953,-0.4953,-0.5295,-0.5295,-0.5852,-0.6945,-0.7556,-0.851,-0.9637,-0.9556,-1.0302,-1.1613,0.0,-1.1099,-1.1028,0.0,-1.2753,-1.1619,-1.6221,-1.7044,-1.5778,-1.6019,-1.5822,-1.5287,-1.4126,-1.3859,-1.3693,-1.1642,-0.9475,-0.7712,-0.7324,-0.7812,-0.8507,0.0,0.0,0.0,-1.4926,-1.5708,-1.7005,-2.2048,0.0,-2.3237,-2.4992,-2.5634,-2.596,-2.5943,-2.596,-2.6217,-2.6936,-2.7056,-2.7176,-2.7535,-2.7929,-2.8323,-2.8717,-2.9076,-2.9299,-2.9316,-2.9316,-2.943,-2.9805,-2.9822,-2.9952,-3.0378,-3.0751,-3.0628,-2.9831,-2.9059,-2.8831,-2.932,-2.9597,-2.9901,-3.0235,-3.0219,-2.9344,-2.7876,-2.7876,-2.7169,-2.5945,-2.5959,-2.6119,-2.6373,-2.6386,-2.6386,-2.6386,-2.6386,-2.6386,-2.6386,-2.6386,-2.6386,-2.6268,0.0,0.0,0.0,0.0,0.0,-0.4195,-0.4275,-0.4289,-0.4422,0.0,0.0,0.0,-0.4927,-0.5157,-0.5331,-0.5451,-0.5277,-0.5037,-0.4701,-0.4568,-0.4529,-0.4529,-0.4768,-0.4927,-0.4927,-0.4847,-0.4847,-0.4927,-0.4927,-0.5237,-0.5785,-0.6587,-0.7241,-0.7776,-0.8418,-0.893,-0.9379,-1.0079,0.0,-1.0541,-1.3025,-1.3696,0.0,-1.68,-1.7739,-1.7401,-1.7735,-1.7279,-1.6566,-1.6009,-1.482,-1.3055,-1.0468,-0.8593,-0.7358,-0.7233,-0.7812,-0.8434,-0.8072,0.0,0.0,0.0,0.0,0.0,-1.6914,0.0,-2.2149,-2.2961,-2.4855,-2.6251,-2.5994,-2.6388,-2.673,-2.6662,-2.6645,-2.6782,-2.7158,-2.7535,-2.7912,-2.8306,-2.87,-2.9025,-2.9282,-2.9561,-2.9691,-2.9805,-3.0083,-3.023,-3.0378,-3.0183,-3.0172,-3.0227,-2.9456,-2.8979,-2.8816,-2.8076,-2.77,-2.7774,-2.6762,-2.6164,-2.5937,-2.5937,-2.5799,-2.5651,-2.5865,-2.5999,-2.6092,-2.6306,-2.6386,-2.6386,-2.6386,-2.6386,-2.6386,-2.6386,-2.607,-2.5461,0.0,0.0,-0.418,-0.418,-0.4489,-0.481,-0.493,-0.505,-0.5197,0.0,0.0,0.0,-0.5384,-0.5758,-0.5932,-0.5731,-0.5451,-0.5104,-0.4648,-0.4502,-0.4409,-0.4409,-0.4648,-0.4914,-0.5166,-0.4927,-0.486,-0.5023,-0.486,-0.49,-0.5104,-0.5865,-0.6319,-0.6506,-0.7161,-0.7589,-0.7863,-0.8485,0.0,0.0,-1.2852,0.0,0.0,-1.6899,-1.774,-1.723,-1.8252,-1.8174,-1.7468,-1.7428,-1.5613,-1.2975,-1.1208,-0.9347,-0.7805,-0.7545,-0.8297,-0.9133,-0.8509,-0.9133,-1.005,-1.0606,0.0,0.0,-1.5579,-1.7859,-1.9895,-2.2262,-2.3648,-2.4558,-2.4994,-2.5194,-2.5477,-2.5592,-2.5999,-2.6388,-2.6782,-2.7141,-2.7518,-2.7912,-2.8432,-2.8887,-2.9094,-2.9351,-2.9404,-2.9155,-2.9319,-2.9395,-2.9461,-2.8663,-2.8364,-2.8932,-2.7795,-2.7215,-2.6939,-2.6225,-2.5932,-2.5932,-2.5065,-2.473,-2.489,-2.489,-2.505,-2.5344,-2.5638,-2.5838,-2.5972,-2.6266,-2.6386,-2.6386,-2.607,-2.5911,-2.574,-2.5422,-2.4869,-2.4527,0.0,0.0,-0.4476,-0.4542,-0.501,-0.5504,-0.5852,-0.6115,-0.6277,0.0,-0.6384,-0.6424,-0.6532,-0.6867,-0.6814,-0.6025,-0.5598,-0.5161,-0.4542,-0.4409,-0.4369,-0.4409,-0.4648,-0.5046,-0.5598,-0.51,-0.4953,-0.5215,-0.4887,-0.4754,-0.4768,-0.5325,-0.5638,-0.5678,-0.6008,-0.64,-0.6839,-0.7054,-0.7816,-0.9192,-1.2505,-1.2986,0.0,-1.6678,-1.7352,-1.6221,-1.8124,-1.854,-1.8038,-1.8263,-1.6143,-1.3383,-1.2879,-1.1093,-0.9076,-0.8115,-0.9098,-1.0324,-0.9385,-0.972,-1.057,-1.1601,-1.0846,0.0,-1.5756,-1.6333,-1.7179,-2.1506,-2.188,-2.1752,-2.3083,-2.3039,-2.2958,-2.3809,-2.4796,-2.5724,-2.6456,-2.685,-2.721,-2.7569,-2.8054,-2.8403,-2.8455,-2.8724,-2.8467,-2.7827,-2.7927,-2.8032,-2.8138,-2.6828,-2.631,-2.6925,-2.5359,-2.4636,-2.4636,-2.4636,-2.4636,-2.4636,-2.4636,-2.4636,-2.4636,-2.4636,-2.4783,-2.505,-2.5371,-2.5665,-2.5932,-2.6253,-2.6386,-2.6386,-2.5422,-2.5104,-2.4945,-2.4136,-2.3647,-2.338,-0.4195,-0.4489,-0.4874,-0.5371,-0.5779,-0.6277,-0.7043,-0.6774,-0.676,-0.7495,-0.7589,-0.7856,-0.8564,-0.8061,-0.7636,-0.7463,-0.6573,-0.5766,-0.5144,-0.4476,-0.418,-0.4395,-0.4648,-0.486,-0.498,-0.513,-0.4997,-0.4569,-0.4516,-0.4489,-0.4502,-0.4821,-0.513,-0.5384,-0.5665,-0.5865,-0.6052,-0.7198,0.0,-0.9673,-1.1543,-1.2812,-1.3828,-1.6427,-1.7544,-1.7644,-1.8293,-1.8666,-1.8599,-1.7934,-1.6487,-1.4661,-1.2694,-1.2036,-1.1502,-0.8777,-0.9787,-1.1424,-0.9792,-0.9807,-1.0293,-1.0178,-1.0441,0.0,-1.0754,-1.3177,-1.5463,0.0,-1.7853,-1.9575,-1.9911,-2.0394,-2.0566,-2.0172,-2.1296,-2.3431,-2.6525,-2.7021,-2.721,-2.7569,-2.7052,-2.6701,-2.7123,-2.689,-2.6567,-2.6215,-2.6839,-2.7627,-2.8138,-2.6914,-2.6386,-2.6925,-2.5359,-2.4636,-2.4636,-2.4636,-2.4636,-2.4636,-2.4636,-2.4636,-2.4636,-2.4636,-2.4676,-2.4756,-2.5277,-2.5545,-2.5638,-2.6172,-2.6386,-2.6386,-2.5422,-2.5104,-2.4945,-2.4136,-2.317,-2.2507,-0.4409,-0.4997,-0.5585,-0.5878,-0.6546,-0.7188,-0.7629,-0.7695,-0.7802,-0.811,-0.8537,-0.8858,-0.9005,-0.8712,-0.83,-0.7749,-0.7014,-0.6279,-0.5544,-0.4973,-0.4583,-0.4409,-0.4648,-0.494,-0.5232,-0.5246,-0.513,-0.4836,-0.4661,-0.4436,-0.4195,-0.4489,-0.5331,-0.656,-0.5644,-0.6056,-0.741,-0.7161,-0.7722,-0.9045,-1.169,0.0,-1.4963,-1.7034,-1.7822,-1.7889,-1.849,-1.8836,-1.878,-1.8316,-1.6843,-1.495,-1.4075,-1.3383,-1.2403,-1.0263,-1.1039,-1.2161,-1.0156,-0.9981,-1.0314,-1.0035,-0.9911,0.0,0.0,-1.1264,-1.2725,-1.4421,-1.5115,-1.5842,-1.7171,-1.7597,-1.7863,-1.7962,-1.9605,-2.1466,-2.334,-2.4416,-2.5189,-2.5525,-2.545,-2.5405,-2.558,-2.5613,-2.5405,-2.4948,-2.4745,-2.5037,-2.5696,-2.5342,-2.524,-2.5548,-2.4997,-2.4636,-2.4636,-2.4193,-2.4044,-2.4044,-2.36,-2.3438,-2.3438,-2.3438,-2.3438,-2.3464,-2.3896,-2.415,-2.4303,-2.4723,-2.4977,-2.5104,-2.4614,-2.4455,-2.4295,-2.3027,-2.1986,-2.139,-0.4516,-0.5344,-0.6129,-0.6182,-0.7041,-0.7756,-0.7862,-0.8337,-0.8566,-0.8397,-0.9296,-0.9721,-0.9184,-0.9398,-0.9299,-0.844,-0.7936,-0.7308,-0.6373,-0.5932,-0.5491,-0.5093,-0.4916,-0.5203,-0.6013,-0.5497,-0.5179,-0.5104,-0.4752,-0.4369,-0.4005,-0.4262,-0.5451,-0.7238,-0.6029,-0.664,0.0,0.0,0.0,-0.9004,0.0,-1.3988,-1.487,-1.7061,-1.7622,-1.7382,-1.8397,-1.8798,-1.8811,-1.8526,-1.7052,-1.5193,-1.5153,-1.4448,-1.3327,-1.1455,-1.224,-1.3097,-1.0586,-1.0347,-1.0635,-1.032,-0.9754,-0.9512,0.0,0.0,0.0,0.0,0.0,0.0,0.0,-1.4505,-1.4656,-1.5586,-1.7373,0.0,0.0,-2.0296,0.0,-2.2757,-2.3687,-2.4193,-2.3991,-2.3839,-2.3792,-2.3695,-2.2621,-2.2325,-2.3273,-2.3661,-2.3968,-2.4195,-2.4489,-2.4636,-2.4636,-2.3896,-2.3587,-2.3438,-2.2645,-2.2347,-2.2247,-2.2198,-2.2198,-2.2271,-2.2536,-2.2802,-2.3056,-2.3321,-2.3587,-2.3816,-2.3656,-2.3508,-2.3348,-2.1911,-2.0974,-2.0776,-0.4714,-0.5285,-0.5852,-0.6142,-0.6693,-0.7264,-0.7795,-0.7941,-0.8047,-0.8215,-0.9762,-1.0719,-1.0288,-1.0754,-1.1236,-1.1356,-1.0635,-0.9673,-0.8537,-0.759,-0.7218,-0.7498,-0.5901,-0.5677,-0.7194,-0.5889,-0.495,-0.4408,-0.4183,-0.4059,-0.4005,-0.4262,-0.4676,-0.5232,-0.7134,-0.7339,0.0,0.0,-1.0199,0.0,-1.2789,-1.2705,0.0,-1.4763,-1.5858,-1.6219,-1.7635,-1.8317,-1.8424,-1.7411,-1.7052,-1.6401,-1.3801,-1.4655,-1.5846,-1.1286,0.0,0.0,0.0,-1.1209,-1.1623,-1.0207,-1.041,-1.0467,-0.8458,0.0,-0.9268,-0.8914,0.0,-0.947,0.0,0.0,0.0,-1.0946,-1.2259,0.0,-1.3917,-1.4611,-1.6415,-2.0171,-2.1942,-2.2535,-2.1783,-2.0402,-2.0414,-2.2471,-2.1088,-2.1042,-2.3207,-2.3848,-2.4168,-2.4209,-2.4489,-2.4636,-2.4636,-2.4488,-2.4044,-2.3438,-2.3184,-2.2755,-2.2247,-2.1993,-2.2017,-2.2271,-2.2536,-2.2802,-2.3056,-2.3321,-2.3587,-2.3656,-2.3038,-2.2717,-2.2567,-2.1599,-2.1293,-2.119,-0.4435,-0.5166,-0.5758,-0.5878,-0.6454,-0.7052,-0.757,-0.7974,-0.8355,-0.8669,-0.9325,-0.9884,-1.0353,-1.0245,-1.0501,0.0,-1.0903,-1.0005,-0.8961,-0.8383,-0.7663,-0.6723,-0.5888,-0.5738,-0.628,-0.5299,-0.4714,-0.4594,-0.4081,-0.3781,-0.3714,-0.4021,-0.5037,-0.664,-0.7669,-0.8776,-0.9897,0.0,-1.0666,0.0,0.0,-1.214,0.0,-1.5792,-1.7154,-1.7194,-1.7822,-1.8237,-1.8464,-1.8141,-1.7173,-1.6137,-1.64,-1.5738,-1.4592,-1.3253,0.0,0.0,-1.1057,-1.1302,-1.1822,-0.9896,-1.015,-1.0308,-0.8115,-0.763,-0.7716,-0.7946,0.0,0.0,0.0,0.0,0.0,0.0,-1.0298,-1.1162,0.0,0.0,-1.4183,0.0,0.0,0.0,-1.8988,-1.9761,-2.0602,-2.1434,-2.1542,-2.1806,-2.2069,-2.2652,-2.2898,-2.262,-2.3062,-2.3141,-2.3141,-2.2682,-2.2384,-2.1936,-2.1531,-2.1095,-2.0898,-2.0785,-2.0796,-2.0898,-2.1012,-2.1284,-2.1658,-2.176,-2.2032,-2.2395,-2.1922,-2.2084,-2.2567,-2.1599,-2.1221,-2.1053,-0.3777,-0.4636,-0.5267,-0.5234,-0.5896,-0.6591,-0.714,-0.7614,-0.8063,-0.8402,-0.8645,-0.9051,-0.9902,-1.0102,-1.0667,0.0,-1.1788,-1.127,-1.0325,-0.9623,-0.886,-0.7986,-0.663,-0.619,-0.6843,-0.5446,-0.4671,-0.466,-0.4069,-0.3771,-0.3745,-0.3995,-0.5251,-0.7317,-0.7986,-0.965,-1.1888,0.0,-1.1814,-1.238,-1.2923,-1.33,-1.3917,-1.6807,-1.7996,-1.8143,-1.7983,-1.817,-1.8477,-1.8247,-1.7213,-1.6156,-1.7741,-1.6443,-1.4501,0.0,0.0,0.0,-1.1377,-1.1642,-1.1987,-0.9675,-0.9577,-0.9577,-0.773,-0.6956,-0.6842,-0.7534,-0.7233,0.0,0.0,0.0,-0.7644,-0.8008,0.0,-0.9326,0.0,0.0,0.0,0.0,0.0,0.0,0.0,-1.8415,-1.9549,-1.9865,-2.0863,-2.134,-2.1057,-2.1509,-2.1579,-2.1209,-2.1812,-2.2102,-2.2029,-2.1566,-2.1187,-2.1026,-2.0369,-2.008,-1.9844,-1.9779,-1.979,-1.9844,-1.9844,-2.0081,-2.0468,-2.0533,-2.0802,-2.1179,-2.1254,-2.1761,-2.2245,-2.1599,-2.1125,-2.1206,-0.2668,-0.3472,-0.4116,-0.4057,-0.4837,-0.5651,-0.6351,-0.6433,-0.6535,-0.6728,-0.7882,-0.8772,-0.8956,-1.1044,-1.2794,-1.3505,-1.454,-1.475,-1.3492,-1.1926,-1.1771,-1.3408,-0.8708,-0.7425,-1.0263,-0.6969,-0.488,-0.4329,-0.409,-0.4115,-0.4369,-0.4382,-0.489,-0.5856,-0.8267,-0.9615,-1.0151,-1.2403,-1.4446,-1.6313,-1.6168,-1.7055,-1.8143,-1.6834,-1.7235,-1.8397,-1.7809,-1.7983,-1.8317,-1.6962,-1.6909,-1.7237,-1.5784,-1.6347,-1.6988,-1.4841,-1.547,-1.6147,-1.2808,-1.2517,-1.2453,-0.9566,-0.8757,-0.8296,-0.6867,-0.6896,-0.7191,-0.6899,-0.7598,-0.8075,-0.7424,-0.7224,-0.7168,-0.7405,-0.7141,0.0,0.0,0.0,0.0,0.0,0.0,0.0,0.0,-1.5193,-1.5996,0.0,-1.7633,-1.8512,-2.0306,-2.0646,-2.0792,-2.0665,-2.1438,-2.1728,-2.1474,-2.1993,-2.1798,-2.1026,-2.0797,-2.0363,-1.9844,-1.9607,-1.9628,-1.9844,-1.9844,-1.9994,-2.0242,-2.0468,-2.0705,-2.0942,-2.1179,-2.1276,-2.1276,-2.1276,-2.1446,-2.1556,-0.2657,-0.2945,-0.3249,-0.3509,-0.405,-0.4794,-0.5786,-0.6035,-0.6739,-0.8323,-0.868,-0.9531,-1.1688,-1.2158,-1.3052,-1.4695,-1.4707,-1.4388,-1.3794,-1.1954,-1.1279,-1.2222,-0.8445,-0.7251,-0.9149,-0.6786,-0.5303,-0.4834,-0.4633,-0.4568,-0.4661,-0.4661,-0.5157,-0.6119,-0.8371,-1.0282,0.0,0.0,0.0,0.0,0.0,-1.7223,-1.7996,-1.7782,-1.7929,-1.817,-1.7956,-1.8397,-1.8985,-1.826,-1.7616,-1.7054,-1.7232,-1.6206,-1.4883,-1.5149,-1.4999,-1.46,-1.3614,-1.4063,-1.4172,-1.1278,-1.0707,-1.0282,-0.7792,-0.7389,-0.7438,-0.6902,-0.7449,-0.789,-0.7352,-0.6936,-0.6783,-0.7019,-0.6585,-0.6228,0.0,0.0,0.0,0.0,0.0,0.0,0.0,0.0,0.0,0.0,-1.8273,0.0,-1.9306,-1.9562,-1.9508,-1.9262,-1.9994,-2.0343,-2.0106,-2.0579,-2.0597,-2.0296,-2.0208,-2.0069,-1.9844,-1.9768,-1.9768,-1.9844,-1.9844,-1.9984,-2.0231,-2.0468,-2.0694,-2.0931,-2.1179,-2.1276,-2.1276,-2.1276,-2.1545,-2.1778,-0.2683,-0.2575,-0.2638,-0.3084,-0.3575,-0.4235,-0.5253,-0.6023,-0.7111,-0.8964,-0.9384,-1.0384,-1.2626,-1.2966,-1.3474,-1.4759,-1.5048,-1.472,-1.3741,-1.27,-1.2209,-1.227,-0.985,-0.9126,-1.0483,-0.8126,-0.6681,-0.6271,-0.5563,-0.524,-0.5304,-0.509,-0.5485,-0.6507,-0.7931,-1.012,-1.2869,-1.4072,-1.5622,0.0,0.0,-1.8276,-1.855,-1.8945,-1.8534,-1.7822,-1.8141,-1.8731,-1.9199,-1.8761,-1.821,-1.7654,-1.8399,-1.6979,-1.5176,-1.6184,-1.5681,-1.4769,-1.4299,-1.4801,-1.4931,-1.2464,-1.2005,-1.1546,-0.8884,-0.8458,-0.847,-0.7979,-0.8075,-0.8357,-0.9017,-0.7887,-0.7046,-0.7609,-0.6706,-0.5726,0.0,-0.5186,0.0,0.0,0.0,0.0,0.0,0.0,0.0,0.0,0.0,0.0,0.0,-1.8496,-1.8424,-1.8175,-1.8713,-1.9036,-1.9122,-1.9435,-1.9639,-1.9725,-1.9811,-1.9844,-1.9844,-1.9844,-1.9844,-1.9844,-1.9844,-1.9941,-2.0102,-2.0339,-2.0576,-2.0802,-2.105,-2.12,-2.1276,-2.1276,-2.1599,-2.2223,-0.2732,-0.2411,-0.2323,-0.287,-0.3368,-0.3939,-0.4694,-0.6239,-0.7685,-0.8596,-1.0013,-1.1265,-1.2151,-1.3597,-1.4409,-1.4235,-1.5771,-1.5848,-1.357,-1.4244,-1.4475,-1.3919,-1.276,-1.2751,-1.4041,-1.0797,-0.8829,-0.844,-0.6754,-0.6037,-0.6182,-0.5618,-0.5896,-0.6859,-0.695,-0.923,-1.2949,-1.365,-1.6162,-1.9813,-2.0125,-2.0019,-1.9794,-2.0172,-1.9125,-1.7582,-1.8651,-1.8985,-1.8937,-1.8609,-1.8644,-1.8911,-1.9044,-1.858,-1.7769,-1.7769,-1.7396,-1.6533,-1.5044,-1.4933,-1.4855,-1.3193,-1.2696,-1.2155,-1.0134,-1.0048,-1.0393,-1.0083,-0.9436,-0.9717,-1.2143,-0.9874,-0.7996,-0.8884,-0.7291,-0.5639,0.0,0.0,0.0,0.0,0.0,0.0,0.0,0.0,0.0,0.0,0.0,0.0,0.0,-1.7507,-1.7626,-1.7712,-1.7959,-1.8196,-1.8412,-1.8896,-1.9252,-1.9488,-1.9714,-1.9833,-1.9844,-1.9844,-1.9844,-1.9844,-1.9844,-1.9844,-1.9865,-2.0113,-2.0339,-2.0554,-2.0791,-2.1039,-2.1265,-2.1276,-2.1922,-2.2567,-0.307,-0.3111,-0.3265,-0.3671,-0.3698,-0.3939,-0.4694,-0.6459,-0.8403,-1.0373,-1.2117,-1.4031,-1.613,-1.6636,-1.6952,-1.7272,-1.775,-1.7723,-1.6921,-1.5856,-1.5538,-1.6246,-1.3732,-1.2917,-1.4145,-1.1276,-0.9499,-0.884,-0.7339,-0.6428,-0.6196,-0.6035,-0.5989,-0.6043,-0.6974,-0.8902,-1.1616,-1.2844,-1.5599,-1.9141,-1.9428,-1.9442,-1.9358,-2.0261,-1.9761,-1.8776,-1.991,-2.0447,-2.0563,-2.0174,-1.9824,-1.9309,-1.868,-1.797,-1.7422,-1.7188,-1.6697,-1.6277,-1.6515,-1.6194,-1.5736,-1.514,-1.4383,-1.3602,-1.2685,-1.2457,-1.2385,-1.2324,-1.23,-1.2011,-1.1105,-0.9898,-0.8727,-0.781,-0.6744,0.0,0.0,0.0,0.0,0.0,0.0,0.0,0.0,0.0,0.0,0.0,0.0,0.0,0.0,0.0,-1.6393,-1.7669,-1.7959,-1.8121,-1.8186,-1.8649,-1.9004,-1.9241,-1.9478,-1.9682,-1.9844,-1.9844,-1.9844,-1.9844,-1.9844,-1.9844,-1.9865,-2.0113,-2.0145,-2.007,-2.049,-2.0158,-1.9725,-2.1523,-2.175,-2.1233,-0.3408,-0.3777,-0.4077,-0.4118,-0.4951,-0.5767,-0.618,-0.7081,-0.8614,-1.1131,-1.2425,-1.4091,-1.647,-1.7,-1.7531,-1.8408,-1.878,-1.8443,-1.7252,-1.7128,-1.6994,-1.6626,-1.5657,-1.5284,-1.5708,-1.3636,-1.1666,-0.9942,-0.8564,-0.7157,-0.5811,-0.5615,-0.5405,-0.5297,-0.6133,-0.7937,-1.0504,-1.3274,-1.5765,-1.8007,-1.8564,-1.8918,0.0,-1.9972,-1.9987,-1.9851,-2.0684,-2.0781,-2.0481,-1.9937,-1.9534,-1.9162,-1.875,-1.8167,-1.7451,-1.7575,-1.7156,-1.663,-1.7145,-1.6975,-1.6635,-1.6553,-1.6092,-1.5341,-1.44,-1.4099,-1.4026,-1.4135,-1.3628,-1.329,-1.3725,-1.1564,-0.9077,-0.7182,0.0,0.0,0.0,0.0,0.0,0.0,0.0,0.0,0.0,0.0,0.0,0.0,0.0,0.0,0.0,0.0,-1.5915,-1.7196,-1.755,-1.7884,-1.8089,-1.8347,-1.8649,-1.8993,-1.923,-1.9467,-1.9704,-1.9801,-1.9844,-1.9844,-1.9844,-1.9844,-1.9854,-1.9887,-1.9887,-1.9887,-1.9636,-1.9594,-1.9482,-2.0888,-2.0579,-1.944,-0.377,-0.4345,-0.4719,-0.4426,-0.6436,-0.8121,-0.8302,-0.823,-0.8974,-1.1218,-1.202,-1.3041,-1.5016,-1.6214,-1.7318,-1.8393,-1.9136,-1.8669,-1.6613,-1.8397,-1.8614,-1.6481,-1.7764,-1.8234,-1.7579,-1.5939,-1.3807,-1.1132,-0.9554,-0.7524,-0.5157,-0.4787,-0.4619,-0.4583,-0.5032,-0.6945,0.0,-1.4025,-1.6183,-1.6911,-1.7663,-1.8352,-1.9018,-1.9299,-1.9704,-2.025,-2.0498,-2.0276,-1.9775,-1.9025,-1.8848,-1.877,-1.9,-1.8534,-1.7978,-1.8482,-1.8042,-1.7348,-1.7483,-1.7449,-1.7368,-1.7514,-1.7576,-1.7162,-1.5791,-1.5499,-1.5547,-1.5813,-1.4545,-1.4304,-1.7322,-1.3676,-0.9452,-0.7158,0.0,0.0,0.0,0.0,0.0,0.0,0.0,0.0,0.0,0.0,0.0,0.0,0.0,0.0,0.0,0.0,0.0,-1.675,-1.7196,-1.7615,-1.7992,-1.8067,-1.8315,-1.8735,-1.8982,-1.9241,-1.951,-1.9704,-1.9822,-1.9844,-1.9844,-1.9844,-1.9833,-1.9628,-1.9661,-1.9865,-1.8835,-1.8882,-1.9542,-1.9406,-1.8558,-1.7412,-0.4183,-0.4516,0.0,-0.4922,-0.6454,-0.7997,-0.9247,-1.0462,-1.1294,-1.1241,-1.2614,-1.3975,-1.5207,-1.6643,-1.7764,-1.8486,-1.9765,-2.0316,-1.9934,-2.0061,-1.9752,-1.8752,-1.8534,-1.8126,-1.7579,-1.421,-1.1993,-1.0791,-0.7952,-0.5809,-0.4387,-0.4687,-0.4482,-0.3831,-0.4971,-0.7576,-1.1284,-1.3416,-1.5456,-1.7366,-1.7742,-1.7689,-1.7544,-1.7564,-1.7943,-1.8442,-1.8221,-1.9103,-2.0472,-2.0258,-2.003,-1.9789,-1.9316,-1.9048,-1.8884,-1.8628,-1.8186,-1.7736,-1.8238,-1.8072,-1.7772,-1.8105,-1.8105,-1.8009,-1.7817,-1.7551,-1.7467,-1.7744,-1.7358,-1.6706,-1.5825,-1.3423,-1.1009,-0.9208,0.0,0.0,0.0,0.0,0.0,0.0,0.0,0.0,0.0,0.0,0.0,0.0,0.0,0.0,0.0,0.0,0.0,0.0,-1.7389,-1.7604,-1.7507,-1.7895,-1.8229,-1.8498,-1.8735,-1.9079,-1.9499,-1.9542,-1.9661,-1.9844,-1.9844,-1.9844,-1.9844,-1.9801,-2.0113,-2.0296,-1.9411,-1.8345,-1.7464,-1.6538,-1.5209,-1.4311,-0.493,0.0,0.0,0.0,-0.8048,-0.9543,-0.9257,-1.1337,-1.2592,-1.1568,-1.1461,-1.2093,-1.3685,-1.473,-1.6121,-1.8133,-1.8998,-1.9731,-2.0486,-2.0385,-2.013,-1.9836,-1.9417,-1.8373,-1.6832,-1.5028,-1.2496,-0.9278,-0.7664,-0.5864,-0.3799,-0.3796,-0.361,-0.3351,-0.5673,-0.8017,-1.0336,-1.2991,-1.4831,-1.6089,-1.6851,-1.6701,-1.5897,-1.6255,-1.6105,-1.5774,-1.5644,-1.6162,-1.7345,-1.9188,-1.9711,-1.9456,-1.92,-1.9072,-1.9072,-1.8956,-1.8605,-1.851,-1.8764,-1.856,-1.8368,-1.8493,-1.8396,-1.83,-1.83,-1.8191,-1.8131,-1.8263,-1.7949,-1.7077,-1.5231,-1.3609,-1.2252,-1.1335,-1.0683,0.0,0.0,0.0,0.0,0.0,0.0,0.0,0.0,0.0,0.0,0.0,0.0,0.0,0.0,0.0,0.0,0.0,0.0,0.0,-1.7817,-1.8053,-1.7919,-1.757,-1.7399,-1.7683,-1.8117,-1.8239,-1.887,-1.9844,-1.9844,-1.9844,-1.9833,-1.9103,-1.9051,-1.95,-1.7237,-1.6294,-1.5855,-1.5327,-1.4125,-1.3061,-0.5815,-0.5929,-0.6213,-0.7033,-0.9577,-1.0858,-0.9224,-1.1473,-1.2892,-1.1548,-1.0367,-1.0314,-1.204,-1.2949,-1.4456,-1.6996,-1.7436,-1.8135,-1.9421,-1.9448,-1.9448,-1.9564,-1.9212,-1.7991,-1.5839,-1.5332,-1.2756,-0.8008,-0.7465,-0.5932,-0.34,-0.3042,-0.2991,-0.339,-0.6049,-0.791,-0.9275,-1.2005,-1.3445,-1.4136,-1.5274,-1.4919,-1.3806,-1.437,-1.4051,-1.3308,-1.3308,-1.3439,-1.4223,-1.6969,-1.8022,-1.8022,-1.8022,-1.8022,-1.8022,-1.8022,-1.8291,-1.8547,-1.8676,-1.8661,-1.877,-1.877,-1.8613,-1.8321,-1.8013,-1.799,-1.7843,-1.748,-1.7127,-1.646,-1.5153,-1.4445,-1.3896,-1.3532,-1.2023,0.0,0.0,0.0,0.0,0.0,0.0,0.0,0.0,0.0,0.0,0.0,0.0,0.0,0.0,0.0,0.0,0.0,0.0,-1.7784,-1.7795,-1.8134,-1.7684,-1.6564,-1.6301,-1.6349,-1.6415,-1.6619,-1.7433,-1.8854,-1.8905,-1.9077,-1.9067,-1.798,-1.7911,-1.82,-1.5647,-1.483,-1.4944,-1.4944,-1.3876,-1.2535,-0.6794,-0.696,-0.7253,-0.7813,-0.9452,-1.0426,-0.9457,-1.0789,-1.1587,-1.0837,-1.0592,-1.0757,-1.1424,-1.2927,-1.4003,-1.4275,-1.5514,-1.6351,-1.6833,-1.6609,-1.6609,-1.7313,-1.6846,-1.5885,-1.4622,-1.2827,-1.081,-0.839,-0.6304,-0.4695,-0.3507,-0.3191,-0.3552,-0.4449,-0.4958,-0.6734,-0.9322,-0.9299,-1.0435,-1.2429,-1.2795,-1.2026,-1.0658,-1.1184,-1.1475,-1.1476,-1.1476,-1.2521,-1.3831,-1.4223,-1.4353,-1.4353,-1.4353,-1.4353,-1.4353,-1.4744,-1.5794,-1.684,-1.7109,-1.8139,-1.9036,-1.9036,-1.9024,-1.8673,-1.7163,-1.6729,-1.6348,-1.4686,-1.4791,-1.5406,-1.5695,-1.6482,-1.676,-1.6115,-1.6368,-1.6948,0.0,0.0,-1.4678,0.0,0.0,0.0,0.0,-1.0284,0.0,0.0,0.0,0.0,0.0,0.0,0.0,-1.4527,0.0,-1.6652,-1.6155,-1.7928,-1.7981,-1.6301,-1.616,-1.5845,-1.5044,-1.4792,-1.4976,-1.5763,-1.5946,-1.6177,-1.6483,-1.677,-1.6904,-1.7056,-1.7046,-1.6142,-1.4944,-1.4944,-1.3876,-1.2508,-0.7878,-0.7894,-0.8097,-0.8852,-1.0045,-1.0742,-1.0128,-1.1309,-1.1891,-1.0816,-1.0716,-1.0842,-1.1356,-1.2,-1.2641,-1.346,-1.4122,-1.481,-1.5902,-1.5429,-1.53,-1.5537,-1.4993,-1.3839,-1.2207,-1.1272,-0.9647,-0.739,-0.5924,-0.4809,-0.4158,-0.3971,-0.4339,-0.5229,-0.6647,-0.7872,-0.9135,-1.0273,-1.1206,-1.2048,-1.256,-1.1733,-1.0283,-1.0904,-1.0511,-0.9637,-0.9637,-1.0035,-1.069,-1.069,-1.2127,-1.3831,-1.3831,-1.3831,-1.3831,-1.3962,-1.4484,-1.5005,-1.5404,-1.5794,-1.6322,-1.6462,-1.6602,-1.6441,-1.5703,-1.5555,-1.5563,-1.536,-1.5946,-1.651,-1.646,-1.6296,-1.6468,-1.7363,-1.6798,-1.6815,-1.8312,0.0,0.0,0.0,0.0,0.0,0.0,0.0,0.0,0.0,0.0,0.0,0.0,0.0,0.0,-1.3532,0.0,-1.6042,-1.6612,-1.7348,-1.7429,-1.7137,-1.5726,-1.5114,-1.5154,-1.4075,-1.4408,-1.5737,-1.5815,-1.6072,-1.6483,-1.5718,-1.5403,-1.5557,-1.479,-1.403,-1.3414,-1.3414,-1.3112,-1.2501,-0.8917,-0.8852,-0.9023,-0.9876,-1.0662,-1.1008,-1.0773,-1.1621,-1.1994,-1.1134,-1.0964,-1.1078,-1.1459,-1.1435,-1.1787,-1.2858,-1.2985,-1.3395,-1.4381,-1.3885,-1.3517,-1.3756,-1.3095,-1.1988,-1.0448,-1.0229,-0.9055,-0.7045,-0.615,-0.5468,-0.5108,-0.4813,-0.52,-0.6128,-0.7541,-0.8343,-0.8862,-1.0167,-1.0738,-1.0725,-1.1156,-1.0652,-0.9646,-1.0097,-0.9569,-0.859,-0.859,-0.859,-0.859,-0.859,-1.0293,-1.2258,-1.2258,-1.2258,-1.2258,-1.2389,-1.2652,-1.3177,-1.3709,-1.4101,-1.4493,-1.4772,-1.5163,-1.5424,-1.5033,-1.5163,-1.5564,-1.5628,-1.5473,-1.5439,-1.5803,-1.5246,-1.5128,-1.6757,-1.5847,-1.5407,-1.7119,-1.6642,0.0,0.0,-1.5644,-1.4717,-1.4352,-1.2869,0.0,0.0,0.0,0.0,0.0,0.0,0.0,0.0,0.0,0.0,-1.5817,-1.6125,-1.6375,-1.6282,-1.4733,-1.3945,-1.4066,-1.2962,-1.3288,-1.4611,-1.4667,-1.506,-1.5336,-1.4168,-1.3876,-1.4022,-1.2958,-1.2501,-1.2501,-1.2501,-1.2501,-1.2501,-0.973,-0.9868,-1.0095,-1.0826,-1.1086,-1.1265,-1.1459,-1.1492,-1.1557,-1.1744,-1.1606,-1.1492,-1.15,-1.1663,-1.1768,-1.1776,-1.1776,-1.1776,-1.1897,-1.1277,-1.1148,-1.1752,-1.1217,-1.0532,-0.9598,-0.9822,-0.9229,-0.7687,-0.7067,-0.6681,-0.6321,-0.5638,-0.6069,-0.7404,-0.6952,-0.7471,-0.8505,-0.7903,-0.7655,-0.7983,-0.7867,-0.7915,-0.8236,-0.8236,-0.8383,-0.859,-0.859,-0.859,-0.859,-0.859,-0.8584,-0.8723,-0.8723,-0.8723,-0.8717,-0.9117,-1.0167,-1.1351,-1.215,-1.3325,-1.4493,-1.4772,-1.5944,-1.6592,-1.5163,-1.5944,-1.6455,-1.4751,-1.2374,-1.1263,-1.3233,-1.3092,-1.303,-1.4003,-1.3752,-1.3562,-1.4157,-1.2467,0.0,-1.3227,-1.1167,-1.0477,-1.2694,-1.2219,0.0,0.0,0.0,0.0,0.0,0.0,0.0,-1.1638,-1.2454,-1.2885,-1.2621,-1.4458,-1.4544,-1.2745,-1.2745,-1.218,-1.105,-1.1186,-1.1321,-1.1469,-1.1618,-1.1987,-1.2305,-1.2447,-1.2501,-1.2501,-1.2501,-1.2501,-1.2501,-1.2501,-1.2501,-1.2501,-1.0558,-1.072,-1.0907,-1.1265,-1.1484,-1.1622,-1.1679,-1.1784,-1.1882,-1.1939,-1.1531,-1.1256,-1.1256,-1.1566,-1.1776,-1.1776,-1.1405,-1.1156,-1.1156,-1.0065,-0.9579,-0.97,-0.9163,-0.8775,-0.8418,-0.8456,-0.8216,-0.7818,-0.7122,-0.6833,-0.6833,-0.6468,-0.6782,-0.7645,-0.753,-0.7679,-0.7939,-0.7983,-0.7877,-0.7877,-0.7921,-0.8008,-0.8127,-0.8296,-0.8405,-0.8481,-0.8557,-0.859,-0.859,-0.859,-0.859,-0.859,-0.859,-0.859,-0.859,-0.8717,-0.9117,-0.951,-1.0041,-1.0432,-1.0829,-1.1233,-1.163,-1.1894,-1.1505,-1.2449,-1.3319,-1.2312,-1.2125,-1.2217,-1.2569,-1.2647,-1.2713,-1.3147,-1.3453,-1.3687,-1.4277,-1.3769,-1.3651,-1.428,-1.3546,-1.3187,-1.392,-1.3174,0.0,0.0,0.0,0.0,0.0,0.0,0.0,0.0,-1.124,-1.2234,-1.3062,-1.3612,-1.4263,-1.5,-1.3745,-1.2466,-1.1476,-1.1523,-1.1616,-1.161,-1.1811,-1.1884,-1.2149,-1.2298,-1.2206,-1.206,-1.2306,-1.2347,-1.2192,-1.2347,-1.2501,-1.2501,-1.1346,-1.1451,-1.1565,-1.1679,-1.1971,-1.2119,-1.206,-1.2283,-1.2231,-1.1846,-1.1423,-1.101,-1.0753,-1.0986,-1.1111,-1.105,-1.0914,-1.0664,-1.0422,-0.9457,-0.8854,-0.8854,-0.8238,-0.7872,-0.7872,-0.7801,-0.7801,-0.7872,-0.7464,-0.7243,-0.7315,-0.7194,-0.7431,-0.8077,-0.7933,-0.7939,-0.8083,-0.8066,-0.7943,-0.7877,-0.7954,-0.8013,-0.8073,-0.8225,-0.8312,-0.8361,-0.8432,-0.8454,-0.8454,-0.8454,-0.8454,-0.8454,-0.8454,-0.8454,-0.847,-0.8562,-0.859,-0.8723,-0.8984,-0.9117,-0.9238,-0.9594,-0.9977,-1.0484,-1.1069,-1.1364,-1.1494,-1.1195,-1.1208,-1.0971,-1.0808,-1.0852,-1.0994,-1.1225,-1.1599,-1.2001,-1.2505,-1.2668,-1.2629,-1.2914,-1.2707,-1.2733,-1.2738,-1.2163,-1.1454,0.0,0.0,0.0,0.0,0.0,-1.0411,-1.0239,-1.0738,-1.1607,-1.2552,-1.2522,-1.3146,-1.4441,-1.3174,-1.233,-1.1619,-1.1619,-1.1667,-1.1755,-1.1809,-1.1737,-1.1837,-1.1931,-1.1671,-1.1377,-1.1914,-1.1947,-1.1802,-1.2166,-1.2338,-1.2338,-1.2028,-1.2036,-1.2052,-1.206,-1.2457,-1.2766,-1.2556,-1.2838,-1.2709,-1.1675,-1.1276,-1.0919,-1.0404,-1.0148,-0.9881,-0.9741,-1.0315,-1.0429,-0.9822,-0.9092,-0.8732,-0.8732,-0.8238,-0.7872,-0.7872,-0.7872,-0.7872,-0.7872,-0.7872,-0.7872,-0.7867,-0.7763,-0.8071,-0.8528,-0.7933,-0.8077,-0.8528,-0.8044,-0.7872,-0.7872,-0.7872,-0.7937,-0.804,-0.8051,-0.8122,-0.8225,-0.8231,-0.8242,-0.8247,-0.8247,-0.8253,-0.8258,-0.8258,-0.8258,-0.8301,-0.8503,-0.8562,-0.8695,-0.8961,-0.9088,-0.9065,-0.9341,-1.0337,-1.1705,-1.28,-1.1886,-1.084,-1.0922,-0.9417,-0.8154,-0.8407,-0.8139,-0.8099,-0.8718,-0.8759,-0.8975,-0.9624,-0.9661,-0.9716,-0.9606,-0.9609,-0.9724,-1.0052,-1.0067,-1.0235,-1.0658,0.0,0.0,0.0,0.0,-1.0524,-1.0914,-1.0941,-1.1016,-1.1158,-1.1314,-1.147,-1.1619,-1.1619,-1.1619,-1.1619,-1.1619,-1.1619,-1.1626,-1.1755,-1.1524,-1.1231,-1.1231,-1.1091,-1.0657,-1.1104,-1.125,-1.1423,-1.1864,-1.206,-1.206,-1.2004,-1.2142,-1.228,-1.2418,-1.2588,-1.2588,-1.2111,-1.225,-1.2374,-1.2111,-1.1315,-1.0826,-1.1213,-1.0686,-0.9949,-0.916,-0.9218,-0.9214,-0.9092,-0.8482,-0.8116,-0.8116,-0.7994,-0.7872,-0.7872,-0.7872,-0.7872,-0.7872,-0.7872,-0.7872,-0.7872,-0.7845,-0.7983,-0.8033,-0.7856,-0.7983,-0.8033,-0.8005,-0.7872,-0.7872,-0.7872,-0.7888,-0.7926,-0.8019,-0.8073,-0.8106,-0.8204,-0.8296,-0.8372,-0.8372,-0.8432,-0.8503,-0.8503,-0.8503,-0.8481,-0.8356,-0.8318,-0.8318,-0.8447,-0.8447,-0.8441,-0.8542,-0.8788,-0.9032,-0.9379,-0.9373,-0.9209,-0.8949,-0.8752,-0.8534,-0.8284,-0.8089,-0.8325,-0.8733,-0.8632,-0.8819,-0.9902,-0.9794,-0.9839,-1.0378,-1.0453,-1.0603,-1.0486,-1.0582,-1.0447,-0.9873,-1.0266,-1.0354,-1.0119,-1.0347,-1.0515,-1.0744,-1.0887,-1.1016,-1.1158,-1.1314,-1.147,-1.1619,-1.1619,-1.1619,-1.1619,-1.1619,-1.1619,-1.1619,-1.1653,-1.1378,-1.1089,-1.1083,-1.1002,-1.0657,-1.1097,-1.1315,-1.1418,-1.1898,-1.221,-1.2508,-1.2885,-1.2986,-1.2959,-1.254,-1.2636,-1.2568,-1.1909,-1.2041,-1.2173,-1.1644,-1.1176,-1.0726,-1.0457,-1.0201,-0.9729,-0.9221,-0.9406,-0.928,-0.8789,-0.8482,-0.82,-0.82,-0.8022,-0.7872,-0.7872,-0.7872,-0.7872,-0.7872,-0.7872,-0.7872,-0.7872,-0.7872,-0.7872,-0.7872,-0.7872,-0.7872,-0.7872,-0.7872,-0.7905,-0.7954,-0.7954,-0.7986,-0.8046,-0.8111,-0.81,-0.8068,-0.8193,-0.8242,-0.8258,-0.8318,-0.8378,-0.8426,-0.8426,-0.8426,-0.8399,-0.8274,-0.8312,-0.8394,-0.8394,-0.8394,-0.8372,-0.8263,-0.8193,-0.8138,-0.8079,-0.8193,-0.8296,-0.811,-0.8318,-0.8385,-0.8193,-0.8155,-0.8403,-0.9045,-0.884,-0.911,-1.0287,-1.0215,-1.0176,-1.0704,-1.0792,-1.0812,-1.0731,-1.0799,-1.0671,-1.0165,-1.0379,-1.0443,-1.0243,-1.0436,-1.0651,-1.09,-1.1002,-1.1118,-1.1267,-1.1416,-1.1538,-1.1619,-1.1619,-1.1619,-1.1619,-1.1619,-1.1619,-1.1619,-1.1476,-1.1188,-1.1038,-1.0824,-1.0699,-1.048,-1.0913,-1.1102,-1.1179,-1.1837,-1.2297,-1.2443,-1.3613,-1.3613,-1.3358,-1.2437,-1.2561,-1.2561,-1.1776,-1.2048,-1.1909,-1.085,-1.0982,-1.0717,-0.9649,-0.9551,-0.9614,-0.9621,-1.0025,-0.9934,-0.9003,-0.8764,-0.8705,-0.8705,-0.8335,-0.8022,-0.8022,-0.8005,-0.7994,-0.7994,-0.7994,-0.7994,-0.7872,-0.7872,-0.7872,-0.7872,-0.7872,-0.7883,-0.7899,-0.7899,-0.797,-0.8084,-0.8084,-0.8144,-0.8236,-0.8236,-0.8171,-0.8095,-0.8198,-0.8182,-0.8127,-0.8231,-0.8274,-0.8291,-0.8291,-0.8291,-0.8291,-0.8291,-0.8432,-0.8579,-0.8546,-0.8535,-0.8486,-0.8285,-0.8155,-0.8051,-0.7948,-0.7926,-0.7926,-0.7926,-0.8024,-0.8111,-0.8111,-0.8209,-0.8542,-0.9178,-0.9088,-0.9348,-1.0357,-1.0419,-1.0439,-1.069,-1.0717,-1.0717,-1.0717,-1.0717,-1.0717,-1.0717,-1.0717,-1.0717,-1.0717,-1.0744,-1.088,-1.1151,-1.1165,-1.1246,-1.1423,-1.1552,-1.1619,-1.1619,-1.1619,-1.1619,-1.1619,-1.1476,-1.1476,-1.1476,-1.1044,-1.09,-1.0743,-1.0463,-1.0278,-1.0432,-1.0838,-1.0985,-1.116,-1.2001,-1.2338,-1.2481,-1.2173,-1.2173,-1.2041,-1.1916,-1.2437,-1.2305,-1.1115,-1.1644,-1.2041,-1.1247,-1.0982,-1.0982,-1.138,-1.0829,-1.0419,-1.0161,-1.0399,-1.028,-0.9264,-0.9233,-0.9221,-0.9221,-0.8967,-0.8901,-0.8901,-0.8793,-0.861,-0.8366,-0.8366,-0.8122,-0.7872,-0.7872,-0.7872,-0.7872,-0.7872,-0.7926,-0.8024,-0.8024,-0.8095,-0.8209,-0.8209,-0.822,-0.8236,-0.8236,-0.8225,-0.8209,-0.8225,-0.8291,-0.8367,-0.8383,-0.8454,-0.853,-0.853,-0.853,-0.853,-0.853,-0.8557,-0.8546,-0.8345,-0.8291,-0.828,-0.8242,-0.822,-0.8204,-0.8182,-0.8176,-0.8176,-0.8176,-0.8274,-0.8361,-0.8361,-0.8454,-0.8469,-0.8474,-0.8764,-0.9215,-0.9566,-0.9949,-1.0406,-1.0717,-1.0717,-1.0717,-1.0717,-1.0717,-1.0717,-1.0717,-1.0717,-1.0717,-1.0717,-1.0846,-1.0989,-1.1158,-1.1165,-1.1301,-1.1579,-1.1606,-1.1619,-1.1619,-1.1619,-1.1619,-1.1619,-1.1188,-1.1044,-1.1044,-1.075,-1.0311,-1.0017,-1.0179,-1.0327,-1.0556,-1.1153,-1.1612,-1.2015,-1.2459,-1.2896,-1.3182,-1.2297,-1.2297,-1.2165,-1.1644,-1.1776,-1.1644,-1.085,-1.1115,-1.138,-1.0982,-1.0982,-1.0982,-1.0982,-1.085,-1.0585,-1.0452,-1.0591,-1.0531,-1.013,-0.9786,-0.9619,-0.9619,-0.936,-0.9166,-0.9166,-0.9032,-0.8964,-0.8723,-0.8723,-0.8717,-0.8594,-0.8658,-0.8688,-0.8688,-0.8688,-0.8723,-0.8781,-0.8781,-0.8857,-0.8845,-0.8716,-0.8626,-0.8682,-0.8426,-0.8388,-0.8339,-0.8405,-0.8552,-0.8688,-0.875,-0.8806,-0.8851,-0.8851,-0.8717,-0.859,-0.859,-0.859,-0.8562,-0.8454,-0.8426,-0.841,-0.835,-0.8334,-0.8318,-0.8253,-0.8236,-0.8236,-0.8236,-0.8458,-0.8677,-0.8677,-0.891,-0.927,-0.9292,-0.9416,-0.9613,-1.0015,-1.0196,-1.0411,-1.0704,-1.0717,-1.0717,-1.0717,-1.0717,-1.0717,-1.0717,-1.0717,-1.0717,-1.0717,-1.0785,-1.0894,-1.1043,-1.128,-1.1477,-1.1619,-1.1619,-1.1619,-1.1619,-1.1619,-1.1476,-1.1332,-1.1044,-1.0894,-1.075,-1.0311,-1.0167,-1.0161,-1.0102,-1.0407,-1.0743,-1.111,-1.1415,-1.1907,-1.261,-1.2896,-1.3039,-1.2297,-1.2297,-1.2033,-1.1247,-1.1247,-1.1247,-1.0717,-1.085,-1.085,-1.0717,-1.0982,-1.085,-1.0326,-1.0585,-1.0717,-1.0717,-1.0717,-1.0717,-1.0717,-1.0346,-1.0156,-1.0156,-0.9755,-0.9538,-0.9506,-0.9406,-0.9356,-0.923,-0.923,-0.923,-0.9105,-0.9203,-0.9252,-0.9252,-0.9252,-0.927,-0.93,-0.93,-0.938,-0.9502,-0.9246,-0.9168,-0.9256,-0.8989,-0.88,-0.8733,-0.8823,-0.8927,-0.899,-0.9082,-0.8984,-0.8984,-0.8984,-0.8851,-0.859,-0.859,-0.859,-0.859,-0.859,-0.859,-0.8568,-0.8481,-0.8459,-0.8432,-0.8339,-0.8318,-0.8447,-0.8447,-0.8779,-0.9115,-0.9115,-0.9456,-0.9732,-0.9799,-0.9871,-0.9993,-1.0277,-1.0392,-1.0466,-1.0697,-1.0717,-1.0717,-1.0717,-1.0717,-1.0717,-1.0717,-1.0717,-1.0717,-1.0717,-1.0751,-1.0839,-1.0995,-1.1369,-1.1586,-1.1619,-1.1619,-1.1619,-1.1619,-1.1619,-1.1332,-1.1044,-1.09,-1.075,-1.0311,-0.9879,-1.0023,-1.0311,-1.0167,-1.0462,-1.1044,-1.1188,-1.1476,-1.1763,-1.2474,-1.2753,-1.2896,-1.085,-1.085,-1.085,-1.0717,-1.1247,-1.1512,-1.085,-1.1247,-1.1512,-1.085,-1.0717,-1.0717,-1.0724,-1.0717,-1.0717,-1.0717,-1.0717,-1.0717,-1.0717,-1.0711,-1.0704,-1.0704,-1.0555,-1.0412,-1.0283,-1.027,-1.0009,-0.9742,-0.9742,-0.9615,-0.9239,-0.9246,-0.9252,-0.9252,-0.9252,-0.9325,-0.9441,-0.9441,-0.952,-0.9649,-0.9649,-0.9655,-0.9661,-0.9661,-0.9655,-0.9649,-0.9661,-0.9383,-0.9105,-0.9111,-0.8851,-0.8584,-0.8584,-0.859,-0.859,-0.859,-0.859,-0.859,-0.859,-0.859,-0.8584,-0.8579,-0.8573,-0.8573,-0.8562,-0.8828,-0.9088,-0.9088,-0.9371,-0.9649,-0.9649,-0.9655,-0.9546,-0.9023,-0.9658,-1.0019,-0.9591,-1.0175,-1.0697,-1.0717,-1.0717,-1.0717,-1.0717,-1.0717,-1.0717,-1.0717,-1.0717,-1.0717,-1.0717,-1.0853,-1.0995,-1.1145,-1.1314,-1.1477,-1.1619,-1.1619,-1.1619,-1.1619,-1.1619,-1.1332,-1.1044,-1.075,-1.0311,-0.9879,-0.9446,-0.959,-1.0023,-1.0311,-1.0606,-1.1044,-1.1763,-1.2194,-1.2194,-1.2617,-1.2753,-1.2753,-1.0704,-1.0717,-1.0717,-1.0717,-1.0982,-1.0982,-1.0717,-1.0982,-1.0982,-1.0717,-1.0717,-1.0717,-1.0717,-1.0717,-1.0717,-1.0717,-1.0717,-1.0717,-1.0717,-1.0717,-1.0717,-1.0717,-1.0663,-1.0609,-1.0555,-1.046,-1.0412,-1.0277,-1.0277,-1.0148,-1.0019,-1.0117,-1.0156,-1.0156,-1.0156,-1.0189,-1.0241,-1.0241,-1.0141,-0.9927,-0.9794,-0.9528,-0.9256,-0.9123,-0.8989,-0.8989,-0.8989,-0.8989,-0.9117,-0.9117,-0.8984,-0.8851,-0.8851,-0.8717,-0.8584,-0.8851,-0.8851,-0.8984,-0.9256,-0.9123,-0.8851,-0.8851,-0.9123,-0.9262,-0.9262,-0.9389,-0.9522,-0.9522,-0.9794,-1.006,-1.006,-1.0193,-1.0215,-1.0015,-1.024,-1.0471,-1.0263,-1.0507,-1.0717,-1.0717,-1.0717,-1.0717,-1.0717,-1.0717,-1.0717,-1.0717,-1.0717,-1.0717,-1.0717,-1.0772,-1.0873,-1.1023,-1.1084,-1.1233,-1.1477,-1.1477,-1.1525,-1.1619,-1.1332,-1.1044,-1.075,-1.0311,-0.9879,-0.959,-0.959,-0.9735,-0.9879,-1.0311,-1.075,-1.1044,-1.1332,-1.1619,-1.1907,-1.2338,-1.2474,-1.2474,-1.069,-1.0717,-1.0717,-1.0717,-1.0717,-1.0717,-1.0717,-1.0717,-1.0717,-1.0717,-1.0717,-1.0717,-1.0717,-1.0717,-1.0717,-1.0717,-1.0717,-1.0717,-1.0717,-1.0717,-1.0717,-1.0717,-1.0717,-1.0717,-1.0717,-1.0616,-1.0561,-1.0561,-1.0561,-1.0561,-1.0568,-1.067,-1.0717,-1.0717,-1.0717,-1.0717,-1.0717,-1.0717,-1.0459,-1.0193,-0.9927,-0.9655,-0.9256,-0.8989,-0.8989,-0.8989,-0.8989,-0.8989,-0.9117,-0.925,-0.925,-0.9117,-0.925,-0.9123,-0.8989,-0.9256,-0.9256,-0.9389,-0.9661,-0.9522,-0.9383,-0.925,-0.9522,-0.9661,-0.9661,-0.9794,-0.9794,-0.9794,-1.006,-1.0326,-1.0326,-1.0585,-1.0717,-1.0717,-1.0717,-1.0717,-1.0717,-1.0717,-1.0717,-1.0717,-1.0717,-1.0717,-1.0717,-1.0717,-1.0717,-1.0717,-1.0717,-1.0717,-1.0717,-1.0717,-1.0765,-1.0873,-1.0745,-1.0859,-1.1107,-1.1154,-1.1228,-1.1335,-1.0909,-1.0482,-1.0191,-1.009,-0.9821,-0.9396,-0.9862,-1.0167,-1.0317,-1.0606,-1.0868,-1.1116,-1.1116,-1.1233,-1.1477,-1.1761,-1.1903,-1.1903,-1.069,-1.0717,-1.0717,-1.0717,-1.0717,-1.0717,-1.0717,-1.0717,-1.0717,-1.0717,-1.0717,-1.0717,-1.0717,-1.0717,-1.0717,-1.0717,-1.0717,-1.0717,-1.0717,-1.0717,-1.0717,-1.0717,-1.0717,-1.0717,-1.0717,-1.0717,-1.0717,-1.0717,-1.0717,-1.0717,-1.0717,-1.0717,-1.0717,-1.0717,-1.0717,-1.0717,-1.0717,-1.0717,-1.0459,-1.0193,-1.0193,-1.006,-0.9661,-0.9661,-0.9661,-0.9661,-0.9661,-0.9389,-0.9117,-0.9528,-0.9389,-0.9117,-0.9528,-0.9661,-0.9661,-0.9661,-0.9661,-0.9661,-0.9661,-0.9927,-1.006,-0.9794,-0.9661,-0.9661,-0.9661,-0.9927,-1.0193,-1.0193,-1.0459,-1.0717,-1.0717,-1.0717,-1.0717,-1.0717,-1.0717,-1.0717,-1.0717,-1.0717,-1.0717,-1.0717,-1.0717,-1.0717,-1.0717,-1.0717,-1.0717,-1.0717,-1.0717,-1.0717,-1.0717,-1.0717,-1.0717,-1.0717,-1.0326,-1.0257,-1.0386,-1.0535,-1.0606,-1.0612,-1.0197,-0.992,-0.9509,-1.0058,-1.0125,-0.9706,-1.0251,-1.0743,-1.1038,-1.1038,-1.1096,-1.1389,-1.1389,-1.1294,-1.1165,-1.1165,-1.1165,-1.1165,-1.0534,-1.0649,-1.0717,-1.0717,-1.0717,-1.0717,-1.0717,-1.0717,-1.0717,-1.0717,-1.0717,-1.0717,-1.0717,-1.0717,-1.0717,-1.0717,-1.0717,-1.0717,-1.0717,-1.0717,-1.0717,-1.0717,-1.0717,-1.0717,-1.0717,-1.0717,-1.0717,-1.0717,-1.0717,-1.0717,-1.0717,-1.0717,-1.0717,-1.0717,-1.0717,-1.0717,-1.0717,-1.0717,-1.0459,-1.0193,-1.0193,-1.006,-0.9661,-0.9661,-0.9661,-0.9661,-0.9661,-0.9661,-0.9528,-0.9661,-0.9661,-0.9528,-0.9661,-0.9661,-0.9794,-0.9927,-1.006,-1.006,-1.0326,-1.0459,-1.0459,-1.0193,-1.0193,-1.0459,-1.0459,-1.0452,-1.0585,-1.0585,-1.0585,-1.0717,-1.0717,-1.0717,-1.0717,-1.0717,-1.0717,-1.0717,-1.0717,-1.0717,-1.0717,-1.0717,-1.0717,-1.0717,-1.0717,-1.0717,-1.0717,-1.0717,-1.0717,-1.0585,-1.0326,-1.0326,-1.0193,-1.006,-0.9927,-0.9813,-0.985,-0.9986,-1.0098,-1.0197,-0.992,-0.9781,-0.992,-0.9823,-0.984,-0.998,-1.0436,-1.0595,-1.0741,-1.1021,-1.1134,-1.1233,-1.1233,-1.1206,-1.1165,-1.1165,-1.1165,-1.1165,-1.0466,-1.0616,-1.0717,-1.0717,-1.0717,-1.0717,-1.0717,-1.0717,-1.0717,-1.0717,-1.0717,-1.0717,-1.0717,-1.0717,-1.0717,-1.0717,-1.0717,-1.0717,-1.0717,-1.0717,-1.0717,-1.0717,-1.0717,-1.0717,-1.0717,-1.0717,-1.0717,-1.0717,-1.0717,-1.0717,-1.0717,-1.0717,-1.0717,-1.0717,-1.0717,-1.0717,-1.0717,-1.0717,-1.0459,-1.0193,-1.0193,-1.006,-0.9661,-0.9661,-0.9661,-0.9661,-0.9661,-0.9661,-0.9661,-0.9794,-0.9927,-1.006,-1.006,-1.006,-1.0193,-1.0326,-1.0459,-1.0459,-1.0585,-1.0717,-1.0585,-1.0459,-1.0585,-1.0717,-1.0717,-1.0717,-1.0717,-1.0717,-1.0717,-1.0717,-1.0717,-1.0717,-1.0717,-1.0717,-1.0717,-1.0717,-1.0717,-1.0717,-1.0717,-1.0717,-1.0717,-1.0717,-1.0717,-1.0585,-1.0459,-1.0326,-1.0326,-1.0193,-1.006,-1.006,-0.9927,-0.9661,-0.9528,-0.9522,-0.9522,-0.96,-0.9679,-0.9899,-0.949,-0.949,-0.9905,-0.9817,-0.9973,-1.0116,-1.0586,-1.0889,-1.0889,-1.1165,-1.1131,-1.1077,-1.1077,-1.1043,-1.0989,-1.0989,-1.0989,-1.0989,-1.0446,-1.0595,-1.0704,-1.0717,-1.0717,-1.0717,-1.0717,-1.0717,-1.0717,-1.0717,-1.0717,-1.0717,-1.0717,-1.0717,-1.0717,-1.0717,-1.0717,-1.0717,-1.0717,-1.0717,-1.0717,-1.0717,-1.0717,-1.0717,-1.0717,-1.0717,-1.0717,-1.0717,-1.0717,-1.0717,-1.0717,-1.0717,-1.0717,-1.0717,-1.0717,-1.0717,-1.0717,-1.0717,-1.0459,-1.0193,-1.0193,-1.006,-0.9794,-0.9794,-0.9794,-0.9794,-0.9794,-0.9794,-0.9794,-1.0193,-1.0459,-1.0717,-1.0717,-1.0717,-1.0717,-1.0717,-1.0717,-1.0717,-1.0717,-1.0717,-1.0717,-1.0717,-1.0717,-1.0717,-1.0717,-1.0717,-1.0717,-1.0717,-1.0717,-1.0717,-1.0717,-1.0717,-1.0717,-1.0717,-1.0717,-1.0717,-1.0717,-1.0717,-1.0717,-1.0717,-1.0724,-1.0717,-1.0717,-1.0326,-1.006,-0.9661,-0.9661,-0.9661,-0.9661,-0.9661,-0.9661,-0.9661,-0.9256,-0.9117,-0.9117,-0.9117,-0.9256,-0.9661,-0.9256,-0.9389,-0.98,-1.0187,-1.0373,-1.0515,-1.0926,-1.1124,-1.1124,-1.1124,-1.1043,-1.0928,-1.0928,-1.0846,-1.0717,-1.0717,-1.0717,-1.0717,-1.0297,-1.0439,-1.0582,-1.0697,-1.0717,-1.0717,-1.0717,-1.0717,-1.0717,-1.0717,-1.0717,-1.0717,-1.0717,-1.0717,-1.0717,-1.0717,-1.0717,-1.0717,-1.0717,-1.0717,-1.0717,-1.0717,-1.0717,-1.0717,-1.0717,-1.0717,-1.0717,-1.0717,-1.0717,-1.0717,-1.0717,-1.0717,-1.0717,-1.0717,-1.0717,-1.0717,-1.0717,-1.0717,-1.0717,-1.0585,-1.0585,-1.0585,-1.0452,-1.0452,-1.0452,-1.0452,-1.0452,-1.0452,-1.0452,-1.0591,-1.0585,-1.0717,-1.0717,-1.0717,-1.0717,-1.0717,-1.0717,-1.0717,-1.0717,-1.0717,-1.0717,-1.0717,-1.0717,-1.0717,-1.0717,-1.0717,-1.0717,-1.0717,-1.0717,-1.0717,-1.0717,-1.0717,-1.0717,-1.0717,-1.0717,-1.0717,-1.0717,-1.0717,-1.0717,-1.0717,-1.0459,-1.0326,-1.0326,-1.006,-0.9794,-0.9661,-0.9661,-0.9528,-0.925,-0.925,-0.925,-0.925,-0.9117,-0.925,-0.9528,-0.9528,-0.9389,-0.925,-0.9522,-0.9794,-1.006,-1.0225,-1.0365,-1.0632,-1.0806,-1.0819,-1.0819,-1.0819,-1.0799,-1.0772,-1.0772,-1.0751,-1.0717,-1.0717,-1.0717,-1.0717,-1.0154,-1.0344,-1.0514,-1.0595,-1.067,-1.0717,-1.0717,-1.0717,-1.0717,-1.0717,-1.0717,-1.0717,-1.0717,-1.0717,-1.0717,-1.0717,-1.0717,-1.0717,-1.0717,-1.0717,-1.0717,-1.0717,-1.0717,-1.0717,-1.0717,-1.0717,-1.0717,-1.0717,-1.0717,-1.0717,-1.0717,-1.0717,-1.0717,-1.0717,-1.0717,-1.0717,-1.0717,-1.0717,-1.0717,-1.0717,-1.0717,-1.0717,-1.0717,-1.0717,-1.0717,-1.0717,-1.0717,-1.0717,-1.0717,-1.0717,-1.0717,-1.0717,-1.0717,-1.0717,-1.0717,-1.0717,-1.0717,-1.0717,-1.0717,-1.0717,-1.0717,-1.0717,-1.0717,-1.0717,-1.0717,-1.0717,-1.0717,-1.0717,-1.0717,-1.0717,-1.0717,-1.0717,-1.0717,-1.0717,-1.0591,-1.0459,-1.0459,-1.0326,-1.0193,-1.0193,-1.006,-0.9927,-0.9655,-0.9522,-0.9389,-0.9123,-0.9123,-0.9123,-0.9117,-0.9117,-0.925,-0.9389,-0.9389,-0.9522,-0.9661,-0.9794,-0.9788,-0.9655,-0.9794,-1.006,-1.0459,-1.0459,-1.0585,-1.0717,-1.0717,-1.0717,-1.0717,-1.0717,-1.0717,-1.0717,-1.0717,-1.0717,-1.0717,-1.0717,-1.0717,-1.0717,-1.0046,-1.0249,-1.0432,-1.048,-1.0595,-1.069,-1.0717,-1.0717,-1.0717,-1.0717,-1.0717,-1.0717,-1.0717,-1.0717,-1.0717,-1.0717,-1.0717,-1.0717,-1.0717,-1.0717,-1.0717,-1.0717,-1.0717,-1.0717,-1.0717,-1.0717,-1.0717,-1.0717,-1.0717,-1.0717,-1.0717,-1.0717,-1.0717,-1.0717,-1.0717,-1.0717,-1.0717,-1.0717,-1.0717,-1.0717,-1.0717,-1.0717,-1.0717,-1.0717,-1.0717,-1.0717,-1.0717,-1.0717,-1.0717,-1.0717,-1.0717,-1.0717,-1.0717,-1.0717,-1.0717,-1.0717,-1.0717,-1.0717,-1.0717,-1.0717,-1.0717,-1.0717,-1.0717,-1.0717,-1.0717,-1.0717,-1.0717,-1.0717,-1.0717,-1.0717,-1.0717,-1.0585,-1.0591,-1.0591,-1.0326,-1.006,-1.006,-0.9927,-0.9661,-0.9661,-0.9661,-0.9389,-0.9117,-0.8984,-0.8851,-0.859,-0.859,-0.8723,-0.8984,-0.9117,-0.9256,-0.9661,-0.9794,-0.9794,-0.9927,-1.0193,-1.0326,-1.0326,-1.0326,-1.0452,-1.0717,-1.0717,-1.0717,-1.0717,-1.0717,-1.0717,-1.0717,-1.0717,-1.0717,-1.0717,-1.0717,-1.0717,-1.0717,-1.0717,-1.0717,-1.0857,-1.0025,-1.008,-1.0188,-1.0446,-1.0507,-1.0568,-1.0697,-1.0717,-1.0717,-1.0717,-1.0717,-1.0717,-1.0717,-1.0717,-1.0717,-1.0717,-1.0717,-1.0717,-1.0717,-1.0717,-1.0717,-1.0717,-1.0717,-1.0717,-1.0717,-1.0717,-1.0717,-1.0717,-1.0717,-1.0717,-1.0717,-1.0717,-1.0717,-1.0717,-1.0717,-1.0717,-1.0717,-1.0717,-1.0717,-1.0717,-1.0717,-1.0717,-1.0717,-1.0717,-1.0717,-1.0717,-1.0717,-1.0717,-1.0717,-1.0717,-1.0717,-1.0717,-1.0717,-1.0717,-1.0717,-1.0717,-1.0717,-1.0717,-1.0717,-1.0717,-1.0717,-1.0717,-1.0717,-1.0717,-1.0717,-1.0717,-1.0717,-1.0717,-1.0717,-1.0717,-1.0717,-1.0459,-1.0326,-1.0326,-0.9927,-0.9794,-0.9794,-0.9794,-0.9661,-0.9661,-0.9389,-0.8984,-0.8717,-0.8723,-0.859,-0.859,-0.859,-0.859,-0.8723,-0.8984,-0.9256,-0.9661,-0.9927,-1.0326,-1.0591,-1.0591,-1.0585,-1.0585,-1.0585,-1.0717,-1.0717,-1.0717,-1.0717,-1.0717,-1.0717,-1.0717,-1.0717,-1.0717,-1.0717,-1.0717,-1.0717,-1.0717,-1.0717,-1.0717,-1.085,-1.1136,-0.991,-0.9992,-1.0093,-1.0222,-1.0385,-1.0514,-1.0582,-1.0663,-1.0717,-1.0717,-1.0717,-1.0717,-1.0717,-1.0717,-1.0717,-1.0717,-1.0717,-1.0717,-1.0717,-1.0717,-1.0717,-1.0717,-1.0717,-1.0717,-1.0717,-1.0717,-1.0717,-1.0717,-1.0717,-1.0717,-1.0717,-1.0717,-1.0717,-1.0717,-1.0717,-1.0717,-1.0717,-1.0717,-1.0717,-1.0717,-1.0717,-1.0717,-1.0717,-1.0717,-1.0717,-1.0717,-1.0717,-1.0717,-1.0717,-1.0717,-1.0717,-1.0717,-1.0717,-1.0717,-1.0717,-1.0717,-1.0717,-1.0717,-1.0717,-1.0717,-1.0717,-1.0717,-1.0717,-1.0717,-1.0717,-1.0717,-1.0717,-1.0717,-1.0585,-1.0459,-1.0459,-1.0193,-0.9927,-0.9927,-0.9655,-0.9389,-0.9389,-0.9256,-0.9123,-0.9123,-0.8989,-0.8717,-0.859,-0.859,-0.859,-0.859,-0.859,-0.8717,-0.8851,-0.9256,-0.9655,-0.9927,-1.0326,-1.0585,-1.0717,-1.0717,-1.0717,-1.0717,-1.0717,-1.0717,-1.0717,-1.0717,-1.0717,-1.0717,-1.0717,-1.0717,-1.0717,-1.0717,-1.0717,-1.0717,-1.0717,-1.0717,-1.0585,-0.9782,-0.9782,-0.9933]},{"header":{"parameterUnit":"m.s-1","parameterCategory":1,"la1":30.6,"la2":28.766,"lo1":-90.7593,"lo2":-88.6598,"dx":0.0162,"dy":0.0183,"nx":116,"ny":114,"refTime":"2022-11-24T18:00:00:Z","depth":0,"parameterNumber":3,"parameterNumberName":"V-component_of_WINDS"},"data":[0.0,0.0,0.0,0.0,0.0,0.0,0.0,0.0,0.0,0.0,0.0,0.0,0.0,0.0,0.0,0.0,0.0,0.0,0.0,0.0,0.0,0.0,0.0,0.0,0.0,0.0,0.0,0.0,0.0,0.0,0.0,0.0,0.0,0.0,0.0,0.0,0.0,0.0,0.0,0.0,0.0,0.0,0.0,0.0,0.0,0.0,0.0,0.0,0.0,0.0,0.0,0.0,0.0,0.0,0.0,0.0,0.0,0.0,0.0,0.0,0.0,0.0,0.0,0.0,0.0,0.0,0.0,0.0,0.0,0.0,0.0,0.0,0.0,0.0,0.0,0.0,0.0,0.0,0.0,0.0,0.0,0.0,0.0,0.0,0.0,0.0,0.0,0.0,0.0,0.0,0.0,0.0,0.0,0.0,0.0,0.0,0.0,0.0,0.0,0.0,0.0,0.0,0.0,0.0,0.0,0.0,0.0,0.0,0.0,0.0,0.0,0.0,0.0,0.0,0.0,0.0,0.0,0.0,0.0,0.0,0.0,0.0,0.0,0.0,0.0,0.0,0.0,0.0,0.0,0.0,0.0,0.0,0.0,0.0,0.0,0.0,0.0,0.0,0.0,0.0,0.0,0.0,0.0,0.0,0.0,0.0,0.0,0.0,0.0,0.0,0.0,0.0,0.0,0.0,0.0,0.0,0.0,0.0,0.0,0.0,0.0,0.0,0.0,0.0,0.0,0.0,0.0,0.0,0.0,0.0,0.0,0.0,0.0,0.0,0.0,0.0,0.0,0.0,0.0,0.0,0.0,0.0,0.0,0.0,0.0,0.0,0.0,0.0,0.0,0.0,0.0,0.0,0.0,0.0,0.0,0.0,0.0,0.0,0.0,0.0,0.0,0.0,0.0,0.0,0.0,0.0,0.0,0.0,0.0,0.0,0.0,0.0,0.0,0.0,0.0,0.0,0.0,0.0,0.0,0.0,0.0,0.0,0.0,0.0,0.0,0.0,0.0,0.0,0.0,0.0,0.0,0.0,0.0,0.0,0.0,0.0,0.0,0.0,0.0,0.0,0.0,0.0,0.0,0.0,0.0,0.0,0.0,0.0,0.0,0.0,0.0,0.0,0.0,0.0,0.0,0.0,0.0,0.0,0.0,0.0,0.0,0.0,0.0,0.0,0.0,0.0,0.0,0.0,0.0,0.0,0.0,0.0,0.0,0.0,0.0,0.0,0.0,0.0,0.0,0.0,0.0,0.0,0.0,0.0,0.0,0.0,0.0,0.0,0.0,0.0,0.0,0.0,0.0,0.0,0.0,0.0,0.0,0.0,0.0,0.0,0.0,0.0,0.0,0.0,0.0,0.0,0.0,0.0,0.0,0.0,0.0,0.0,0.0,0.0,0.0,0.0,0.0,0.0,0.0,0.0,0.0,0.0,0.0,0.0,0.0,0.0,0.0,0.0,0.0,0.0,0.0,0.0,0.0,0.0,0.0,0.0,0.0,0.0,0.0,0.0,0.0,0.0,0.0,0.0,0.0,0.0,0.0,0.0,0.0,0.0,0.0,0.0,0.0,0.0,0.0,0.0,0.0,0.0,0.0,0.0,0.0,0.0,0.0,0.0,0.0,0.0,0.0,0.0,0.0,0.0,0.0,0.0,0.0,0.0,0.0,0.0,0.0,0.0,0.0,0.0,0.0,0.0,0.0,0.0,0.0,0.0,0.0,0.0,0.0,0.0,0.0,0.0,0.0,0.0,0.0,0.0,0.0,0.0,0.0,0.0,0.0,0.0,0.0,0.0,0.0,0.0,0.0,0.0,0.0,0.0,0.0,0.0,0.0,0.0,0.0,0.0,0.0,0.0,0.0,0.0,0.0,0.0,0.0,0.0,0.0,0.0,0.0,0.0,0.0,0.0,0.0,0.0,0.0,0.0,0.0,0.0,0.0,0.0,0.0,0.0,0.0,0.0,0.0,0.0,0.0,0.0,0.0,0.0,0.0,0.0,0.0,0.0,0.0,0.0,0.0,0.0,0.0,0.0,0.0,0.0,0.0,0.0,0.0,0.0,0.0,0.0,0.0,0.0,0.0,0.0,0.0,0.0,0.0,0.0,0.0,0.0,0.0,0.0,0.0,0.0,0.0,0.0,0.0,0.0,0.0,0.0,0.0,0.0,0.0,0.0,0.0,0.0,0.0,0.0,0.0,0.0,0.0,0.0,0.0,0.0,0.0,0.0,0.0,0.0,0.0,0.0,0.0,0.0,0.0,0.0,0.0,0.0,0.0,0.0,0.0,0.0,0.0,0.0,0.0,0.0,0.0,0.0,0.0,0.0,0.0,0.0,0.0,0.0,0.0,0.0,0.0,0.0,0.0,0.0,0.0,0.0,0.0,0.0,0.0,0.0,0.0,0.0,0.0,0.0,0.0,0.0,0.0,0.0,0.0,0.0,0.0,0.0,0.0,0.0,0.0,0.0,0.0,0.0,0.0,0.0,0.0,0.0,0.0,0.0,0.0,0.0,0.0,0.0,0.0,0.0,0.0,0.0,0.0,0.0,0.0,0.0,0.0,0.0,0.0,0.0,0.0,0.0,0.0,0.0,0.0,0.0,0.0,0.0,0.0,0.0,0.0,0.0,0.0,0.0,0.0,0.0,0.0,0.0,0.0,0.0,0.0,0.0,0.0,0.0,0.0,0.0,0.0,0.0,0.0,0.0,0.0,0.0,0.0,0.0,0.0,0.0,0.0,0.0,0.0,0.0,0.0,0.0,0.0,0.0,0.0,0.0,0.0,0.0,0.0,0.0,0.0,0.0,0.0,0.0,0.0,0.0,0.0,0.0,0.0,0.0,0.0,0.0,0.0,0.0,0.0,0.0,0.0,0.0,0.0,0.0,0.0,0.0,0.0,0.0,0.0,0.0,0.0,0.0,0.0,0.0,0.0,0.0,0.0,0.0,0.0,0.0,0.0,0.0,0.0,0.0,0.0,0.0,0.0,0.0,0.0,0.0,0.0,0.0,0.0,0.0,0.0,0.0,0.0,0.0,0.0,0.0,0.0,0.0,0.0,0.0,0.0,0.0,0.0,0.0,0.0,0.0,0.0,0.0,0.0,0.0,0.0,0.0,0.0,0.0,0.0,0.0,0.0,0.0,0.0,0.0,0.0,0.0,0.0,0.0,0.0,0.0,0.0,0.0,0.0,0.0,0.0,0.0,0.0,0.0,0.0,0.0,0.0,0.0,0.0,0.0,0.0,0.0,0.0,0.0,0.0,0.0,0.0,0.0,0.0,0.0,0.0,0.0,0.0,0.0,0.0,0.0,0.0,0.0,0.0,0.0,0.0,0.0,0.0,0.0,0.0,0.0,0.0,0.0,0.0,0.0,0.0,0.0,0.0,0.0,0.0,0.0,0.0,0.0,0.0,0.0,0.0,0.0,0.0,0.0,0.0,0.0,0.0,0.0,0.0,0.0,0.0,0.0,0.0,0.0,0.0,0.0,0.0,0.0,0.0,0.0,0.0,0.0,0.0,0.0,0.0,0.0,0.0,0.0,0.0,0.0,0.0,0.0,0.0,0.0,0.0,0.0,0.0,0.0,0.0,0.0,0.0,0.0,0.0,0.0,0.0,0.0,0.0,0.0,0.0,0.0,0.0,0.0,0.0,0.0,0.0,0.0,0.0,0.0,0.0,0.0,0.0,0.0,0.0,0.0,0.0,0.0,0.0,0.0,0.0,0.0,0.0,0.0,0.0,0.0,0.0,0.0,0.0,0.0,0.0,0.0,0.0,0.0,0.0,0.0,0.0,0.0,0.0,0.0,0.0,0.0,0.0,0.0,0.0,0.0,0.0,0.0,0.0,0.0,0.0,0.0,0.0,0.0,0.0,0.0,0.0,0.0,0.0,0.0,0.0,0.0,0.0,0.0,0.0,0.0,0.0,0.0,0.0,0.0,0.0,0.0,0.0,0.0,0.0,0.0,0.0,0.0,0.0,0.0,0.0,0.0,0.0,0.0,0.0,0.0,0.0,0.0,0.0,0.0,0.0,0.0,0.0,0.0,0.0,0.0,0.0,0.0,0.0,0.0,0.0,0.0,0.0,0.0,0.0,0.0,0.0,0.0,0.0,0.0,0.0,0.0,0.0,0.0,0.0,0.0,0.0,0.0,0.0,0.0,0.0,0.0,0.0,0.0,0.0,0.0,0.0,0.0,0.0,0.0,0.0,0.0,0.0,0.0,0.0,0.0,0.0,0.0,0.0,0.0,0.0,0.0,0.0,0.0,0.0,0.0,0.0,0.0,0.0,0.0,0.0,0.0,0.0,0.0,0.0,0.0,0.0,0.0,0.0,0.0,0.0,0.0,0.0,0.0,0.0,0.0,0.0,0.0,0.0,0.0,0.0,0.0,0.0,0.0,0.0,0.0,0.0,0.0,0.0,0.0,0.0,0.0,0.0,0.0,0.0,0.0,0.0,0.0,0.0,0.0,0.0,0.0,0.0,0.0,0.0,0.0,0.0,0.0,0.0,0.0,0.0,0.0,0.0,0.0,0.0,0.0,0.0,0.0,0.0,0.0,0.0,0.0,0.0,0.0,0.0,0.0,0.0,0.0,0.0,0.0,0.0,0.0,0.0,0.0,0.0,0.0,0.0,0.0,0.0,0.0,0.0,0.0,0.0,0.0,0.0,0.0,0.0,0.0,0.0,0.0,0.0,0.0,0.0,0.0,0.0,0.0,0.0,0.0,0.0,0.0,0.0,0.0,0.0,0.0,0.0,0.0,0.0,0.0,0.0,0.0,0.0,0.0,0.0,0.0,0.0,0.0,0.0,0.0,0.0,0.0,0.0,0.0,0.0,0.0,0.0,0.0,0.0,0.0,0.0,0.0,0.0,0.0,0.0,0.0,0.0,0.0,0.0,0.0,0.0,0.0,0.0,0.0,0.0,0.0,0.0,0.0,0.0,0.0,0.0,0.0,0.0,0.0,0.0,0.0,0.0,0.0,0.0,0.0,0.0,0.0,0.0,0.0,0.0,0.0,0.0,0.0,0.0,0.0,0.0,0.0,0.0,0.0,0.0,0.0,0.0,0.0,0.0,0.0,0.0,0.0,0.0,0.0,0.0,0.0,0.0,0.0,0.0,0.0,0.0,0.0,0.0,0.0,0.0,0.0,0.0,0.0,0.0,0.0,0.0,0.0,0.0,0.0,0.0,0.0,0.0,0.0,0.0,0.0,0.0,0.0,0.0,0.0,0.0,0.0,0.0,0.0,0.0,0.0,0.0,0.0,0.0,0.0,0.0,0.0,0.0,0.0,0.0,0.0,0.0,0.0,0.0,0.0,0.0,0.0,0.0,0.0,0.0,0.0,0.0,0.0,0.0,0.0,0.0,0.0,0.0,0.0,0.0,0.0,0.0,0.0,0.0,0.0,0.0,0.0,0.0,0.0,0.0,0.0,0.0,0.0,0.0,0.0,0.0,0.0,0.0,0.0,0.0,0.0,0.0,0.0,0.0,0.0,0.0,0.0,0.0,0.0,0.0,0.0,0.0,0.0,0.0,0.0,0.0,0.0,0.0,0.0,0.0,0.0,0.0,0.0,0.0,0.0,0.0,0.0,0.0,0.0,0.0,0.0,0.0,0.0,0.0,0.0,0.0,0.0,0.0,0.0,0.0,0.0,0.0,0.0,0.0,0.0,0.0,0.0,0.0,0.0,0.0,0.0,0.0,0.0,0.0,0.0,0.0,0.0,0.0,0.0,0.0,0.0,0.0,0.0,0.0,0.0,0.0,0.0,0.0,0.0,0.0,0.0,0.0,0.0,0.0,0.0,0.0,0.0,0.0,0.0,0.0,0.0,0.0,0.0,0.0,0.0,0.0,0.0,0.0,0.0,0.0,0.0,0.0,0.0,0.0,0.0,0.0,0.0,0.0,0.0,0.0,0.0,0.0,0.0,0.0,0.0,0.0,0.0,0.0,0.0,0.0,0.0,0.0,0.0,0.0,0.0,0.0,0.0,0.0,0.0,0.0,0.0,0.0,0.0,0.0,0.0,0.0,0.0,0.0,0.0,0.0,0.0,0.0,0.0,0.0,0.0,0.0,0.0,0.0,0.0,0.0,0.0,0.0,0.0,0.0,0.0,-2.5584,-2.2411,0.0,0.0,0.0,0.0,0.0,0.0,0.0,0.0,0.0,0.0,0.0,0.0,0.0,0.0,0.0,0.0,0.0,0.0,0.0,0.0,0.0,0.0,0.0,-0.9167,-0.9438,-0.9438,-0.9438,0.0,0.0,0.0,0.0,0.0,0.0,0.0,0.0,0.0,-0.962,-1.1042,-1.1821,-1.321,-1.5098,-1.3619,-1.2403,-1.1423,0.0,0.0,0.0,0.0,0.0,0.0,0.0,0.0,0.0,0.0,0.0,0.0,0.0,0.0,0.0,0.0,0.0,0.0,0.0,0.0,0.0,0.0,0.0,0.0,0.0,0.0,0.0,0.0,0.0,0.0,0.0,0.0,0.0,0.0,0.0,0.0,0.0,0.0,0.0,0.0,0.0,0.0,0.0,0.0,0.0,0.0,0.0,0.0,0.0,0.0,0.0,0.0,0.0,0.0,0.0,0.0,0.0,0.0,0.0,0.0,0.0,0.0,0.0,0.0,0.0,0.0,0.0,0.0,0.0,0.0,-2.8748,-2.6724,0.0,0.0,0.0,0.0,0.0,0.0,0.0,0.0,0.0,0.0,0.0,0.0,0.0,0.0,0.0,0.0,0.0,0.0,0.0,0.0,0.0,-0.9099,-0.9114,-0.987,-1.0508,-1.0744,-1.0541,-1.0406,-1.0406,-0.9574,0.0,0.0,0.0,0.0,-0.9078,-0.9213,-1.0703,-1.3583,-1.4559,-1.6428,-1.9102,-1.9337,-1.8493,-1.6702,-1.547,0.0,0.0,0.0,0.0,0.0,0.0,0.0,0.0,0.0,0.0,0.0,0.0,0.0,0.0,0.0,0.0,0.0,0.0,0.0,0.0,0.0,0.0,0.0,0.0,0.0,0.0,0.0,0.0,0.0,0.0,0.0,0.0,0.0,0.0,0.0,0.0,0.0,0.0,0.0,0.0,0.0,0.0,0.0,0.0,0.0,0.0,0.0,0.0,0.0,0.0,0.0,0.0,0.0,0.0,0.0,0.0,0.0,0.0,0.0,0.0,0.0,0.0,0.0,-3.2011,-3.325,-3.3728,-3.4297,-3.5509,-3.6832,-3.2834,-3.2334,-3.3859,-2.8795,0.0,0.0,0.0,0.0,0.0,0.0,0.0,0.0,0.0,0.0,0.0,0.0,0.0,0.0,0.0,0.0,0.0,0.0,0.0,-1.0076,-1.073,-1.1521,-1.2517,-1.3785,-1.2754,-1.2009,-1.2009,-1.0656,0.0,0.0,0.0,-0.9213,-0.9832,-1.0487,-1.1975,-1.4377,-1.9192,-2.2725,-2.5012,-2.5642,-2.5475,-2.4414,-1.9521,-1.7031,-1.638,0.0,0.0,0.0,0.0,0.0,0.0,0.0,0.0,0.0,0.0,0.0,0.0,0.0,0.0,0.0,0.0,0.0,0.0,0.0,0.0,0.0,0.0,0.0,0.0,0.0,0.0,0.0,0.0,0.0,0.0,0.0,0.0,0.0,0.0,0.0,0.0,0.0,0.0,0.0,0.0,0.0,-2.3619,-2.3894,0.0,0.0,0.0,0.0,0.0,0.0,0.0,0.0,0.0,0.0,0.0,0.0,0.0,-2.9964,-3.0664,-3.3365,-3.4661,-3.4413,-3.7166,-3.8763,-3.9357,-4.0644,-4.1263,-4.1391,-4.1409,0.0,-3.5679,-3.5448,0.0,0.0,0.0,0.0,0.0,0.0,0.0,0.0,0.0,0.0,0.0,0.0,0.0,0.0,0.0,0.0,0.0,0.0,0.0,0.0,0.0,-1.3679,-1.5126,-1.6126,-1.6067,-1.5415,-1.4188,-1.3092,0.0,0.0,-1.0128,-1.0487,-1.1299,-1.2415,-1.5155,-1.9519,-2.4068,-2.6754,-2.7763,-2.8028,-2.8065,-2.7629,-2.5173,-2.2815,-2.0565,-1.894,0.0,0.0,0.0,0.0,0.0,0.0,0.0,0.0,0.0,0.0,0.0,0.0,0.0,0.0,0.0,0.0,0.0,0.0,0.0,0.0,0.0,0.0,0.0,0.0,0.0,0.0,0.0,0.0,0.0,0.0,0.0,0.0,0.0,0.0,0.0,0.0,0.0,0.0,0.0,-2.267,-2.401,-2.4863,-2.3289,-2.1628,0.0,0.0,0.0,0.0,0.0,0.0,0.0,0.0,0.0,-3.2583,-3.3728,-3.4937,-3.6291,-3.858,-3.9738,-3.9682,-4.1617,-4.2723,-4.3145,-4.4171,-4.461,-4.4509,-4.497,-4.3939,-4.1665,-3.8659,-3.637,-3.4462,0.0,0.0,0.0,0.0,-3.207,-3.2273,0.0,0.0,0.0,0.0,0.0,0.0,0.0,0.0,0.0,0.0,0.0,0.0,-1.4032,-1.6044,-1.7709,-1.8659,-1.8676,-1.8067,-1.6761,-1.5266,-1.3734,-1.2043,-1.14,-1.1637,-1.2855,-1.5426,-1.9316,-2.4526,-2.7706,-2.9364,-2.9533,-2.9533,-2.9533,-2.9533,-2.9533,-2.7739,-2.457,-2.3009,-2.0853,-1.8353,0.0,0.0,0.0,0.0,0.0,0.0,0.0,0.0,0.0,0.0,0.0,0.0,0.0,0.0,0.0,0.0,0.0,0.0,0.0,0.0,0.0,0.0,0.0,0.0,0.0,0.0,0.0,0.0,0.0,0.0,0.0,0.0,0.0,0.0,0.0,0.0,0.0,-2.4513,-2.5382,-2.6212,-2.5633,-2.4249,0.0,0.0,0.0,0.0,0.0,0.0,-3.2154,-3.315,-3.4721,-3.7118,-3.8427,-3.9812,-4.1286,-4.2888,-4.3756,-4.385,-4.4809,-4.545,-4.5805,-4.634,-4.6709,-4.6876,-4.6965,-4.6891,-4.6361,-4.1876,-4.0274,-4.0323,-3.7725,-3.6531,-3.6531,-3.8048,-3.8299,-3.84,0.0,0.0,0.0,0.0,0.0,0.0,0.0,0.0,0.0,0.0,0.0,-1.575,-1.7209,-1.8449,-1.9899,-2.172,-1.965,-1.8673,-1.9706,-1.6391,-1.4387,-1.4325,-1.2246,-1.2145,-1.4325,-2.0027,-2.4458,-2.757,-2.9228,-3.0412,-3.1089,-3.1089,-3.1089,-3.1089,-3.1089,-2.9984,-2.804,-2.6185,-2.4674,-2.3123,-1.8454,0.0,0.0,0.0,0.0,0.0,0.0,0.0,0.0,0.0,0.0,0.0,0.0,0.0,0.0,0.0,0.0,0.0,0.0,0.0,0.0,0.0,0.0,0.0,0.0,0.0,0.0,0.0,0.0,0.0,0.0,0.0,0.0,0.0,0.0,0.0,0.0,0.0,0.0,-2.9042,-3.0432,0.0,0.0,0.0,0.0,-3.0309,-3.185,-3.3848,-3.6288,-3.8251,-4.008,-4.1697,-4.3595,-4.4544,-4.4462,-4.5374,-4.5834,-4.5834,-4.6118,-4.6581,-4.7312,-4.7345,-4.7747,-4.8383,-4.8383,-4.7981,-4.7278,-4.6394,-4.4438,-4.2017,-4.2356,-4.0775,-3.8772,-4.2334,-4.3719,-4.427,0.0,0.0,0.0,-0.8276,-0.8356,-0.8441,-0.8655,-0.9342,-1.0098,-1.0944,-1.3398,-1.5594,-1.7044,-1.967,-2.1789,-2.2899,-2.3257,-2.2787,-2.139,-1.9202,-1.7771,-1.7354,-1.5629,-1.6665,-2.0839,-2.4425,-2.7232,-2.9296,-3.0311,-3.119,-3.1901,-3.1901,-3.2138,-3.2611,-3.2611,-3.1955,-3.0796,-2.9154,-2.74,-2.5513,-2.3283,-1.9959,0.0,0.0,0.0,0.0,0.0,0.0,0.0,0.0,0.0,0.0,0.0,0.0,0.0,0.0,0.0,0.0,0.0,0.0,0.0,0.0,0.0,0.0,0.0,0.0,0.0,0.0,0.0,0.0,0.0,0.0,0.0,0.0,0.0,0.0,0.0,0.0,0.0,-3.1092,-3.262,0.0,-3.0744,-3.3008,-3.4868,-3.5346,-3.7632,-3.9852,-4.1929,-4.2641,-4.3506,-4.4467,-4.574,-4.6396,-4.6333,-4.6999,-4.7428,-4.7428,-4.7398,-4.7564,-4.7797,-4.7797,-4.793,-4.8196,-4.842,-4.8617,-4.8785,-4.874,-4.7732,-4.6267,-4.6441,-4.6447,-4.6514,-4.7818,-4.8349,-4.858,0.0,-0.8164,0.0,-0.8356,-0.8422,-0.8504,-0.8748,-0.9566,-1.0663,-1.1987,-1.4369,-1.6759,-1.8784,-2.1178,-2.3027,-2.3979,-2.4873,-2.4746,-2.3271,-2.1323,-2.0295,-2.0399,-1.9452,-2.0933,-2.5135,-2.7199,-2.8958,-3.048,-3.119,-3.1799,-3.2313,-3.2544,-3.2916,-3.3423,-3.3423,-3.3119,-3.2577,-3.136,-2.9837,-2.8078,-2.659,-2.3613,-1.9858,0.0,0.0,0.0,0.0,0.0,0.0,0.0,0.0,0.0,0.0,0.0,0.0,0.0,0.0,0.0,0.0,0.0,0.0,0.0,0.0,0.0,0.0,0.0,0.0,0.0,0.0,0.0,0.0,0.0,0.0,0.0,0.0,0.0,0.0,-2.9927,-3.2195,-3.2467,-3.5234,-3.6331,-3.428,-3.7242,-3.9607,-4.0282,-4.208,-4.3761,-4.5263,-4.5563,-4.5868,-4.6208,-4.7298,-4.7894,-4.7863,-4.8497,-4.8995,-4.9227,-4.8929,-4.8862,-4.9094,-4.8862,-4.8763,-4.8763,-4.9326,-4.9758,-5.0226,-5.0693,-5.0593,-5.0126,-4.9692,-5.0259,-5.1293,-5.1527,-5.1829,-5.2131,-0.904,-0.8468,-0.82,-0.8441,-0.8592,-0.8757,-0.8886,-1.0178,-1.1868,-1.3885,-1.6464,-1.9284,-2.2432,-2.286,-2.3533,-2.5045,-2.4211,-2.4147,-2.5412,-2.2664,-2.172,-2.3376,-2.3545,-2.4594,-2.6759,-2.8281,-2.977,-3.1224,-3.1935,-3.2347,-3.2374,-3.3085,-3.3457,-3.3491,-3.3491,-3.3457,-3.3389,-3.2645,-3.1935,-3.0987,-2.8044,-2.6759,-2.615,0.0,0.0,0.0,0.0,0.0,0.0,0.0,0.0,0.0,0.0,0.0,0.0,0.0,0.0,0.0,0.0,0.0,0.0,0.0,0.0,0.0,0.0,0.0,0.0,0.0,0.0,0.0,0.0,0.0,0.0,0.0,0.0,0.0,-2.9624,-3.2254,-3.4108,-3.3508,-3.857,-4.1154,-3.8788,-4.1832,-4.429,-4.5023,-4.4876,-4.5114,-4.6029,-4.6795,-4.7195,-4.7162,-4.856,-4.926,-4.9094,-4.9856,-5.0551,-5.1247,-5.0551,-5.0618,-5.1247,-5.0585,-5.0286,-5.032,-5.1223,-5.1522,-5.145,-5.26,-5.3161,-5.3301,-5.2088,-5.1918,-5.2539,-5.3202,-5.4044,-5.4822,-0.904,-0.8499,-0.8232,-0.8403,-0.8567,-0.8712,-0.8806,-1.05,-1.2058,-1.2927,-1.5727,-1.8416,-2.0383,-2.1977,-2.3394,-2.4664,-2.5697,-2.6042,-2.5414,-2.4171,-2.3661,-2.4154,-2.6793,-2.8552,-2.9161,-3.0108,-3.1055,-3.1968,-3.2171,-3.2814,-3.3897,-3.41,-3.4472,-3.5013,-3.5013,-3.4709,-3.4167,-3.3964,-3.3457,-3.2645,-3.0717,-2.8653,-2.6522,0.0,0.0,0.0,0.0,0.0,0.0,0.0,0.0,0.0,0.0,0.0,0.0,0.0,0.0,0.0,0.0,0.0,0.0,0.0,0.0,0.0,0.0,0.0,0.0,0.0,0.0,0.0,0.0,0.0,0.0,0.0,-3.0797,-3.4021,-3.3411,-3.587,-3.8386,-4.0177,-4.1814,-4.3103,-4.3899,-4.4997,-4.5918,-4.6529,-4.6466,-4.6766,-4.7561,-4.7699,-4.7768,-4.7768,-4.8663,-4.9161,-4.9094,-4.9856,-5.032,-5.0518,-5.0817,-5.1082,-5.128,-5.1612,-5.1777,-5.1777,-5.2187,-5.2624,-5.3052,-5.3569,-5.4,-5.4349,-5.3456,-5.3413,-5.3964,-5.4162,-5.4328,-5.4601,-0.9133,-0.8773,-0.8562,-0.8401,-0.8542,-0.8689,-0.87,-1.0596,-1.2354,-1.3352,-1.5833,-1.8489,-2.1023,-2.2264,-2.3522,-2.5124,-2.6564,-2.6947,-2.5848,-2.5816,-2.5982,-2.6353,-2.8755,-3.0412,-3.1021,-3.1427,-3.2002,-3.2747,-3.3051,-3.366,-3.4506,-3.481,-3.5216,-3.5622,-3.5622,-3.5385,-3.4945,-3.4607,-3.4235,-3.3761,-3.2577,-3.0886,-2.8924,-2.801,-2.659,-2.4966,-2.4052,-2.3477,-2.3071,-2.2023,0.0,0.0,0.0,0.0,0.0,0.0,0.0,0.0,0.0,0.0,0.0,0.0,0.0,0.0,0.0,0.0,0.0,0.0,0.0,0.0,0.0,0.0,0.0,0.0,-3.4663,-3.8133,-3.8133,-3.9645,-4.1443,-4.3281,-4.4344,-4.5256,-4.6116,-4.6858,-4.7412,-4.7595,-4.7658,-4.7825,-4.8098,-4.8066,-4.8001,-4.8001,-4.9028,-4.9723,-5.0021,-5.1048,-5.1877,-5.2473,-5.2572,-5.2804,-5.3102,-5.3235,-5.3268,-5.3301,-5.3817,-5.4183,-5.4509,-5.5102,-5.5502,-5.5472,0.0,0.0,0.0,0.0,-5.5572,-5.5497,-0.9438,-0.928,-0.9157,-0.859,-0.8737,-0.8903,-0.8827,-1.0788,-1.2846,-1.4559,-1.6439,-1.9085,-2.2894,-2.3003,-2.3719,-2.59,-2.6939,-2.7278,-2.6922,-2.7634,-2.8347,-2.9059,-2.9905,-3.0954,-3.228,-3.2374,-3.278,-3.3525,-3.4167,-3.4539,-3.4641,-3.5318,-3.5622,-3.5622,-3.5622,-3.5622,-3.5588,-3.4912,-3.4607,-3.4539,-3.3829,-3.3085,-3.2171,-3.018,-2.9401,-2.9093,-2.6996,-2.5812,-2.5065,-2.3748,0.0,0.0,0.0,0.0,0.0,0.0,0.0,0.0,0.0,0.0,0.0,0.0,0.0,0.0,0.0,0.0,0.0,0.0,0.0,0.0,0.0,0.0,0.0,0.0,-3.9301,-4.2837,-4.2938,-4.3346,-4.3764,-4.4229,-4.6046,-4.7098,-4.6651,-4.7892,-4.8547,-4.8227,-4.8356,-4.8292,-4.8001,-4.8001,0.0,0.0,0.0,-5.0651,-5.128,-5.2771,-5.4195,-5.5487,-5.4924,-5.499,-5.562,-5.5024,-5.4759,-5.4792,-5.5605,-5.5904,-5.5786,-5.6796,-5.702,-5.668,-5.5514,-5.5381,-5.6046,-5.6854,-5.712,-5.7044,-1.0758,-1.0294,-0.9948,-0.9791,-1.0002,-1.0233,-1.022,-1.2237,-1.4092,-1.5048,-1.7054,-1.9341,-2.1879,-2.2321,-2.3201,-2.5139,-2.6887,-2.8329,-2.9357,-2.9454,-2.9627,-2.9905,-3.1157,-3.2002,-3.2273,-3.2882,-3.3558,-3.4269,-3.4438,-3.481,-3.5419,-3.5554,-3.5622,-3.5622,-3.5622,-3.5622,-3.5622,-3.5453,-3.5385,-3.5318,-3.4573,-3.3863,-3.3085,-3.2036,-3.167,-3.1495,-3.048,-3.0006,-2.9837,-2.9567,-2.8281,-2.6691,-2.6489,-2.4702,0.0,0.0,0.0,0.0,0.0,0.0,0.0,0.0,0.0,0.0,0.0,0.0,0.0,0.0,0.0,0.0,0.0,0.0,0.0,-3.7742,-4.1066,-4.3845,-4.4999,-4.5755,-4.6248,-4.654,-4.6709,-4.7073,-4.7768,-4.8256,-4.842,-4.8066,-4.8066,-4.8066,-4.8001,-4.8001,-4.8001,-4.8001,-5.0192,-5.1356,-5.128,-5.3446,-5.4608,-5.4725,-5.5189,0.0,-5.5653,-5.6084,-5.6249,-5.6282,-5.6492,-5.6558,-5.6481,-5.6724,-5.7122,-5.7475,-5.6691,-5.6425,-5.6658,-5.7387,-5.7653,-5.7752,-1.1566,-1.1017,-1.0473,-1.0084,-1.0266,-1.0495,-1.0511,-1.2283,-1.4039,-1.5162,-1.707,-1.9208,-2.1555,-2.1805,-2.2529,-2.4381,-2.6134,-2.7807,-2.9357,-2.9648,-3.0056,-3.0649,-3.1286,-3.2029,-3.2814,-3.322,-3.3931,-3.5047,-3.5047,-3.525,-3.5622,-3.5622,-3.5622,-3.5622,-3.5622,-3.5622,-3.5622,-3.5622,-3.5622,-3.5588,-3.5216,-3.4844,-3.4404,-3.3254,-3.2611,-3.228,-3.1867,-3.1495,-3.1123,-3.0784,-3.0142,-2.9394,-2.88,-2.7496,-2.5646,0.0,0.0,0.0,0.0,0.0,0.0,0.0,0.0,0.0,0.0,0.0,0.0,0.0,0.0,-3.2798,-3.4693,0.0,-3.9224,-4.0463,-4.3416,-4.5578,-4.5733,-4.6877,-4.7694,-4.76,-4.7438,-4.7505,-4.8065,-4.8356,-4.8483,-4.8356,-4.8292,-4.8292,-4.8356,-4.8131,-4.8166,-4.8531,-5.0456,-5.1752,-5.234,-5.4236,-5.548,-5.5888,-5.606,-5.6226,-5.6454,-5.6591,-5.668,-5.668,-5.668,-5.668,-5.6713,-5.7233,-5.783,-5.8462,-5.8096,-5.793,-5.7997,-5.8362,-5.8495,-5.8594,-1.1991,-1.1566,-1.0981,-1.038,-1.0568,-1.081,-1.081,-1.2248,-1.3811,-1.5155,-1.6759,-1.8651,-2.0954,-2.0927,-2.1567,-2.3522,-2.5144,-2.685,-2.8676,-2.9504,-3.0314,-3.1117,-3.1207,-3.1847,-3.3111,-3.3457,-3.4201,-3.5385,-3.5554,-3.5622,-3.5622,-3.5622,-3.5622,-3.5622,-3.5622,-3.5622,-3.5622,-3.5622,-3.5622,-3.5622,-3.5622,-3.5622,-3.5487,-3.4303,-3.3288,-3.2476,-3.2381,-3.1799,-3.1089,-3.0514,-3.0717,-3.105,-3.0055,-2.9566,-2.8669,-2.5346,-2.4868,0.0,0.0,0.0,0.0,0.0,0.0,0.0,0.0,-2.7791,-2.9145,-3.3288,-3.525,-3.679,-3.8821,-4.068,-4.2294,-4.3296,-4.5626,-4.7068,-4.6289,-4.7505,-4.8292,-4.8001,-4.8066,-4.8066,-4.8001,-4.8292,-4.8547,-4.8576,-4.8483,-4.855,-4.8904,-4.859,-4.8795,-4.9693,-5.1192,-5.259,-5.3817,-5.524,-5.6421,-5.7364,-5.6987,-5.6911,-5.7214,-5.6911,-5.69,-5.7066,-5.7122,-5.7188,-5.7221,-5.7975,-5.8673,-5.9339,-5.9339,-5.9505,-5.9771,-5.9605,-5.9638,-5.9871,-1.1927,-1.1867,-1.1755,-1.1602,-1.1973,-1.2269,-1.2269,-1.3303,-1.4386,-1.5261,-1.6339,-1.753,-1.8896,-1.8902,-1.9845,-2.2346,-2.4215,-2.621,-2.8565,-3.0007,-3.0811,-3.0952,-3.1719,-3.2198,-3.2251,-3.3651,-3.4438,-3.4607,-3.5284,-3.5622,-3.5622,-3.5622,-3.5622,-3.5622,-3.5622,-3.5622,-3.5622,-3.5622,-3.5622,-3.5622,-3.5622,-3.5622,-3.5588,-3.5453,-3.4506,-3.3186,-3.251,-3.1799,-3.119,-3.1089,-3.1123,-3.119,-3.105,-3.0711,-3.0046,-2.8641,-2.6847,-2.5051,-2.3443,-2.3597,-2.5115,-2.8748,-2.8526,-2.9358,0.0,-3.5625,-3.4258,-3.9424,-4.1123,-4.2346,-4.4471,-4.509,-4.5719,-4.7143,-4.7173,-4.7139,-4.7704,-4.7934,-4.8066,-4.8001,-4.8227,-4.8292,-4.8001,-4.8292,-4.8356,-4.8131,-4.8066,-4.8527,-4.9678,-4.9746,-5.0351,-5.1896,-5.3551,-5.4736,-5.5443,-5.6566,-5.7264,-5.7588,-5.7139,-5.6987,-5.7063,-5.7139,-5.7582,-5.8251,-5.8685,-5.8873,-5.8873,-5.8814,-5.9198,-5.9893,-5.9893,-6.0738,-6.1799,-6.1086,-6.1335,-6.1998,-1.1927,-1.1906,-1.1927,-1.1961,-1.2271,-1.253,-1.2678,-1.3089,-1.3731,-1.4688,-1.5249,-1.6053,-1.735,-1.7754,-1.8513,-2.0012,-2.2795,-2.5278,-2.7183,-2.9409,-3.0749,-3.0912,-3.118,-3.159,-3.2075,-3.2757,-3.3381,-3.3863,-3.4607,-3.4979,-3.4979,-3.5419,-3.5622,-3.5622,-3.5622,-3.5622,-3.5622,-3.5622,-3.5622,-3.5622,-3.5622,-3.5622,-3.5622,-3.5622,-3.4945,-3.3931,-3.3186,-3.2171,0.0,-3.119,-3.092,-3.0649,-3.1055,-3.061,-2.9748,-2.89,-2.7988,-2.7538,-2.8576,-2.8779,-2.9234,-3.1405,-3.216,-3.3287,-3.6853,-3.7133,-3.7912,-4.2459,-4.4299,-4.5368,-4.6248,-4.6775,-4.7139,-4.7338,-4.7631,-4.7894,-4.7968,-4.8196,-4.8292,-4.8292,-4.8227,-4.8196,-4.8001,-4.8131,-4.8356,-4.8639,-4.8852,-4.9318,-5.0289,-5.0882,-5.1729,-5.2975,-5.4534,-5.5722,-5.6609,-5.734,-5.7808,-5.8065,-5.7514,-5.7406,-5.7848,-5.8174,-5.8822,-5.9756,-6.002,-6.0351,-6.0757,-6.068,-6.0998,-6.1593,-6.1593,-6.2152,-6.2781,-6.1983,-6.1914,-6.2345,-1.1884,-1.1884,-1.1918,-1.2066,-1.2271,-1.2451,-1.2665,-1.2773,-1.3095,-1.3928,-1.4198,-1.4692,-1.5742,-1.6278,-1.6928,-1.7822,-2.1102,-2.3917,-2.5844,-2.8666,-3.0434,-3.079,-3.079,-3.1065,-3.1691,-3.1967,-3.242,-3.3043,-3.3829,-3.4201,-3.4201,-3.4945,-3.5318,-3.5318,-3.552,-3.5622,-3.5622,-3.5622,-3.5622,-3.5622,-3.5622,-3.5622,-3.5622,-3.5622,-3.4912,-3.3795,-3.3051,-3.1968,-3.0784,-3.0176,-2.96,-2.9296,-3.004,-2.9527,-2.8669,-2.8576,-2.8331,-2.8545,-3.0834,-3.1622,-3.2173,-3.371,-3.5365,-3.6814,-3.762,-3.8681,-4.045,-4.417,-4.5799,-4.6749,-4.7275,-4.7934,-4.8133,-4.7603,-4.8129,-4.8525,-4.8034,-4.8196,-4.8356,-4.8356,-4.8131,-4.8001,-4.8001,-4.8066,-4.8423,-4.9221,-4.9742,-5.0447,-5.1395,-5.2493,-5.3549,-5.4567,-5.5792,-5.6919,-5.7947,-5.8078,-5.828,-5.8632,-5.7993,-5.8095,-5.8834,-5.9575,-6.0364,-6.117,-6.1302,-6.1673,-6.2146,-6.2146,-6.2336,-6.2615,-6.2615,-6.29,-6.3349,-6.2732,-6.2699,-6.2949,-1.179,-1.179,-1.1854,-1.2066,-1.2107,-1.221,-1.2471,-1.2665,-1.2863,-1.3127,-1.3365,-1.3642,-1.3934,-1.4179,-1.4874,-1.6331,-1.9107,-2.2029,-2.4944,-2.8081,-3.0016,-3.0477,-3.0797,-3.0912,-3.0742,-3.1616,-3.2109,-3.2143,-3.3009,-3.3423,-3.3457,-3.4201,-3.4539,-3.4539,-3.5284,-3.5622,-3.5622,-3.5622,-3.5622,-3.5622,-3.5622,-3.5622,-3.5622,-3.5622,-3.4269,-3.2239,-3.1529,-3.0784,-2.9803,-2.7571,-2.6826,-2.6928,-2.7672,-2.73,-2.6872,-2.8271,-2.7644,-2.6809,-2.8404,-3.0261,-3.2729,-3.6546,-3.8302,-3.9819,-4.2526,-4.2037,-4.1862,-4.4697,-4.5452,-4.6313,-4.8327,-4.8894,-4.9061,-4.9061,-4.9061,-4.8829,-4.81,-4.8001,-4.8001,-4.8001,-4.8001,-4.8001,-4.8001,-4.8292,-4.8785,-4.9519,-5.0517,-5.1857,-5.3513,-5.4857,-5.6153,-5.7466,-5.8005,-5.8685,-5.9516,-5.8978,-5.8841,-5.9284,-5.8841,-5.9114,-5.994,-6.1562,-6.2324,-6.2393,-6.2896,-6.3015,-6.2863,-6.2634,-6.2513,-6.2313,-6.2313,-6.2787,-6.3349,-6.3349,-6.3822,-6.4464,-1.179,-1.179,-1.1854,-1.2066,-1.2107,-1.2128,-1.2231,-1.2291,-1.2385,-1.2436,-1.253,0.0,0.0,0.0,0.0,0.0,-1.8609,-2.1263,-2.4183,-2.674,-2.8633,-2.9748,-2.9862,-3.0175,-3.0675,-3.1024,-3.1206,-3.1288,-3.2109,-3.2521,-3.2555,-3.3381,-3.3761,-3.3795,-3.4032,-3.4167,-3.4167,-3.4167,-3.4167,-3.4167,-3.4167,-3.4167,-3.4201,-3.4675,-3.3186,-3.0683,0.0,-2.8484,-2.7807,-2.7537,-2.7097,-2.6826,-2.7571,-2.7083,-2.6213,-2.5913,-2.77,-2.991,-3.0784,-3.2924,-3.5581,-3.7849,-3.875,-3.9595,-4.1426,-4.214,-4.2956,-4.492,-4.4814,-4.4789,-4.5962,-4.6356,-4.6651,-4.7078,-4.8265,-4.9193,-4.9425,-4.863,-4.8232,-4.8992,-4.843,-4.8396,-4.9281,-4.9251,-4.9416,-4.9877,-5.1473,-5.2887,-5.3977,-5.5537,-5.6905,-5.7973,-5.866,-5.9307,-5.9914,-5.9485,-5.9594,-6.025,-6.0635,-6.119,-6.1988,-6.2823,-6.3485,-6.3974,-6.4148,-6.4039,-6.3785,-6.3712,-6.3491,-6.3193,-6.3193,-6.333,-6.3563,-6.4042,-6.4384,-6.4684,-1.179,-1.179,-1.1833,-1.1961,-1.2045,0.0,0.0,0.0,0.0,0.0,0.0,0.0,0.0,0.0,0.0,0.0,0.0,-1.9849,-2.2294,-2.4813,-2.6706,-2.7827,-2.8163,-2.8566,-2.9143,-2.9143,-2.9415,-3.0068,-3.0656,-3.12,-3.1739,-3.2604,-3.3017,-3.3017,-3.3288,-3.3423,-3.3423,-3.3423,-3.3558,-3.3728,-3.2949,-3.278,-3.2949,-3.2341,-3.0446,0.0,-2.6691,-2.5406,-2.4425,-2.5203,-2.5135,-2.4966,-2.6218,-2.6282,-2.595,-2.639,-2.8608,-3.1399,-3.3756,-3.5765,-3.7724,-3.9886,-4.0466,-4.0882,-4.2482,-4.3466,-4.4452,-4.5961,-4.4687,-4.3782,-4.5147,-4.531,-4.5276,-4.544,-4.7374,-4.889,-4.9088,-4.8067,-4.7803,-4.9227,-4.8795,-4.8827,-4.9843,-5.0284,-5.075,-5.107,-5.2735,-5.4092,-5.4995,-5.6526,-5.776,-5.8588,-5.9241,-5.9783,-6.0107,-6.0194,-6.0587,-6.132,-6.2123,-6.2752,-6.3206,-6.3795,-6.425,-6.4706,-6.4706,-6.4533,-6.418,-6.418,-6.3965,-6.36,-6.36,-6.3772,-6.4048,-6.4531,-6.4876,-6.5179,-1.179,-1.179,-1.179,0.0,0.0,0.0,0.0,0.0,0.0,0.0,0.0,0.0,0.0,0.0,0.0,0.0,0.0,0.0,-1.9359,-2.2249,-2.418,-2.4911,-2.5711,-2.6179,-2.6243,-2.6279,-2.7014,-2.849,-2.8639,-2.9383,-3.0796,-3.1624,-3.2002,-3.2036,-3.2747,-3.3051,-3.3051,-3.3051,-3.3457,-3.3897,-3.1765,-3.1326,-3.163,-2.8789,-2.6285,-2.4222,-2.3579,-2.1854,-2.0035,-2.094,-2.138,-2.1921,-2.4154,-2.531,-2.6444,-2.9609,-3.0513,-3.1539,-3.6851,-3.8435,-3.9313,-4.2526,-4.3099,-4.3448,-4.5567,-4.5891,-4.6079,-4.7475,-4.4818,-4.3037,-4.5439,-4.5437,-4.4784,-4.4066,-4.6453,-4.8217,-4.7564,-4.6778,-4.7011,-4.8961,-4.9193,-4.936,-4.9655,-5.1324,-5.253,-5.2951,-5.4115,-5.5312,-5.6503,-5.7855,-5.8816,-5.9317,-5.9814,-6.0107,-6.0142,-6.0984,-6.1757,-6.2459,-6.3267,-6.3653,-6.3688,-6.439,-6.4706,-6.4706,-6.4706,-6.4533,-6.418,-6.418,-6.3999,-6.3669,-6.3669,-6.4117,-6.4772,-6.4807,-6.529,-6.5945,0.0,0.0,0.0,0.0,0.0,0.0,0.0,0.0,0.0,0.0,0.0,0.0,0.0,0.0,0.0,0.0,0.0,0.0,-1.7716,-1.9049,-2.0681,-2.2621,-2.3449,-2.4347,-2.5445,-2.5976,-2.6476,-2.695,-2.7056,-2.7293,-2.7734,-2.8009,-2.8112,-2.8112,-2.8315,-2.8416,-2.8416,-2.8416,-2.8518,-2.8586,-2.7469,-2.7131,-2.7232,-2.6454,-2.4458,-2.2118,-2.2462,-2.0771,-1.8718,-2.1211,-2.3789,-2.6421,-2.9168,-3.0116,-3.0526,-3.1941,-3.4121,-3.6387,-3.7584,-3.9944,-4.1977,-4.1959,-4.2427,-4.3263,-4.4713,-4.5043,-4.4861,-4.4367,-4.161,-3.8972,-3.7907,-3.9675,-4.1422,-4.1999,-4.6389,-5.0014,-5.0975,-4.9948,-4.9554,-5.0618,-5.0492,-5.0626,-5.156,-5.2292,-5.3156,-5.4023,-5.4551,-5.5375,-5.6798,-5.7335,-5.8258,-5.9613,-5.9814,-6.0223,-6.0984,-6.2319,-6.3091,-6.3302,-6.4074,-6.4425,-6.4425,-6.4463,-6.4568,-6.4706,-6.4568,-6.4358,-6.418,-6.418,-6.4312,-6.4427,-6.4427,-6.4876,-6.5635,-6.6186,-6.6531,-6.6773,0.0,0.0,0.0,0.0,0.0,0.0,0.0,0.0,0.0,0.0,0.0,0.0,0.0,0.0,0.0,0.0,0.0,0.0,0.0,-1.6773,-1.8021,-1.9484,-2.0223,-2.0988,-2.1845,-2.2189,-2.3084,-2.4477,-2.3873,-2.4473,-2.6084,-2.5542,-2.5406,-2.571,-2.571,-2.571,-2.571,-2.571,-2.5913,0.0,0.0,-2.4357,-2.4492,-2.3173,-2.1617,-2.0196,-2.0297,-2.0116,-2.0428,-2.4242,-2.6855,-2.8896,-3.1199,-3.2007,-3.2542,-3.4705,-3.696,-3.8998,-4.0378,-4.2077,-4.3504,-4.349,-4.3648,-4.3722,-4.3517,-4.3456,-4.2848,-4.0736,-3.7807,-3.537,-3.4561,-3.7196,-3.9617,-4.017,-4.5406,-4.9743,-5.0966,-4.9776,-4.945,-5.1115,-5.0926,-5.1094,-5.2232,-5.2932,-5.3729,-5.4397,-5.4717,-5.5501,-5.7057,-5.7289,-5.8177,-5.9908,-6.0294,-6.1095,-6.2283,-6.3161,-6.3758,-6.4109,-6.4495,-6.4706,-6.4706,-6.4463,-6.4498,-6.4706,-6.4428,-6.4251,-6.4215,-6.4491,-6.462,-6.4738,-6.5083,-6.5704,-6.6428,-6.6842,-6.7187,-6.7566,0.0,0.0,0.0,0.0,0.0,0.0,0.0,0.0,0.0,-1.2884,-1.2727,-1.2689,0.0,0.0,0.0,0.0,0.0,0.0,0.0,0.0,0.0,-1.6175,-1.683,-1.7286,-1.7445,-1.7586,-1.891,-2.1457,-2.031,-2.1378,-2.4437,-2.3245,-2.3004,-2.3613,-2.3613,-2.3613,-2.3613,-2.3613,-2.4019,-2.4526,-2.253,-2.2158,-2.2496,0.0,-1.8741,-1.8674,-1.8132,-1.9897,-2.3227,-2.786,-2.9769,-3.0475,-3.2283,-3.3127,-3.4164,-3.7683,-3.9226,-4.0437,-4.3535,-4.4068,-4.4107,-4.5667,-4.5503,-4.4399,-4.2346,-4.182,-4.0671,-3.6913,-3.3937,-3.2229,-3.2818,-3.5745,-3.8154,-3.8581,-4.3869,-4.8315,-4.9496,-4.858,-4.8653,-5.1251,-5.1161,-5.1295,-5.2433,-5.344,-5.4175,-5.4494,-5.4655,-5.5466,-5.7045,-5.7381,-5.8374,-6.0212,-6.1125,-6.2248,-6.3583,-6.3688,-6.4074,-6.4706,-6.4706,-6.4706,-6.4706,-6.4463,-6.4498,-6.4637,-6.4322,-6.418,-6.4178,-6.4693,-6.4853,-6.4945,-6.5738,-6.6531,-6.7325,-6.7394,-6.7842,-6.8497,0.0,0.0,0.0,0.0,0.0,0.0,0.0,0.0,0.0,0.0,-1.4832,-1.3585,0.0,0.0,0.0,0.0,0.0,0.0,0.0,0.0,0.0,-1.4483,-1.5197,-1.5944,-1.6675,-1.7819,-1.8467,-1.8512,-1.8775,-1.9001,-1.9133,-1.8887,-1.8843,-1.8978,-1.8978,-1.8978,-1.8978,-1.8978,-1.9384,-1.9993,-1.8978,-1.9012,-1.9553,-1.8437,0.0,0.0,-1.8538,-2.0572,-2.3581,-2.6934,-3.0011,-3.3172,-3.6853,-3.846,-3.9288,-4.0481,-4.1304,-4.2124,-4.3797,-4.4101,-4.4269,-4.5534,-4.5726,-4.4983,-4.2476,-4.1428,-3.942,-3.3822,-3.1755,-3.0253,-2.7898,-3.0813,-3.4577,-3.7485,-4.2419,-4.7012,-5.0479,-5.0711,-5.1118,-5.2463,-5.2236,-5.2467,-5.3577,-5.4106,-5.4431,-5.4529,-5.4529,-5.5098,-5.6314,-5.7004,-5.8491,-6.102,-6.2459,-6.3337,-6.3583,-6.4214,-6.4601,-6.4706,-6.4706,-6.4706,-6.4706,-6.4463,-6.4393,-6.4463,-6.4251,-6.4143,-6.3927,-6.4066,-6.468,-6.5773,-6.6497,-6.7669,-6.8946,-6.9566,-6.9877,-7.0015,0.0,0.0,0.0,0.0,0.0,0.0,0.0,-1.6488,-1.7699,-2.0144,-1.9151,-1.7557,-1.5868,-1.4772,-1.4074,0.0,0.0,0.0,0.0,0.0,0.0,0.0,0.0,0.0,-1.4838,-1.5503,-1.6294,-1.7187,0.0,-1.6581,-1.7772,-1.6623,-1.6306,-1.6678,-1.6678,-1.6678,-1.6678,-1.6678,-1.7084,-1.7726,-1.7354,-1.7659,-1.8302,0.0,0.0,0.0,-1.908,-2.0899,-2.3258,-2.6528,-2.9812,-3.3275,-3.7511,-3.9534,-4.058,-4.1674,-4.2418,-4.3131,-4.439,-4.4101,-4.3878,-4.5891,-4.5824,-4.4205,-4.0173,-3.869,-3.6303,-2.9888,-2.7998,-2.7159,-2.6016,-2.9087,-3.2663,-3.5331,-4.1222,-4.6205,-4.8564,-5.0423,-5.1727,-5.2232,-5.2337,-5.2567,-5.3267,-5.4063,-5.4494,-5.4494,-5.4937,-5.5681,-5.6697,-5.8421,-6.0153,-6.1827,-6.2986,-6.3793,-6.4179,-6.453,-6.4706,-6.4706,-6.4706,-6.4706,-6.4706,-6.4463,-6.4393,-6.4393,-6.418,-6.3999,-6.3927,-6.4161,-6.4916,-6.5979,-6.7118,-6.8256,-6.936,-7.0118,-7.0394,-7.0429,0.0,0.0,0.0,0.0,0.0,0.0,0.0,-1.8851,-2.0362,-2.3829,-2.359,-2.2012,-1.9218,-1.7266,-1.5887,0.0,0.0,0.0,0.0,0.0,0.0,0.0,0.0,0.0,0.0,0.0,0.0,-1.6357,-1.4813,0.0,0.0,0.0,0.0,0.0,-1.5358,-1.5291,-1.5122,-1.5291,-1.5798,0.0,0.0,-1.7117,-1.7794,0.0,0.0,0.0,0.0,-2.0683,-2.2374,-2.5645,-2.8543,-3.1557,-3.5551,-3.8253,-4.0204,-4.1442,-4.2411,-4.3257,-4.4716,-4.4197,-4.3746,-4.6153,-4.5794,-4.336,-3.7826,-3.586,-3.3288,-2.6419,-2.463,-2.4425,-2.5033,-2.7801,-3.0778,-3.3117,-3.9041,-4.4106,-4.6404,-4.9092,-5.1095,-5.1934,-5.2234,-5.2626,-5.2946,-5.392,-5.4661,-5.4862,-5.5854,-5.6808,-5.7527,-5.9978,-6.1652,-6.2354,-6.3337,-6.4109,-6.4706,-6.4706,-6.4706,-6.4706,-6.4706,-6.4706,-6.4706,-6.4568,-6.4428,-6.4358,-6.4109,-6.3927,-6.3889,-6.4295,-6.5014,-6.6048,-6.7532,-6.867,-6.9635,-7.0532,-7.0877,-7.0946,0.0,0.0,0.0,0.0,0.0,0.0,0.0,-2.061,-2.2976,-2.686,-2.6725,-2.5406,-2.3139,-2.0228,-1.7646,0.0,0.0,0.0,0.0,0.0,0.0,0.0,0.0,0.0,0.0,0.0,0.0,-1.5603,-1.6055,0.0,0.0,0.0,0.0,0.0,0.0,-1.4242,-1.365,-1.431,0.0,0.0,0.0,0.0,0.0,0.0,0.0,0.0,0.0,-1.9537,-2.0585,-2.3063,-2.5273,-2.7544,-3.0686,-3.4856,-3.8735,-3.9481,-4.0602,-4.1989,-4.392,-4.4256,-4.4489,-4.6029,-4.5767,-4.3388,-3.7045,-3.4644,-3.1693,-2.458,-2.3331,-2.3511,-2.3579,-2.518,-2.7769,-3.1698,-3.4584,-3.8751,-4.574,-4.7239,-4.8879,-5.2286,0.0,-5.3135,-5.3479,-5.4267,-5.5154,-5.5973,-5.752,-5.8485,-5.8555,-6.0323,-6.1652,-6.2354,-6.3828,-6.4636,-6.4706,-6.4706,-6.4706,-6.4706,-6.4706,-6.4706,-6.4706,-6.4706,-6.4533,-6.418,-6.418,-6.3965,-6.36,-6.3669,-6.4565,-6.6048,-6.7532,-6.898,-7.0463,-7.1946,-7.2464,-7.2464,0.0,0.0,0.0,0.0,0.0,0.0,-1.9623,-2.0799,-2.3006,-2.7874,-2.7841,-2.686,-2.5541,-2.3482,-2.0759,-1.711,0.0,0.0,0.0,0.0,0.0,0.0,0.0,0.0,0.0,0.0,-1.6082,-1.6217,-1.6082,0.0,0.0,0.0,0.0,0.0,0.0,-1.4986,-1.4749,-1.5054,0.0,0.0,0.0,0.0,0.0,0.0,0.0,0.0,0.0,0.0,-1.9672,-2.2007,-2.3844,-2.548,-2.7211,-2.9989,-3.3406,-3.7536,-3.9129,-4.015,-4.2993,-4.346,-4.3497,-4.5275,-4.3837,-4.082,-3.6189,-3.3069,-2.949,-2.3739,-2.2304,-2.2248,-2.2722,-2.3782,-2.5814,-2.9597,-3.3077,-3.6679,-4.0676,-4.4756,-4.7869,-4.9359,-5.176,-5.3356,-5.3723,-5.4478,-5.5514,-5.6927,-5.8101,-5.8934,-5.9552,-6.0639,-6.1652,-6.2354,-6.3477,-6.425,-6.4706,-6.4706,-6.4706,-6.4706,-6.4706,-6.4706,-6.4706,-6.4568,-6.4428,-6.418,-6.4072,-6.382,-6.36,-6.36,-6.422,-6.5324,-6.6842,-6.8359,-6.9911,-7.1394,-7.2257,-7.2671,0.0,0.0,0.0,0.0,0.0,-1.6324,-2.0522,-2.1516,-2.3407,-2.8043,-2.8349,-2.7706,-2.6488,-2.4864,-2.2462,-1.9031,-1.7625,0.0,0.0,0.0,0.0,0.0,0.0,0.0,0.0,0.0,-1.6813,-1.7342,-1.705,-1.705,0.0,0.0,-1.6339,-1.5933,0.0,0.0,0.0,0.0,0.0,0.0,0.0,0.0,0.0,0.0,0.0,0.0,0.0,0.0,0.0,0.0,0.0,-2.3863,-2.4698,-2.5982,-2.8404,-3.4631,-3.7036,-3.8417,-4.1683,-4.2756,-4.3383,-4.4746,-4.2545,-3.9051,-3.5349,-3.1613,-2.7581,-2.2887,-2.1346,-2.1147,-2.1956,-2.2788,-2.4389,-2.7539,-3.0987,-3.4301,-3.717,-4.1852,-4.5412,-4.6653,-4.9561,-5.1864,-5.2799,-5.4695,-5.6396,-5.7821,-5.8654,-5.9383,-6.0072,-6.0633,-6.1371,-6.2354,-6.3372,-6.4179,-6.4706,-6.4706,-6.4706,-6.4706,-6.4952,-6.5057,-6.5057,-6.4848,-6.4707,-6.4493,-6.4069,-6.3747,-6.36,-6.36,-6.4014,-6.4841,-6.6393,-6.7773,-6.9118,-7.0877,-7.1843,-7.236,0.0,0.0,0.0,0.0,0.0,0.0,-2.1273,-2.3176,-2.4978,-2.7502,-2.8484,-2.8112,-2.5879,-2.3646,-2.2023,-2.1237,-1.908,0.0,0.0,0.0,0.0,0.0,0.0,0.0,0.0,0.0,-1.8877,-1.8877,-1.9596,-1.9562,-1.8877,-1.8877,-1.8065,-1.6699,0.0,0.0,0.0,0.0,0.0,0.0,0.0,0.0,0.0,0.0,0.0,0.0,0.0,0.0,0.0,0.0,0.0,0.0,0.0,-2.3444,-2.4596,-3.046,-3.4164,-3.6935,-3.9768,-4.2584,-4.4655,-4.4688,-4.2444,-3.9049,-3.4607,-3.0452,-2.6248,-2.1836,-2.0542,-2.0449,-2.1259,-2.2036,-2.3294,-2.5644,-2.764,-3.0862,-3.6689,-3.8516,-4.0827,-4.4957,-4.6515,-4.8139,-5.0328,-5.4909,-5.8044,-5.8654,-5.9587,-6.0072,-6.0107,-6.0107,-6.0809,-6.2354,-6.3898,-6.4706,-6.4706,-6.4706,-6.4706,-6.4741,-6.5514,-6.5865,-6.5865,-6.5653,-6.551,-6.5259,-6.4312,-6.3747,-6.36,-6.36,-6.4014,-6.4841,-6.6393,-6.7463,-6.8394,-7.067,-7.1498,-7.1636,0.0,0.0,0.0,0.0,0.0,0.0,0.0,-2.0699,-2.2343,-2.5169,-2.5304,-2.527,-2.5575,-2.3173,-2.1448,-2.1237,-1.9113,0.0,0.0,0.0,0.0,0.0,0.0,0.0,0.0,0.0,-1.9147,-1.963,-1.99,-1.9866,-1.963,-1.9147,-1.864,-1.8166,-1.7693,-1.732,0.0,0.0,0.0,0.0,0.0,0.0,0.0,0.0,0.0,0.0,0.0,0.0,0.0,0.0,0.0,0.0,0.0,0.0,0.0,-2.6083,-2.9282,-3.2555,-3.5365,-3.677,-3.7469,-3.7469,-3.4872,-3.185,-2.9989,-2.6689,-2.3313,-2.0925,-1.9938,-1.9761,-2.0573,-2.1352,-2.3502,-2.8421,-2.9694,-3.1651,-3.6077,-4.0343,0.0,-4.4798,-5.0084,-5.3917,-5.4618,-5.7062,-5.8737,-5.8885,-5.9685,-6.0107,-6.0107,-6.0633,-6.1125,-6.1616,-6.2599,-6.3372,-6.3934,-6.446,-6.4987,-6.5514,-6.5759,-6.6145,-6.6637,-6.6313,-6.5889,-6.5294,-6.4685,-6.4122,-6.36,-6.36,-6.3738,-6.4083,-6.5635,-6.6704,-6.7566,-6.9325,-7.0636,-7.1532,0.0,0.0,0.0,0.0,0.0,0.0,0.0,-1.9326,-2.0643,-2.2564,-2.2665,-2.3038,-2.4222,-2.1955,-2.0594,-2.117,-1.9113,0.0,0.0,0.0,0.0,0.0,0.0,0.0,0.0,-1.9452,-2.0264,-2.1252,-2.1583,-2.1583,-2.1278,-2.0805,-1.9993,-1.8877,-1.8437,-1.8065,0.0,0.0,0.0,0.0,0.0,0.0,-1.891,0.0,0.0,0.0,0.0,0.0,0.0,0.0,0.0,0.0,0.0,0.0,0.0,0.0,-2.5947,-2.8578,-3.1683,-3.3105,-3.374,-3.374,-3.1254,-2.8575,-2.7906,-2.4791,-2.1702,-2.0514,-1.9739,-1.9487,-2.0267,-2.129,-2.3453,-2.7833,-2.9248,-3.1388,-3.578,-3.9693,0.0,-4.5094,-5.1193,-5.5424,-5.5802,-5.7771,-5.9124,-5.9405,-5.9826,-6.0107,-6.0107,-6.0563,-6.0844,-6.0844,-6.2143,-6.3231,-6.3867,-6.4707,-6.5479,-6.625,-6.6602,-6.7023,-6.748,-6.7043,-6.6651,-6.6129,-6.5095,-6.4427,0.0,-6.3703,-6.36,-6.3703,-6.4945,-6.5911,-6.6773,-6.829,-6.9601,-7.0739,0.0,0.0,0.0,0.0,0.0,0.0,0.0,-1.892,-1.9866,-1.99,-2.0568,-2.1278,-2.1989,-2.0128,-1.9384,-2.0831,0.0,0.0,0.0,0.0,0.0,0.0,0.0,0.0,0.0,-2.0365,-2.1887,-2.3477,-2.4154,-2.4188,-2.3613,-2.3579,-2.2023,-1.9215,-1.9181,-1.8707,0.0,0.0,0.0,0.0,-1.935,-1.9012,0.0,0.0,0.0,0.0,0.0,0.0,0.0,0.0,0.0,0.0,0.0,0.0,0.0,0.0,0.0,0.0,0.0,-3.0824,-3.2488,-3.2505,-3.047,-2.8283,-2.7674,-2.4364,0.0,-2.0611,-1.9878,-1.9636,-2.0498,-2.1772,-2.3315,-2.5109,-2.7247,-3.056,-3.6012,-3.7783,0.0,-4.6197,-5.0654,-5.3683,-5.4641,-5.7374,-5.9369,-6.0036,-6.0107,-6.0107,-6.0107,-6.0107,-6.0107,-6.0177,-6.2389,-6.3797,-6.4358,-6.5409,-6.6215,-6.6805,-6.7793,-6.8252,-6.8287,-6.7885,-6.7626,-6.7487,-6.5613,-6.4807,-6.4634,-6.3945,-6.3634,-6.3669,-6.4393,-6.5186,-6.6048,-6.7497,-6.8566,-6.9497,0.0,0.0,0.0,0.0,0.0,0.0,0.0,0.0,0.0,0.0,-1.9316,-1.9519,-1.9688,-1.8707,-1.82,0.0,0.0,0.0,0.0,0.0,0.0,0.0,0.0,0.0,0.0,-2.0103,-2.1583,-2.4222,-2.4421,-2.4997,-2.5913,-2.5338,-2.4086,-2.2327,-2.1752,-2.0771,0.0,0.0,0.0,0.0,-2.0703,-2.0297,0.0,0.0,0.0,0.0,-2.0111,-2.1094,0.0,0.0,0.0,0.0,0.0,0.0,0.0,0.0,-2.2036,-2.2302,-2.2521,0.0,-2.6488,-2.5976,-2.4917,-2.3994,0.0,-2.2603,-2.1455,-2.1325,-2.067,-2.0739,-2.2634,-2.284,-2.4178,-2.8627,-3.0282,-3.2738,-3.7602,-4.3171,0.0,-5.1812,-5.4874,-5.651,-5.5985,-5.8332,-5.9896,-6.0072,-6.0107,-6.0107,-6.0107,-6.0107,-6.0388,-6.0984,-6.2571,-6.3414,-6.3589,-6.5128,-6.6496,-6.7644,-6.7966,-6.8533,-6.9095,-6.8688,-6.8113,-6.7556,-6.6754,-6.5773,-6.4703,-6.4496,-6.4117,-6.3669,-6.4393,-6.5186,-6.5979,-6.6911,-6.8118,-6.9394,0.0,0.0,0.0,0.0,0.0,0.0,0.0,0.0,0.0,0.0,0.0,-1.749,0.0,0.0,0.0,0.0,0.0,0.0,0.0,0.0,0.0,0.0,0.0,0.0,0.0,-2.0365,-2.2192,-2.5507,-2.5507,-2.6454,-2.8247,-2.7503,-2.5981,-2.3816,-2.2057,-2.1008,0.0,0.0,0.0,-2.1705,-2.1366,0.0,0.0,0.0,0.0,0.0,-2.0722,-2.1445,0.0,-2.2807,-2.2733,-2.2556,0.0,0.0,0.0,0.0,-2.1473,-2.1352,-2.0587,-2.2234,-2.4091,-2.3767,-2.3659,-2.3652,-2.368,-2.2607,-2.1575,-2.1566,-2.1221,-2.1428,-2.3013,-2.5029,-2.7137,-2.9282,-3.3367,-3.7575,-4.1511,-4.6637,-5.0844,-5.3334,-5.5739,-5.7246,-5.7561,-5.9096,-6.0107,-6.0107,-6.0107,-6.0107,-6.0107,-6.0458,-6.0844,-6.13,-6.2708,-6.3728,-6.4218,-6.5968,-6.7333,-6.8264,-6.8597,-6.8954,-6.9376,-6.8932,-6.8461,-6.8078,-6.7273,-6.6531,-6.5704,-6.4979,-6.4462,-6.4117,-6.4152,-6.4876,-6.5945,-6.6324,-6.7428,-6.8911,0.0,0.0,0.0,0.0,0.0,0.0,0.0,0.0,0.0,0.0,0.0,0.0,0.0,0.0,0.0,0.0,0.0,0.0,0.0,0.0,0.0,0.0,0.0,0.0,0.0,0.0,-2.3033,-2.6691,-2.6793,-2.7977,-3.0108,-2.9803,-2.7977,-2.4864,-2.1989,-2.094,0.0,0.0,-2.1136,-2.2371,-2.1718,0.0,0.0,0.0,0.0,0.0,0.0,0.0,0.0,-2.3232,-2.3083,-2.2699,-2.326,0.0,0.0,0.0,0.0,0.0,-2.0704,-2.247,-2.4265,-2.3633,-2.4247,-2.4936,-2.4695,-2.3143,-2.1798,-2.1901,-2.1936,-2.2419,-2.4033,-2.7823,-3.0491,-2.9903,-3.6504,-4.2835,-4.6009,-4.9218,-5.1787,-5.3194,-5.5399,-5.7289,-5.864,-5.958,-6.0107,-6.0107,-6.0107,-6.0142,-6.0282,-6.0914,-6.1476,-6.1726,-6.3129,-6.4393,-6.5569,-6.7082,-6.8094,-6.8628,-6.9118,-6.9376,-6.9302,-6.8857,-6.8705,-6.867,-6.7584,-6.7083,-6.6876,-6.56,-6.491,-6.4634,-6.4014,-6.4634,-6.5876,-6.5876,-6.6807,-6.8325,0.0,0.0,0.0,0.0,0.0,0.0,0.0,0.0,0.0,0.0,0.0,0.0,0.0,0.0,0.0,0.0,0.0,0.0,0.0,0.0,0.0,0.0,0.0,0.0,0.0,0.0,0.0,-2.6691,-2.7334,-2.8484,-3.0142,-3.1901,-3.0784,-2.7199,-2.4831,-2.3173,-2.2124,-2.2044,-2.2173,-2.2405,-2.2324,0.0,0.0,0.0,0.0,0.0,0.0,0.0,0.0,-2.2706,-2.2699,-2.2623,-2.2733,0.0,0.0,0.0,0.0,0.0,-2.1083,-2.4488,-2.6733,-2.2901,-2.3488,-2.466,-2.335,-2.2798,-2.2729,-2.3323,-2.346,-2.5138,-3.0595,-3.056,-3.1147,-3.555,-4.02,-4.4579,-4.8417,-5.2306,-5.4758,-5.4944,-5.7105,-5.8394,-5.7849,-5.9201,-6.0107,-6.0107,-6.0107,-6.0388,-6.109,-6.123,-6.2112,-6.3869,-6.4636,-6.5712,-6.6941,-6.712,-6.7609,-6.8474,-6.9118,-6.9302,-6.9153,-6.8892,-6.8705,-6.8705,-6.8137,-6.7566,-6.698,-6.6738,-6.5876,-6.4703,-6.4565,-6.5083,-6.5876,-6.5876,-6.6807,-6.8325,0.0,0.0,0.0,0.0,0.0,0.0,0.0,0.0,0.0,0.0,0.0,0.0,0.0,0.0,0.0,0.0,0.0,0.0,0.0,0.0,0.0,0.0,0.0,0.0,0.0,0.0,0.0,-2.8552,-2.9668,-3.0987,-3.2476,-3.1501,-2.9946,-2.7809,-2.4754,-2.3022,-2.2349,-2.2432,-2.246,-2.246,0.0,0.0,0.0,0.0,0.0,0.0,0.0,0.0,0.0,0.0,-2.2642,-2.2642,-2.2642,0.0,0.0,0.0,0.0,0.0,-2.0257,-2.2798,-2.5212,-2.4884,-2.8313,-3.1491,-3.0422,-2.9833,-2.9176,-2.7895,-2.7618,-2.8897,-3.3026,-3.4276,-3.7172,-4.4851,-4.5396,-4.6358,-5.0759,-5.2542,-5.3871,-5.5129,-5.7009,-5.8402,-5.892,-5.9685,-6.0107,-6.0107,-6.0107,-6.0458,-6.1265,-6.2007,-6.2993,-6.4393,-6.5366,-6.6403,-6.7475,-6.7466,-6.785,-6.8551,-6.9118,-6.9376,-6.9227,-6.8857,-6.8705,-6.8705,-6.8241,-6.7911,-6.7566,-6.7152,-6.6324,-6.529,-6.4876,-6.491,-6.5359,-6.6186,-6.7704,-6.9428,0.0,0.0,0.0,0.0,0.0,0.0,0.0,0.0,0.0,0.0,0.0,0.0,0.0,0.0,0.0,0.0,0.0,0.0,0.0,0.0,0.0,0.0,0.0,0.0,0.0,0.0,-2.7029,-3.0615,-3.1901,-3.3288,-3.4675,-3.1235,-2.91,-2.8082,-2.4573,-2.2801,-2.2432,-2.2487,-2.2542,-2.2542,0.0,0.0,0.0,0.0,0.0,0.0,0.0,0.0,0.0,0.0,0.0,0.0,0.0,0.0,0.0,-2.129,-2.067,-2.0463,-2.0808,-2.2151,-2.4344,-2.7858,-3.1804,-3.5082,-3.6041,-3.5144,-3.379,-3.275,-3.2402,-3.3063,-3.5705,-3.8816,-4.3348,-5.0554,-4.9221,-4.8749,-5.2984,-5.3276,-5.3812,-5.5924,-5.7324,-5.8682,-6.0001,-6.0107,-6.0107,-6.0107,-6.0107,-6.0528,-6.1511,-6.2643,-6.3764,-6.4882,-6.599,-6.6994,-6.7794,-6.7945,-6.8224,-6.8705,-6.9192,-6.9376,-6.9302,-6.8857,-6.8705,-6.8705,-6.8241,-6.8083,-6.8049,-6.7497,-6.6704,-6.5807,-6.5221,-6.4979,-6.5152,-6.6497,-6.8428,-7.0394,0.0,0.0,0.0,0.0,0.0,0.0,0.0,0.0,0.0,0.0,0.0,0.0,0.0,0.0,0.0,0.0,0.0,0.0,0.0,0.0,0.0,0.0,0.0,0.0,0.0,-2.8619,-2.9093,-3.2104,-3.2916,-3.41,-3.5487,-3.2523,-3.0357,-2.8898,-2.5902,-2.3784,-2.2487,-2.2569,-2.2596,-2.2623,-2.2676,0.0,0.0,0.0,0.0,0.0,0.0,0.0,0.0,0.0,0.0,0.0,0.0,0.0,-2.2694,-2.2591,-2.1497,-2.1152,-2.466,-2.573,-2.6937,-3.1386,-2.9696,-2.8451,-3.4356,-3.2786,-3.1498,-3.6382,-3.6835,-3.7498,-4.122,-4.4391,-4.6621,-4.737,-4.9622,-5.2284,-5.4922,-5.6465,-5.7719,-5.8632,-5.944,-5.9966,-6.0072,-6.0107,-6.0107,-6.0107,-6.0107,-6.0739,-6.2213,-6.2923,-6.4253,-6.6199,-6.6879,-6.76,-6.8327,-6.8405,-6.8517,-6.8705,-6.9192,-6.9302,-6.9078,-6.8781,-6.8705,-6.8705,-6.8241,-6.8083,-6.8083,-6.8049,-6.7187,-6.5876,-6.5807,-6.5807,-6.5911,-6.6704,-6.8428,-7.0394,0.0,0.0,0.0,0.0,0.0,0.0,0.0,0.0,0.0,0.0,0.0,0.0,0.0,0.0,0.0,0.0,0.0,0.0,0.0,0.0,0.0,0.0,0.0,-2.6013,-2.981,-3.0823,-3.2307,-3.437,-3.5115,-3.5599,-3.5644,-3.1788,-2.9481,-2.8391,-2.4996,-2.311,-2.2569,-2.2649,-2.2649,-2.2623,-2.2642,-2.2729,0.0,0.0,0.0,0.0,0.0,0.0,0.0,0.0,-2.2625,-2.2143,-2.2875,-2.2909,-2.2625,-2.2143,-2.1221,-2.0808,-2.2763,-2.5098,-2.7823,-3.1461,-3.1773,-3.2711,-3.8537,-3.9826,-3.9956,-4.0558,-4.1311,-4.2079,-4.2997,-4.7403,-5.05,-4.9501,-5.1549,-5.401,-5.5929,-5.7122,-5.8105,-5.8913,-5.965,-6.0107,-6.0107,-6.0107,-6.0107,-6.0107,-6.0563,-6.1445,-6.2921,-6.3974,-6.5294,-6.6879,-6.7523,-6.8042,-6.8551,-6.8474,-6.8628,-6.9118,-6.9227,-6.9227,-6.9302,-6.8857,-6.8705,-6.8705,-6.8241,-6.8083,-6.8083,-6.8083,-6.7221,-6.5773,-6.4841,-6.5048,-6.5911,-6.6186,-6.7738,-6.9773,0.0,0.0,0.0,0.0,0.0,0.0,0.0,0.0,0.0,0.0,0.0,0.0,0.0,0.0,0.0,0.0,0.0,0.0,0.0,0.0,0.0,0.0,0.0,-2.513,-2.7946,-3.1608,-3.3939,-3.4912,-3.6209,-3.6265,-3.5061,-3.1564,-2.9588,-2.8768,-2.5085,-2.3529,-2.3646,-2.2978,-2.2642,-2.2649,-2.2703,-2.2729,0.0,0.0,0.0,0.0,0.0,0.0,0.0,0.0,-2.2039,-2.1729,-2.2488,-2.284,-2.2875,-2.2177,-2.2444,-2.3162,-2.3922,-2.5952,-2.8821,-3.2854,-3.4067,-3.5879,-4.1858,-4.3707,-4.4251,-4.4942,-4.5711,-4.613,-4.5556,-4.9396,-5.2341,-5.1234,-5.3077,-5.5227,-5.6771,-5.7438,-5.8176,-5.9229,-5.9791,-6.0107,-6.0107,-6.0107,-6.0107,-6.0107,-6.0844,-6.1796,-6.2923,-6.4497,-6.5847,-6.6983,-6.78,-6.8319,-6.8705,-6.8474,-6.874,-6.9302,-6.9002,-6.9078,-6.9302,-6.8892,-6.8705,-6.8628,-6.8241,-6.8083,-6.8083,-6.8083,-6.7221,-6.5738,-6.4186,-6.4531,-6.5876,-6.5876,-6.7325,-6.936,0.0,0.0,0.0,0.0,0.0,0.0,0.0,0.0,0.0,0.0,0.0,0.0,0.0,0.0,0.0,0.0,0.0,0.0,0.0,0.0,0.0,0.0,0.0,-2.4924,-2.5637,-3.0912,-3.3564,-3.3515,-3.5756,-3.5776,-3.3652,-3.2226,-3.1205,-3.0312,-2.6633,-2.5419,-2.5937,-2.366,-2.2729,-2.2729,-2.2729,-2.2729,-2.2694,0.0,0.0,0.0,0.0,0.0,0.0,0.0,-2.1591,-2.1729,-2.2427,-2.3185,-2.3633,-2.2909,-2.5472,-2.8719,-2.9449,-2.9171,-3.0142,-3.6347,-3.6127,-3.6301,-4.3395,-4.2544,-4.2288,-4.9416,-5.006,-4.9338,-4.9501,-5.0649,-5.1695,-5.1738,-5.3905,-5.6034,-5.7579,-5.779,-5.8386,-5.9931,-6.0107,-6.0107,-6.0107,-6.0107,-6.0107,-6.0107,-6.0844,-6.1616,-6.2354,-6.4253,-6.5642,-6.6408,-6.7676,-6.8474,-6.8705,-6.8474,-6.8663,-6.9078,-6.8663,-6.8663,-6.9078,-6.8781,-6.8628,-6.8397,-6.8162,-6.8083,-6.8083,-6.8083,-6.7221,-6.5738,-6.4186,-6.4531,-6.5876,-6.5876,-6.7325,-6.9256,0.0,0.0,0.0,0.0,0.0,0.0,0.0,0.0,0.0,0.0,0.0,0.0,0.0,0.0,0.0,0.0,0.0,0.0,-1.8099,-1.8312,-1.9283,0.0,0.0,0.0,0.0,0.0,-3.027,-3.4423,-3.4593,-3.3543,-3.1405,-3.0482,-2.9111,-2.7356,-2.6251,-2.5005,-2.366,-2.3005,-2.2729,-2.2729,-2.2729,-2.2384,-2.1936,0.0,0.0,0.0,0.0,0.0,0.0,0.0,0.0,0.0,-2.1522,-2.2453,-2.3005,-2.2737,-2.3895,-2.5167,-2.4856,-2.9067,-3.3694,-3.4422,-3.8607,-4.3266,-4.595,-4.5745,-4.6253,-5.064,-5.041,-4.9641,-5.02,-5.2039,-5.3147,-5.2004,-5.3905,-5.6034,-5.7579,-5.779,-5.8386,-5.9931,-6.0107,-6.0107,-6.0107,-6.0107,-6.0107,-6.0107,-6.0844,-6.1796,-6.2958,-6.4044,-6.5436,-6.6983,-6.7544,-6.8107,-6.8705,-6.8628,-6.8816,-6.9078,-6.8816,-6.8705,-6.8781,-6.8551,-6.8474,-6.8397,-6.8162,-6.8083,-6.8014,-6.698,-6.629,-6.5738,-6.4186,-6.4531,-6.5876,-6.5876,-6.698,-6.8611,0.0,0.0,0.0,0.0,0.0,0.0,0.0,0.0,0.0,0.0,-1.5358,-1.5257,0.0,0.0,0.0,0.0,0.0,0.0,-1.8234,-1.8031,-1.8914,-2.1189,-2.1464,-2.235,-2.4033,-2.5635,-2.8218,-3.1816,-3.2029,-3.1349,-2.9833,-3.0283,-2.9799,-2.8546,-2.8416,-2.7282,-2.535,-2.4453,-2.3695,-2.3116,-2.3116,-2.2729,-2.2039,0.0,0.0,0.0,0.0,0.0,0.0,0.0,0.0,0.0,-2.0418,-2.1187,-2.2108,-2.368,-2.5334,-2.7065,-2.9136,-3.3276,-3.7393,-3.9285,-4.2474,-4.5775,-4.805,-4.8557,-4.9186,-5.1409,-5.1339,-5.1129,-5.199,-5.3497,-5.4338,-5.3427,-5.4747,-5.6385,-5.7614,-5.807,-5.8737,-5.9931,-6.0107,-6.0107,-6.0107,-6.0107,-6.0107,-6.0107,-6.0844,-6.1761,-6.2921,-6.3869,-6.5229,-6.6879,-6.7452,-6.8049,-6.8705,-6.8781,-6.8967,-6.9078,-6.874,-6.8551,-6.8551,-6.8474,-6.8319,-6.8241,-6.8162,-6.8083,-6.8014,-6.6807,-6.6152,-6.5807,-6.4876,-6.5083,-6.5911,-6.6221,-6.7281,-6.8663,0.0,0.0,0.0,0.0,0.0,0.0,0.0,0.0,0.0,-1.5325,-1.4817,-1.4648,0.0,0.0,0.0,-1.6353,-1.5863,-1.6482,-1.8779,-1.8232,-1.8847,-2.1233,-2.1694,-2.3263,-2.6135,-2.664,-2.6899,-2.6899,-2.8615,-2.9126,-2.8654,-3.0937,-3.1952,-3.1882,-3.1669,-3.0696,-2.9041,-2.6764,-2.4936,-2.3598,-2.3598,-2.3116,-2.2392,-2.2392,0.0,0.0,0.0,0.0,0.0,0.0,0.0,0.0,-1.9258,-1.9809,-2.1108,-2.4802,-2.8198,-3.202,-3.7825,-3.9328,-4.0822,-4.7487,-4.6786,-4.553,-4.98,-5.0834,-5.1224,-5.1906,-5.2621,-5.3299,-5.4221,-5.4863,-5.5259,-5.5448,-5.6139,-5.6877,-5.7684,-5.8492,-5.9264,-6.0001,-6.0107,-6.0107,-6.0107,-6.0107,-6.0107,-6.0107,-6.0774,-6.1546,-6.2354,-6.3588,-6.4986,-6.6373,-6.7431,-6.8199,-6.8705,-6.8967,-6.9153,-6.9078,-6.8663,-6.8397,-6.8397,-6.8397,-6.8241,-6.8083,-6.8083,-6.8083,-6.8049,-6.729,-6.6566,-6.5876,-6.5876,-6.5876,-6.5979,-6.6781,-6.8009,-6.9235,0.0,0.0,0.0,0.0,0.0,0.0,0.0,0.0,-1.3684,-1.3853,-1.3752,-1.3718,-1.3853,-1.3735,0.0,-1.4109,-1.4042,-1.5002,-1.7448,-1.6858,-1.7785,-2.081,-2.1499,-2.2443,-2.3814,-2.3727,-2.3804,-2.4016,-2.6149,-2.7151,-2.7133,-2.9327,-3.0097,-2.9534,-2.9867,-2.8834,-2.6695,-2.4419,-2.2901,-2.2074,-2.2074,-2.1221,-2.0015,-2.0015,-1.9361,0.0,0.0,0.0,0.0,0.0,0.0,0.0,-1.912,-1.9809,-2.067,-2.2168,-2.6091,-3.0247,-3.1638,-3.6387,-4.1611,-4.4353,-4.7241,-4.9767,-5.1345,-5.1696,-5.1941,-5.2564,-5.3392,-5.4256,-5.5121,-5.5343,-5.5448,-5.5507,-5.6139,-5.6877,-5.7684,-5.8492,-5.9264,-6.0001,-6.0107,-6.0107,-6.0107,-6.0107,-6.0107,-6.0107,-6.0247,-6.0949,-6.2319,-6.3234,-6.4673,-6.6558,-6.7651,-6.8421,-6.8967,-6.9227,-6.9227,-6.9078,-6.8781,-6.8551,-6.8397,-6.8241,-6.8162,-6.8083,-6.8083,-6.8083,-6.8049,-6.729,-6.6566,-6.5876,-6.5876,-6.5876,-6.6056,-6.7392,-6.8421,-6.9347,0.0,0.0,0.0,0.0,0.0,0.0,0.0,0.0,-1.3837,-1.3497,-1.3413,-1.3396,-1.3396,-1.3429,0.0,0.0,-1.3782,-1.45,-1.6552,-1.6712,-1.802,-2.0968,-2.168,-2.2081,-2.2295,-2.2412,-2.2516,-2.2682,-2.3981,-2.5227,-2.6443,-2.8187,-2.9283,-2.9781,-3.0,-2.8899,-2.6735,-2.5063,-2.3695,-2.266,-2.266,-2.1763,-2.0418,-2.0418,-1.9464,-1.8211,-1.8211,0.0,0.0,0.0,0.0,0.0,0.0,0.0,-1.9935,-2.2981,-2.5542,-2.8618,-3.3903,-3.8063,-4.1775,-4.5663,-4.8802,-5.1084,-5.1856,-5.2312,-5.2769,-5.3427,-5.3975,-5.4559,-5.5367,-5.5507,-5.5507,-5.5507,-5.6455,-5.7333,-5.7754,-5.8808,-5.9685,-6.0036,-6.0107,-6.0107,-6.0107,-6.0107,-6.0107,-6.0107,-6.0107,-6.0598,-6.1792,-6.2951,-6.4391,-6.6106,-6.744,-6.853,-6.9078,-6.9302,-6.9376,-6.9227,-6.8857,-6.8551,-6.8241,-6.8162,-6.8083,-6.8083,-6.8083,-6.8083,-6.8049,-6.7669,-6.7083,-6.6539,-6.7232,-6.7278,-6.7109,-6.861,-6.9635,-7.0368,0.0,0.0,0.0,0.0,0.0,0.0,0.0,0.0,0.0,-1.3598,-1.3462,-1.3429,-1.3429,-1.3479,-1.3768,0.0,0.0,0.0,-1.5869,-1.7007,-1.8698,-2.1134,-2.1657,-2.1652,-2.1186,-2.1718,-2.1953,-2.1839,-2.2371,-2.3852,-2.6291,-2.7512,-2.8989,-3.0576,-3.0302,-2.9099,-2.7181,-2.5883,-2.4453,-2.3013,-2.3013,-2.222,-2.1004,-2.1004,-1.9832,-1.8211,-1.8211,-1.8211,-1.8211,-1.8211,0.0,0.0,0.0,0.0,-1.913,-2.3761,-2.5126,-2.7269,-3.6561,-3.9852,-4.2125,-4.8153,-5.0276,-5.1084,-5.1856,-5.2628,-5.3401,-5.4138,-5.4419,-5.4735,-5.5402,-5.5507,-5.5507,-5.5507,-5.6701,-5.7649,-5.779,-5.9018,-5.9966,-6.0072,-6.0107,-6.0107,-6.0107,-6.0107,-6.0107,-6.0107,-6.0107,-6.0458,-6.1265,-6.274,-6.4216,-6.5618,-6.7338,-6.853,-6.9153,-6.9302,-6.9376,-6.9376,-6.8932,-6.8474,-6.8083,-6.8083,-6.8083,-6.8083,-6.8083,-6.8083,-6.8083,-6.8241,-6.7869,-6.7357,-6.8846,-6.8962,-6.8469,-6.9946,-7.0872,-7.1422,0.0,0.0,0.0,0.0,0.0,0.0,0.0,0.0,0.0,0.0,-1.3479,-1.3479,-1.3479,-1.3546,-1.3612,-1.3715,-1.3767,-1.4264,-1.533,0.0,0.0,-2.0543,-2.0517,-2.0408,-2.0336,-2.0896,-2.0912,-2.048,-2.1909,-2.3951,-2.6548,-2.7766,-2.8828,-2.971,-2.8611,-2.7186,-2.5442,-2.318,-2.1315,-1.9878,-1.9878,-1.9395,-1.8659,-1.8659,-1.8487,-1.8211,-1.8211,-1.8211,-1.8211,-1.8211,-1.8211,0.0,0.0,0.0,-1.8487,-1.9832,-2.3015,-2.6601,-2.8784,-3.5723,-4.3547,-4.8486,-5.0276,-5.1084,-5.1856,-5.2628,-5.3401,-5.4138,-5.4875,-5.5367,-5.5507,-5.5507,-5.5507,-5.5507,-5.621,-5.7017,-5.7719,-5.8597,-5.9369,-6.0001,-6.0107,-6.0107,-6.0107,-6.0107,-6.0107,-6.0107,-6.0107,-6.0458,-6.1265,-6.274,-6.4285,-6.5829,-6.7409,-6.8603,-6.9376,-6.9376,-6.9376,-6.9376,-6.8932,-6.8474,-6.8083,-6.8083,-6.8083,-6.8083,-6.8083,-6.8083,-6.8162,-6.8787,-6.8632,-6.8109,-6.96,-6.97,-6.9265,-7.0714,-7.1359,-7.1485,0.0,0.0,0.0,0.0,0.0,0.0,0.0,0.0,0.0,0.0,0.0,-1.3774,-1.3774,-1.3824,-1.3824,-1.3824,-1.3963,-1.45,-1.5469,-1.6319,-1.7289,-1.8412,-1.8395,-1.8349,-1.8349,-1.858,-1.9031,-1.9693,-2.0386,-2.2995,0.0,-2.7812,-2.8749,-2.9853,-2.7958,-2.6294,-2.4807,-2.2554,-2.0729,-1.9292,-1.9292,-2.0119,-2.1049,-1.85,-1.8844,-2.0429,-1.8293,-1.7535,-1.7604,-1.8052,-1.8465,-1.8741,-1.8349,0.0,0.0,0.0,-2.1063,-2.4427,-3.0941,-3.758,-4.3898,-4.9082,-5.0627,-5.1084,-5.1856,-5.2277,-5.2874,-5.4068,-5.4595,-5.4981,-5.5437,-5.5507,-5.5507,-5.5507,-5.6139,-5.6877,-5.7684,-5.8492,-5.9264,-6.0001,-6.0107,-6.0107,-6.0107,-6.0107,-6.0107,-6.0107,-6.0107,-6.0247,-6.0598,-6.2529,-6.3898,-6.4566,-6.681,-6.8246,-6.8562,-6.9017,-6.9153,-6.9043,-6.8705,-6.8397,-6.8083,-6.8517,-6.8517,-6.8083,-6.8517,-6.8746,-6.8787,-6.9492,-6.9637,-6.9423,-7.053,-7.0721,-7.0534,-7.1623,-7.2048,-7.2108,0.0,0.0,0.0,0.0,0.0,0.0,0.0,0.0,0.0,0.0,0.0,-1.3792,-1.4005,0.0,0.0,0.0,-1.4203,-1.4683,-1.5637,-1.571,-1.6078,-1.6872,-1.6908,-1.6798,-1.6615,-1.6798,-1.7385,-1.8405,-1.8992,0.0,-2.72,-2.7603,-2.8998,-3.0992,-2.847,-2.6339,-2.4527,-2.2489,-2.0832,-1.9659,-2.0558,-2.2171,-2.3807,-2.1861,-2.2926,-2.4839,-2.0708,-1.9199,-1.9108,-1.8426,-1.859,-1.8913,-1.8362,-1.8431,0.0,0.0,0.0,-2.1744,-3.1708,-3.6841,-4.0981,-4.7452,-4.9574,-5.0311,-5.147,-5.2032,-5.2593,-5.3541,-5.4033,-5.4489,-5.5086,-5.5367,-5.5507,-5.5507,-5.5964,-5.6666,-5.7649,-5.8316,-5.9053,-6.0001,-6.0107,-6.0107,-6.0107,-6.0107,-6.0107,-6.0107,-6.0107,-6.0107,-6.0107,-6.1932,-6.3196,-6.3583,-6.5864,-6.7225,-6.7644,-6.8304,-6.8717,-6.8628,-6.8474,-6.8397,-6.8362,-6.8938,-6.9013,-6.8711,-6.92,-6.9492,-6.9564,-7.03,-7.057,-7.0637,-7.1422,-7.1671,-7.1769,-7.2285,-7.2496,-7.2496,0.0,0.0,0.0,0.0,0.0,0.0,0.0,0.0,0.0,0.0,0.0,-1.3249,-1.4011,-1.4082,-1.4082,-1.4082,-1.4216,-1.4683,-1.5637,-1.571,-1.6078,-1.6872,-1.6908,0.0,-1.5784,-1.6505,-1.6578,-1.5894,0.0,0.0,-2.5568,-2.709,-2.9879,-3.3486,-3.0567,-2.7531,-2.4468,-2.2464,-2.1083,-2.0649,-2.4025,-2.5049,-2.5134,-3.044,-3.2582,-3.209,-2.704,-2.5262,-2.4513,-1.9804,-1.8245,-1.8245,-1.8211,-1.7707,-1.7122,0.0,0.0,0.0,-2.6011,-2.9169,-3.2577,-4.1855,-4.586,-4.8102,-5.0452,-5.2067,-5.2944,-5.2277,-5.3296,-5.4314,-5.4349,-5.4981,-5.5507,-5.5507,-5.5543,-5.6104,-5.7579,-5.786,-5.8421,-5.9931,-6.0107,-6.0107,-6.0107,-6.0107,-6.0107,-6.0107,-6.0107,-6.0107,-6.0107,-6.0949,-6.2073,-6.3547,-6.4425,-6.5479,-6.684,-6.7427,-6.7933,-6.8397,-6.8397,-6.867,-6.9161,-6.9161,-6.9564,-7.0163,-7.0232,-7.0232,-7.03,-7.1067,-7.1359,-7.1422,-7.2167,-7.2438,-7.2438,-7.2496,-7.2496,-7.2496,0.0,0.0,0.0,0.0,0.0,0.0,0.0,0.0,0.0,0.0,0.0,0.0,0.0,-1.312,-1.2819,-1.2819,-1.3347,-1.4013,-1.4854,-1.494,-1.505,-1.5331,-1.5368,-1.5221,-1.494,-1.5221,-1.549,-1.571,-1.6555,-1.9344,-2.3896,-2.5511,-2.7567,-2.9892,-2.9078,-2.8154,-2.6983,-2.3217,-2.1324,-2.1171,-2.4384,-2.7121,-2.9275,-2.9712,-3.2517,-3.545,-2.9875,0.0,-2.5511,-2.4166,-2.1884,-1.943,-1.85,-1.7983,-1.7569,-1.657,-1.6984,-1.8853,-2.3954,-2.7118,0.0,-3.6986,-4.1821,-4.5544,-4.7366,-4.9802,-5.1891,-5.2628,-5.319,-5.3717,-5.4208,-5.4981,-5.5507,-5.5507,-5.5507,-5.5859,-5.6877,-5.7474,-5.8211,-5.9264,-5.9826,-6.0107,-6.0107,-6.0107,-6.0107,-6.0107,-6.0107,-6.0107,-6.0107,-6.13,-6.2182,-6.2608,-6.4323,-6.5722,-6.6586,-6.698,-6.7298,-6.7616,-6.794,-6.8469,-6.9175,-6.9618,-7.0237,-7.1002,-7.1547,-7.1485,-7.1067,-7.183,-7.2108,-7.2108,-7.238,-7.2496,-7.2496,-7.2496,-7.2496,-7.2569,0.0,0.0,0.0,0.0,0.0,0.0,0.0,0.0,0.0,-1.2961,0.0,0.0,0.0,0.0,-1.2811,-1.2527,-1.3004,-1.3409,-1.3692,-1.3949,-1.4095,-1.4095,-1.4352,-1.4488,-1.4488,-1.4242,-1.4499,-1.5307,-1.5307,-1.7509,-2.1804,-2.3419,-2.5328,-2.7361,-2.6982,-2.7488,0.0,0.0,0.0,-2.2747,-2.7302,-2.98,-3.1016,-3.3019,-3.5705,-3.7787,-3.357,0.0,-2.9347,-2.906,-2.7255,-2.4549,-2.1371,-1.8843,-1.6797,-1.5521,-1.6226,-1.8025,-2.0605,-2.3553,-2.7191,-3.2683,-3.6806,-4.0691,-4.539,-4.7927,-4.9995,-5.2312,-5.298,-5.3331,-5.3822,-5.4384,-5.4911,-5.5437,-5.5507,-5.5753,-5.649,-5.7298,-5.8105,-5.8913,-5.965,-6.0107,-6.0107,-6.0107,-6.0107,-6.0008,-6.0008,-5.9943,-5.9914,-6.1103,-6.2115,-6.274,-6.47,-6.6038,-6.6708,-6.6848,-6.7057,-6.7477,-6.7781,-6.8296,-6.9095,-6.9543,-7.0386,-7.1369,-7.1882,-7.197,-7.183,-7.2285,-7.2496,-7.2496,-7.2496,-7.2496,-7.2496,-7.2496,-7.2496,-7.2606,0.0,0.0,0.0,0.0,0.0,0.0,0.0,0.0,-1.148,-1.3078,0.0,0.0,0.0,0.0,0.0,-1.3445,-1.3335,-1.3004,-1.2187,-1.2858,-1.3262,-1.3262,-1.4022,-1.4451,-1.4451,-1.3702,-1.3702,-1.4451,-1.4451,-1.6078,-1.9213,-2.0903,-2.3382,-2.6298,-2.4574,-2.5497,-2.8211,0.0,-2.5374,-2.5362,0.0,-3.3222,-3.0268,-4.1178,-4.2995,-3.9547,-3.8436,-3.7502,-3.6456,-3.4315,-3.3876,-3.3057,-2.6458,-1.9976,-1.4658,-1.3847,-1.4693,-1.5916,0.0,0.0,0.0,-2.8826,-3.0664,-3.3554,-4.4222,0.0,-4.7121,-5.0959,-5.2558,-5.3225,-5.319,-5.3225,-5.3752,-5.5227,-5.5472,-5.5718,-5.6455,-5.7263,-5.807,-5.8878,-5.9615,-6.0072,-6.0107,-6.0107,-6.0008,-5.9779,-5.9814,-5.9748,-5.9621,-6.0352,-6.1768,-6.3972,-6.5268,-6.6308,-6.7032,-6.6868,-6.716,-6.7909,-6.7873,-6.8299,-6.8995,-6.8995,-6.9864,-7.1284,-7.1321,-7.1762,-7.2459,-7.2496,-7.2496,-7.2496,-7.2496,-7.2496,-7.2496,-7.2496,-7.2496,-7.2663,0.0,0.0,0.0,0.0,0.0,-1.1526,-1.1746,-1.1783,-1.215,0.0,0.0,0.0,-1.3629,-1.4169,-1.4646,-1.4976,-1.4499,-1.3838,-1.3004,-1.2637,-1.2444,-1.2444,-1.3188,-1.3629,-1.3629,-1.3409,-1.3409,-1.3629,-1.3629,-1.4389,-1.5894,-1.8096,-1.9895,-2.1363,-2.2667,-2.3727,-2.4433,-2.3602,0.0,-2.746,-3.3494,-3.5914,0.0,-4.2923,-4.5911,-4.6541,-4.4738,-4.1973,-3.9265,-4.0127,-3.4702,-2.6619,-2.0882,-1.7234,-1.4838,-1.3894,-1.4693,-1.5778,-1.5262,0.0,0.0,0.0,0.0,0.0,-3.3556,0.0,-4.4914,-4.656,-5.0678,-5.3822,-5.3296,-5.4103,-5.4805,-5.4665,-5.463,-5.4911,-5.5683,-5.6455,-5.7228,-5.8035,-5.8843,-5.951,-6.0036,-5.9943,-5.9879,-5.9779,-5.9683,-5.9652,-5.9621,-6.1204,-6.2904,-6.4822,-6.539,-6.5859,-6.6272,-6.6546,-6.6873,-6.7053,-6.7506,-6.8159,-6.8913,-6.8913,-6.9465,-7.0477,-7.1064,-7.1431,-7.1688,-7.2275,-7.2496,-7.2496,-7.2496,-7.2496,-7.2496,-7.2496,-7.261,-7.2909,0.0,0.0,-1.1407,-1.1407,-1.2333,-1.3214,-1.3545,-1.3875,-1.4279,0.0,0.0,0.0,-1.4793,-1.5821,-1.6298,-1.5747,-1.4976,-1.4022,-1.2858,-1.237,-1.2113,-1.2113,-1.2858,-1.3592,-1.429,-1.3629,-1.3445,-1.3802,-1.3445,-1.3555,-1.4022,-1.6114,-1.7362,-1.7876,-1.9675,-2.0849,-2.1456,-2.1134,0.0,0.0,-3.4146,0.0,0.0,-4.3178,-4.5617,-4.5478,-4.6633,-4.4983,-4.2698,-4.5403,-3.8645,-2.8472,-2.5027,-2.051,-1.6272,-1.5051,-1.5938,-1.7087,-1.6003,-1.7176,-1.8901,-1.9843,0.0,0.0,-3.2298,-3.7443,-4.2184,-4.7201,-5.1296,-5.3887,-5.3599,-5.3722,-5.402,-5.457,-5.4204,-5.4103,-5.4911,-5.5648,-5.642,-5.7228,-5.7973,-5.8577,-5.8997,-5.887,-5.8975,-5.9446,-5.9453,-5.9937,-6.1078,-6.2533,-6.4081,-6.5752,-6.6283,-6.6523,-6.6677,-6.7004,-6.7117,-6.7117,-6.7488,-6.7944,-6.8385,-6.8385,-6.8825,-6.9633,-7.044,-7.0991,-7.1358,-7.2165,-7.2496,-7.2496,-7.261,-7.2667,-7.2686,-7.2798,-7.2741,-7.2775,0.0,0.0,-1.2297,-1.248,-1.3765,-1.5123,-1.6078,-1.6688,-1.7128,0.0,-1.7422,-1.7532,-1.7825,-1.8867,-1.872,-1.6555,-1.538,-1.4084,-1.248,-1.2113,-1.2003,-1.2113,-1.2858,-1.396,-1.538,-1.4107,-1.3702,-1.4231,-1.3519,-1.3151,-1.3188,-1.4731,-1.549,-1.56,-1.6395,-1.7582,-1.8919,-1.9381,-2.1473,-2.5254,-3.4357,-3.5679,0.0,-4.2887,-4.4049,-4.1178,-4.6306,-4.7066,-4.6088,-4.8846,-4.3466,-3.5323,-3.355,-2.7115,-1.9688,-1.7206,-1.8248,-1.9727,-1.7838,-1.828,-1.9774,-2.1703,-2.0291,0.0,-3.4374,-3.6471,-3.836,-4.8021,-5.0928,-5.1874,-5.2151,-5.1144,-5.0966,-5.2854,-5.2873,-5.3036,-5.4244,-5.5051,-5.5788,-5.6526,-5.7202,-5.7596,-5.7701,-5.7611,-5.8044,-5.9001,-5.9213,-6.0458,-6.3199,-6.3978,-6.512,-6.6641,-6.7378,-6.7687,-6.7687,-6.7687,-6.7687,-6.7687,-6.7687,-6.7687,-6.7687,-6.7687,-6.8091,-6.8825,-6.9706,-7.0513,-7.1248,-7.2129,-7.2496,-7.2496,-7.2798,-7.2908,-7.2963,-7.3193,-7.2778,-7.2495,-1.1526,-1.2417,-1.3482,-1.4756,-1.5771,-1.7128,-1.9219,-1.861,-1.8574,-2.0592,-2.0849,-2.1584,-2.3529,-2.2299,-2.1123,-2.0645,-1.806,-1.5735,-1.4132,-1.2214,-1.1407,-1.2076,-1.2858,-1.3445,-1.3776,-1.4095,-1.3728,-1.2554,-1.2407,-1.2333,-1.237,-1.3335,-1.4095,-1.4793,-1.5564,-1.6114,-1.6628,-1.9911,0.0,-2.6576,-3.1715,-3.5202,-3.7991,-4.4527,-4.7238,-4.7826,-4.9585,-4.8944,-4.6916,-4.4111,-4.2123,-3.9475,-3.1819,-2.9979,-2.9014,-2.0802,-2.1726,-2.4499,-2.0301,-1.9247,-1.9258,-1.9142,-1.9533,0.0,-2.122,-2.6428,-3.1355,0.0,-3.7013,-4.1039,-4.1051,-4.1815,-4.2166,-4.1358,-4.5669,-5.0535,-5.4688,-5.5402,-5.5788,-5.6526,-5.7035,-5.7588,-5.8166,-5.9005,-5.9322,-5.8881,-5.9929,-6.133,-6.3199,-6.4577,-6.5721,-6.6641,-6.7378,-6.7687,-6.7687,-6.7687,-6.7687,-6.7687,-6.7687,-6.7687,-6.7687,-6.7687,-6.7797,-6.8017,-6.9449,-7.0183,-7.044,-7.1908,-7.2496,-7.2496,-7.2798,-7.2908,-7.2963,-7.3193,-7.2931,-7.2484,-1.2113,-1.3728,-1.5343,-1.6151,-1.7986,-1.9748,-2.096,-2.1143,-2.1437,-2.2281,-2.3456,-2.4337,-2.474,-2.4099,-2.296,-2.129,-1.9271,-1.7252,-1.5233,-1.3571,-1.2507,-1.2113,-1.2858,-1.3666,-1.4474,-1.4511,-1.4095,-1.3288,-1.2894,-1.227,-1.1526,-1.2333,-1.4646,-1.8023,-1.5613,-1.6751,-2.0499,-1.9675,-2.1216,-2.485,-3.2118,0.0,-4.1111,-4.6801,-4.8967,-4.915,-5.0802,-5.0717,-4.9569,-4.7405,-4.4455,-4.1075,-3.715,-3.4863,-3.2311,-2.5724,-2.6165,-2.7638,-2.2416,-2.1163,-2.1264,-2.0921,-2.0547,0.0,0.0,-2.56,-2.8413,-3.1462,-3.4148,-3.6218,-3.7033,-3.7524,-3.7874,-3.8302,-4.3522,-4.7654,-4.7854,-5.236,-5.5917,-5.6664,-5.6827,-5.7061,-5.7453,-5.7866,-5.8427,-5.9132,-6.0485,-6.1969,-6.3599,-6.4748,-6.5752,-6.6554,-6.7305,-6.7687,-6.7687,-6.7847,-6.7899,-6.7899,-6.8055,-6.807,-6.807,-6.807,-6.807,-6.8144,-6.9399,-7.0138,-7.0581,-7.18,-7.2539,-7.2908,-7.3034,-7.3087,-7.3141,-7.3591,-7.3052,-7.2211,-1.2407,-1.4683,-1.6725,-1.6872,-1.9344,-2.1454,-2.1748,-2.2905,-2.3695,-2.3548,-2.5715,-2.6891,-2.5755,-2.6176,-2.5548,-2.3033,-2.1804,-2.0079,-1.7509,-1.6298,-1.5294,-1.4482,-1.3882,-1.4692,-1.7098,-1.5416,-1.4327,-1.4022,-1.3235,-1.2169,-1.093,-1.1709,-1.4976,-2.0021,-1.6678,-1.8368,0.0,0.0,0.0,-2.4907,0.0,-3.8432,-4.0855,-4.6874,-4.8416,-4.7755,-5.0545,-5.1646,-5.1683,-5.1246,-4.7169,-4.2316,-4.2206,-3.9428,-3.5177,-3.0038,-3.0486,-3.1232,-2.4787,-2.3656,-2.417,-2.3455,-2.2168,-2.2273,0.0,0.0,0.0,0.0,0.0,0.0,0.0,-3.2965,-3.3112,-3.5007,-4.0195,0.0,0.0,-4.6677,0.0,-5.3612,-5.5466,-5.6312,-5.5506,-5.5486,-5.6737,-5.9771,-6.0103,-6.1337,-6.3943,-6.5007,-6.5852,-6.6476,-6.7283,-6.7687,-6.7687,-6.7952,-6.8018,-6.807,-6.8173,-6.8271,-6.8468,-6.832,-6.832,-6.8543,-6.936,-7.0177,-7.0958,-7.1775,-7.2592,-7.3298,-7.335,-7.3438,-7.349,-7.3971,-7.3146,-7.1862,-1.3041,-1.4621,-1.6078,-1.6762,-1.839,-2.0094,-2.1564,-2.1968,-2.2884,-2.5096,-2.7954,-3.006,-3.0746,-3.0793,-3.087,-3.1201,-2.9219,-2.6576,-2.3456,-2.114,-2.0815,-2.2906,-1.7509,-1.6966,-2.2306,-1.7224,-1.3787,-1.2363,-1.1572,-1.1077,-1.093,-1.1709,-1.2847,-1.4474,-1.9601,-2.0441,0.0,0.0,-2.8213,0.0,-3.5376,-3.4908,0.0,-4.0561,-4.3571,-4.4562,-4.8453,-5.0325,-5.0618,-4.8493,-4.7169,-4.5369,-3.9245,-4.1098,-4.3243,-3.1434,0.0,0.0,0.0,-2.6729,-2.6892,-2.3334,-2.3799,-2.4073,-2.0047,0.0,-2.1442,-2.0999,0.0,-2.178,0.0,0.0,0.0,-2.2693,-2.8362,0.0,-3.1816,-3.7571,-4.1941,-4.2053,-5.1072,-5.5776,-5.1946,-5.2126,-5.4964,-6.0909,-5.7547,-5.7813,-6.3759,-6.5521,-6.6402,-6.6512,-6.7283,-6.7687,-6.7687,-6.7741,-6.7899,-6.807,-6.7331,-6.7518,-6.8468,-6.7688,-6.7763,-6.8543,-6.936,-7.0177,-7.0958,-7.1775,-7.2592,-7.335,-7.3628,-7.3728,-7.3815,-7.4104,-7.3054,-7.1537,-1.2353,-1.429,-1.5821,-1.6151,-1.8351,-2.0335,-2.0939,-2.3158,-2.5338,-2.6879,-2.913,-3.0878,-3.163,-3.0843,-3.0715,0.0,-3.016,-2.7868,-2.513,-2.3511,-2.1943,-2.0241,-1.7472,-1.6904,-1.8906,-1.561,-1.3497,-1.2794,-1.1525,-1.0678,-1.0204,-1.1049,-1.3838,-1.8368,-2.107,-2.395,-2.6826,0.0,-3.012,0.0,0.0,-3.4281,0.0,-4.3387,-4.7131,-4.7241,-4.8967,-5.0105,-5.0729,-5.0181,-4.7831,-4.5256,-4.5992,-4.4444,-4.1493,-3.6912,0.0,0.0,-2.9771,-2.9637,-3.0399,-2.595,-2.6271,-2.6336,-2.1279,-1.9749,-1.9464,-1.9666,0.0,0.0,0.0,0.0,0.0,0.0,-2.533,-2.8518,0.0,0.0,-3.9234,0.0,0.0,0.0,-5.0785,-5.4663,-5.8179,-6.095,-6.0,-6.032,-6.2756,-6.4414,-6.557,-6.6162,-6.7455,-6.8171,-6.8171,-6.8284,-6.8383,-6.8528,-6.8287,-6.8464,-6.8892,-6.8518,-6.8556,-6.8892,-6.9266,-7.0163,-7.1397,-7.1733,-7.263,-7.3826,-7.4009,-7.3961,-7.3815,-7.4104,-7.34,-7.2229,-1.0969,-1.3276,-1.5083,-1.5095,-1.7881,-2.0284,-2.0883,-2.3607,-2.6169,-2.7699,-2.942,-3.1052,-3.2387,-3.2039,-3.2349,0.0,-3.3287,-3.1605,-2.8956,-2.7175,-2.5372,-2.3525,-1.953,-1.8236,-2.0159,-1.5931,-1.3471,-1.2978,-1.1571,-1.0723,-1.0359,-1.0975,-1.4426,-2.0241,-2.2243,-2.6334,-3.1796,0.0,-3.2904,-3.3113,-3.6241,-3.7558,-3.8499,-4.6177,-4.9444,-4.9848,-4.9407,-4.9921,-5.0765,-5.0475,-4.7941,-4.5622,-4.9412,-4.6432,-4.1525,0.0,0.0,0.0,-3.281,-3.3338,-3.4086,-2.7901,-2.7232,-2.6859,-2.2291,-2.0203,-1.9457,-2.0287,-1.9607,0.0,0.0,0.0,-1.8228,-1.8752,0.0,-2.4454,0.0,0.0,0.0,0.0,0.0,0.0,0.0,-5.3481,-5.718,-5.8104,-5.9743,-6.1107,-6.2031,-6.3363,-6.4493,-6.5274,-6.7131,-6.8023,-6.78,-6.8399,-6.8763,-6.8772,-6.8765,-6.8891,-6.9203,-6.8978,-6.9015,-6.9203,-6.9203,-7.0029,-7.1381,-7.1606,-7.2545,-7.3859,-7.4122,-7.4056,-7.3912,-7.4104,-7.3672,-7.2754,-0.8865,-1.1356,-1.3569,-1.3587,-1.633,-1.9388,-2.1789,-2.2253,-2.3564,-2.6986,-2.8663,-3.0847,-3.4319,-3.6409,-3.8517,-4.0956,-4.1636,-4.0524,-3.7323,-3.3445,-3.3707,-3.9217,-2.5838,-2.2354,-3.1125,-2.024,-1.3687,-1.2142,-1.1315,-1.1306,-1.2003,-1.204,-1.3435,-1.62,-2.3345,-2.6597,-2.7149,-3.3396,-3.8638,-4.2776,-4.2957,-4.592,-4.9848,-4.625,-4.7352,-5.0545,-4.893,-4.9407,-5.0325,-4.7243,-4.7095,-4.7683,-4.4884,-4.5844,-4.7316,-4.3721,-4.5901,-4.7568,-3.8841,-3.8238,-3.7765,-2.798,-2.5615,-2.4616,-2.0522,-2.076,-2.1649,-2.0923,-2.2543,-2.3619,-2.2189,-2.0399,-1.9172,-1.9166,-1.8724,0.0,0.0,0.0,0.0,0.0,0.0,0.0,0.0,-4.4757,-4.8155,0.0,-5.3867,-5.7401,-6.2034,-6.3074,-6.3519,-6.3602,-6.5979,-6.6871,-6.6091,-6.7688,-6.8613,-6.8772,-6.8024,-6.8197,-6.9203,-6.8377,-6.8452,-6.9203,-6.9203,-6.9729,-7.0592,-7.1381,-7.2207,-7.3033,-7.3859,-7.4197,-7.4197,-7.4197,-7.3579,-7.2773,-1.1173,-1.2148,-1.2676,-1.2038,-1.4727,-1.8208,-2.1784,-2.3334,-2.537,-2.9026,-3.1036,-3.3515,-3.7068,-3.7697,-3.9007,-4.1788,-4.1245,-4.0073,-3.8419,-3.5214,-3.3957,-3.5246,-2.6581,-2.3353,-2.676,-1.9849,-1.5402,-1.3745,-1.2904,-1.2637,-1.2894,-1.2894,-1.4169,-1.6812,-2.364,-2.8058,0.0,0.0,0.0,0.0,0.0,-4.6065,-4.9111,-4.8857,-4.926,-4.9921,-4.9334,-5.0545,-5.216,-5.0512,-4.9746,-4.9529,-5.0046,-4.8085,-4.5807,-4.6624,-4.6508,-4.5611,-4.3178,-4.4265,-4.3943,-3.5231,-3.2953,-3.0954,-2.3631,-2.2407,-2.2391,-2.1087,-2.2757,-2.3928,-2.2296,-2.0581,-1.956,-2.0099,-1.8595,-1.7229,0.0,0.0,0.0,0.0,0.0,0.0,0.0,0.0,0.0,0.0,-5.6657,0.0,-6.1698,-6.2519,-6.3313,-6.4,-6.6431,-6.7591,-6.7336,-6.8376,-6.8983,-6.9072,-6.8772,-6.8853,-6.9203,-6.894,-6.894,-6.9203,-6.9203,-6.9691,-7.0555,-7.1381,-7.217,-7.2996,-7.3859,-7.4197,-7.4197,-7.4197,-7.3916,-7.3522,-1.2488,-1.2112,-1.1778,-1.2033,-1.4608,-1.7985,-2.1878,-2.4384,-2.7009,-3.0263,-3.246,-3.5057,-3.8572,-3.9036,-3.9978,-4.2263,-4.2202,-4.1282,-3.9349,-3.7683,-3.6488,-3.589,-3.0315,-2.788,-2.9398,-2.327,-1.9265,-1.7587,-1.56,-1.4596,-1.4573,-1.3985,-1.5172,-1.8001,-2.2552,-2.7618,-3.3093,-3.8401,-4.1784,0.0,0.0,-4.7922,-4.9614,-5.1009,-5.0578,-4.9299,-5.0181,-5.1463,-5.2747,-5.2614,-5.2146,-5.2007,-5.3817,-5.1491,-4.8501,-5.0559,-4.9735,-4.7932,-4.7137,-4.8413,-4.8087,-4.0141,-3.8074,-3.5801,-2.7343,-2.5838,-2.5876,-2.4557,-2.4854,-2.5912,-2.7751,-2.4094,-2.1368,-2.3075,-2.0041,-1.6867,0.0,-1.5277,0.0,0.0,0.0,0.0,0.0,0.0,0.0,0.0,0.0,0.0,0.0,-6.1946,-6.2701,-6.3383,-6.5261,-6.6387,-6.6687,-6.7776,-6.849,-6.879,-6.9091,-6.9203,-6.9203,-6.9203,-6.9203,-6.9203,-6.9203,-6.9541,-7.0104,-7.093,-7.1757,-7.2545,-7.3409,-7.3934,-7.4197,-7.4197,-7.4104,-7.3838,-1.2718,-1.1468,-1.1167,-1.3647,-1.6017,-1.8731,-2.2085,-2.5256,-2.819,-3.0735,-3.3007,-3.5727,-3.9133,-4.0637,-4.1846,-4.2854,-4.4847,-4.4446,-4.0852,-4.1077,-4.1451,-4.16,-3.6796,-3.5515,-3.8579,-3.0073,-2.4762,-2.3033,-1.9074,-1.7049,-1.6872,-1.5331,-1.6311,-1.9368,-2.0329,-2.5531,-3.3733,-3.6266,-4.183,-4.9039,-5.0766,-5.1479,-5.1566,-5.255,-5.1151,-4.897,-5.1242,-5.216,-5.2385,-5.3289,-5.4146,-5.4921,-5.5702,-5.5529,-5.5096,-5.5096,-5.5174,-5.4501,-5.0787,-5.082,-5.0151,-4.2818,-4.0887,-3.8846,-3.166,-3.1154,-3.1987,-3.1266,-2.9258,-2.9906,-3.7373,-3.0389,-2.4428,-2.7343,-2.2439,-1.7226,0.0,0.0,0.0,0.0,0.0,0.0,0.0,0.0,0.0,0.0,0.0,0.0,0.0,-6.1055,-6.1468,-6.1768,-6.2632,-6.3458,-6.4209,-6.5899,-6.7138,-6.7964,-6.8753,-6.9166,-6.9203,-6.9203,-6.9203,-6.9203,-6.9203,-6.9203,-6.9278,-7.0142,-7.093,-7.1681,-7.2507,-7.3371,-7.416,-7.4197,-7.4009,-7.3815,-1.4443,-1.4634,-1.536,-1.727,-1.7584,-1.8731,-2.2085,-2.5201,-2.8596,-3.265,-3.5695,-3.9081,-4.3429,-4.42,-4.504,-4.6505,-4.7161,-4.7088,-4.6177,-4.4775,-4.4183,-4.4635,-3.9601,-3.6989,-3.7582,-3.0772,-2.6098,-2.3802,-2.0441,-1.8153,-1.6908,-1.6468,-1.7148,-1.8737,-2.0692,-2.5854,-3.3264,-3.627,-4.2001,-4.9222,-5.0283,-5.032,-5.0101,-5.3478,-5.3207,-5.1238,-5.29,-5.4326,-5.5367,-5.5053,-5.5595,-5.6478,-5.6236,-5.6139,-5.6107,-5.622,-5.592,-5.5392,-5.4873,-5.4235,-5.2701,-4.8758,-4.5966,-4.3141,-3.9333,-3.8339,-3.8116,-3.7931,-3.7856,-3.6965,-3.4179,-3.0463,-2.686,-2.4036,-2.0604,0.0,0.0,0.0,0.0,0.0,0.0,0.0,0.0,0.0,0.0,0.0,0.0,0.0,0.0,0.0,-5.6701,-6.1618,-6.2632,-6.3195,-6.3421,-6.5035,-6.6274,-6.71,-6.7926,-6.864,-6.9203,-6.9203,-6.9203,-6.9203,-6.9203,-6.9203,-6.9278,-7.0142,-7.0255,-6.9992,-7.1456,-7.2686,-7.3614,-7.3841,-7.4019,-7.4047,-1.6208,-1.7767,-1.9181,-1.9372,-2.1026,-2.2918,-2.4788,-2.6896,-2.9795,-3.4006,-3.7404,-4.0634,-4.3761,-4.5773,-4.7201,-4.7955,-4.8607,-4.836,-4.6763,-4.7058,-4.6691,-4.537,-4.3311,-4.1992,-4.146,-3.623,-3.1836,-2.847,-2.4524,-2.1084,-1.8155,-1.7028,-1.7014,-1.8027,-2.006,-2.4611,-3.1168,-3.7485,-4.3314,-4.8483,-4.9984,-5.0936,0.0,-5.4503,-5.4913,-5.4173,-5.5322,-5.5953,-5.6271,-5.6301,-5.6731,-5.727,-5.7283,-5.7183,-5.7079,-5.7041,-5.6557,-5.6143,-5.6519,-5.5958,-5.4837,-5.29,-5.1039,-4.8654,-4.4649,-4.3392,-4.3169,-4.3503,-4.1943,-4.0903,-4.224,-3.559,-2.7937,-2.194,0.0,0.0,0.0,0.0,0.0,0.0,0.0,0.0,0.0,0.0,0.0,0.0,0.0,0.0,0.0,0.0,-5.4603,-5.9478,-6.1205,-6.2369,-6.3083,-6.3984,-6.5035,-6.6237,-6.7063,-6.7889,-6.8715,-6.9053,-6.9203,-6.9203,-6.9203,-6.9203,-6.9241,-6.9353,-6.9353,-6.9353,-7.0804,-7.1869,-7.2708,-7.2845,-7.3582,-7.4497,-1.7928,-2.0442,-2.2199,-2.0824,-2.4884,-2.8555,-2.9194,-3.0187,-3.2089,-3.5578,-3.901,-4.1679,-4.3,-4.643,-4.8567,-4.8547,-4.9852,-4.9277,-4.5956,-4.8879,-4.9131,-4.5589,-4.7197,-4.7813,-4.7016,-4.2917,-3.8456,-3.3759,-2.8973,-2.4046,-1.9081,-1.7117,-1.6515,-1.7253,-1.9114,-2.3446,0.0,-3.9332,-4.5073,-4.809,-5.0227,-5.2552,-5.4843,-5.5655,-5.6424,-5.7184,-5.7884,-5.7258,-5.6233,-5.7274,-5.758,-5.7769,-5.8475,-5.8337,-5.7898,-5.7739,-5.7223,-5.6743,-5.6742,-5.663,-5.6369,-5.5546,-5.5322,-5.4019,-4.8962,-4.7701,-4.785,-4.8667,-4.4766,-4.4023,-5.3311,-4.2092,-2.9089,-2.203,0.0,0.0,0.0,0.0,0.0,0.0,0.0,0.0,0.0,0.0,0.0,0.0,0.0,0.0,0.0,0.0,0.0,-5.7004,-5.9478,-6.143,-6.2745,-6.3008,-6.3871,-6.5336,-6.6199,-6.71,-6.8039,-6.8715,-6.9128,-6.9203,-6.9203,-6.9203,-6.9166,-6.8452,-6.8565,-6.9278,-7.0294,-7.109,-7.1681,-7.1798,-7.3071,-7.4676,-1.9678,-2.1244,0.0,-2.3155,-2.6129,-2.9846,-3.3918,-3.5604,-3.7231,-3.9526,-4.2585,-4.5357,-4.7508,-4.8679,-4.9818,-5.1136,-5.1828,-5.1908,-5.126,-5.1923,-5.1456,-4.9496,-4.9245,-4.848,-4.7016,-4.278,-3.775,-3.2019,-2.8197,-2.2666,-1.5687,-1.6617,-1.6876,-1.6595,-1.9574,-2.6639,-3.6621,-4.0985,-4.6194,-5.1527,-5.1894,-5.3643,-5.6069,-5.7004,-5.7786,-5.849,-5.8681,-5.8359,-5.781,-5.801,-5.8171,-5.8295,-5.8577,-5.8624,-5.8553,-5.8635,-5.812,-5.7564,-5.7407,-5.6886,-5.6366,-5.6137,-5.6137,-5.584,-5.4834,-5.4017,-5.3757,-5.4611,-5.3423,-5.1416,-4.8704,-4.1311,-3.3881,-2.8552,0.0,0.0,0.0,0.0,0.0,0.0,0.0,0.0,0.0,0.0,0.0,0.0,0.0,0.0,0.0,0.0,0.0,0.0,-6.0642,-6.1393,-6.1055,-6.2407,-6.3571,-6.451,-6.5336,-6.6537,-6.8002,-6.8152,-6.8565,-6.9203,-6.9203,-6.9203,-6.9203,-6.9053,-6.9003,-6.9072,-6.9407,-7.0302,-7.1371,-7.2353,-7.3122,-7.3622,-2.3193,0.0,0.0,0.0,-3.0842,-3.412,-3.8191,-4.0879,-4.251,-4.28,-4.392,-4.5531,-4.7725,-4.9332,-5.0743,-5.1925,-5.2197,-5.2425,-5.268,-5.2761,-5.2441,-5.1675,-5.0915,-5.0138,-4.9233,-4.6252,-4.1193,-3.4031,-3.0457,-2.4664,-1.6962,-1.6442,-1.6284,-1.6658,-2.2338,-2.8909,-3.6047,-4.1203,-4.5988,-5.0261,-5.1862,-5.4204,-5.6842,-5.7634,-5.8568,-5.9386,-5.942,-5.9282,-5.9028,-5.8619,-5.8486,-5.8572,-5.8656,-5.8698,-5.8698,-5.8777,-5.8561,-5.8263,-5.8182,-5.755,-5.6955,-5.6915,-5.6617,-5.632,-5.632,-5.5986,-5.58,-5.6209,-5.5654,-5.3349,-4.7582,-4.2196,-3.7708,-3.4884,-3.2878,0.0,0.0,0.0,0.0,0.0,0.0,0.0,0.0,0.0,0.0,0.0,0.0,0.0,0.0,0.0,0.0,0.0,0.0,0.0,-6.1128,-6.2443,-6.3537,-6.4445,-6.4936,-6.5992,-6.7615,-6.8067,-6.8625,-6.9203,-6.9203,-6.9203,-6.9166,-6.8884,-6.8696,-6.857,-6.9133,-6.9883,-7.0785,-7.1341,-7.1827,-7.2227,-2.7358,-2.7892,-2.923,-3.3089,-3.6054,-3.8823,-4.1607,-4.4764,-4.6488,-4.547,-4.5354,-4.6046,-4.7844,-5.0071,-5.1688,-5.2308,-5.2492,-5.2668,-5.2999,-5.3072,-5.3072,-5.303,-5.2077,-5.1519,-5.1404,-4.9762,-4.5228,-3.7674,-3.3675,-2.7612,-1.9788,-1.7035,-1.6965,-1.9473,-2.5945,-3.1724,-3.6859,-4.1867,-4.6127,-4.9709,-5.1982,-5.4721,-5.7506,-5.8173,-5.9095,-6.0027,-6.0027,-5.9998,-5.9817,-5.9178,-5.8947,-5.8947,-5.8947,-5.8947,-5.8947,-5.8947,-5.8905,-5.8825,-5.8784,-5.8297,-5.7769,-5.7769,-5.7286,-5.6806,-5.6699,-5.6625,-5.659,-5.6294,-5.5585,-5.342,-4.8058,-4.5127,-4.3088,-4.1646,-3.7002,0.0,0.0,0.0,0.0,0.0,0.0,0.0,0.0,0.0,0.0,0.0,0.0,0.0,0.0,0.0,0.0,0.0,0.0,-6.1016,-6.0076,-6.2216,-6.3765,-6.463,-6.4777,-6.5571,-6.7083,-6.7918,-6.8641,-6.9155,-6.9344,-6.9378,-6.934,-6.8903,-6.8639,-6.8522,-6.915,-6.9769,-7.0304,-7.0304,-7.0563,-7.1091,-3.1622,-3.2745,-3.412,-3.6757,-3.9751,-4.2208,-4.3555,-4.5817,-4.7353,-4.741,-4.8785,-5.0068,-5.1002,-5.2333,-5.3187,-5.3277,-5.3662,-5.3903,-5.3795,-5.3905,-5.3905,-5.3683,-5.2233,-5.1554,-5.1845,-5.0506,-4.7296,-4.2181,-3.6689,-3.0065,-2.2462,-1.9071,-2.1228,-2.8087,-2.9627,-3.6334,-4.6337,-4.4707,-4.806,-5.4379,-5.3812,-5.5389,-5.8212,-5.8909,-5.9728,-6.0444,-6.0444,-6.0196,-5.9908,-5.9817,-5.9785,-5.9785,-5.9785,-5.9785,-5.9785,-5.969,-5.9462,-5.9214,-5.9178,-5.887,-5.8586,-5.8586,-5.8549,-5.8334,-5.7941,-5.7865,-5.7486,-5.6279,-5.5201,-5.3286,-4.9403,-5.1489,-5.2753,-4.9596,-5.0376,-5.2159,0.0,0.0,-4.9551,0.0,0.0,0.0,0.0,-3.7401,0.0,0.0,0.0,0.0,0.0,0.0,0.0,-4.984,0.0,-5.577,-5.498,-6.1014,-6.4291,-6.4777,-6.4813,-6.5373,-6.6483,-6.742,-6.8259,-6.8963,-6.9763,-7.0071,-6.9999,-6.9851,-6.9738,-6.9701,-6.9663,-6.9918,-7.0304,-7.0304,-7.0563,-7.0937,-3.7063,-3.7139,-3.8094,-4.1648,-4.2661,-4.39,-4.6647,-4.8504,-4.953,-4.9296,-4.9877,-5.1009,-5.2856,-5.3034,-5.3166,-5.3489,-5.3641,-5.386,-5.4118,-5.4255,-5.4251,-5.4183,-5.3607,-5.3513,-5.3949,-5.1915,-4.906,-4.5379,-3.7939,-3.1708,-2.663,-2.4722,-2.7393,-3.3975,-3.77,-4.1963,-4.6454,-4.8853,-5.161,-5.4344,-5.495,-5.641,-5.8319,-5.9557,-6.0381,-6.0843,-6.0843,-6.0779,-6.0627,-6.0627,-6.0277,-5.9908,-5.9908,-5.9908,-5.9908,-5.9878,-5.9754,-5.9625,-5.9564,-5.9462,-5.9359,-5.9361,-5.9363,-5.9286,-5.9122,-5.908,-5.8593,-5.6828,-5.561,-5.4426,-5.3011,-5.208,-5.2231,-5.4242,-5.2085,-5.1751,-5.6357,0.0,0.0,0.0,0.0,0.0,0.0,0.0,0.0,0.0,0.0,0.0,0.0,0.0,0.0,-5.1857,0.0,-6.0931,-6.0414,-6.3088,-6.4483,-6.452,-6.4879,-6.5465,-6.6298,-6.6934,-6.7782,-6.8849,-6.9192,-6.9614,-6.9999,-7.0175,-7.0205,-7.0171,-7.0337,-7.0532,-7.0652,-7.0652,-7.0748,-7.0898,-4.1953,-4.1648,-4.245,-4.6462,-4.6648,-4.721,-5.0145,-5.1358,-5.1954,-5.1825,-5.1582,-5.2117,-5.3913,-5.3798,-5.3722,-5.4078,-5.4088,-5.4229,-5.4623,-5.4671,-5.4722,-5.4663,-5.4544,-5.4638,-5.5032,-5.3245,-5.1356,-4.9343,-4.1776,-3.6586,-3.3677,-3.1272,-3.3782,-4.0397,-4.3888,-4.6722,-4.901,-5.2302,-5.3981,-5.4541,-5.5451,-5.6783,-5.8428,-5.954,-6.0419,-6.1118,-6.1118,-6.1118,-6.1118,-6.1118,-6.0696,-6.025,-6.025,-6.025,-6.025,-6.0223,-6.0168,-6.0056,-5.9977,-5.9885,-5.9792,-5.9804,-5.9706,-5.9639,-5.9739,-5.9706,-5.9118,-5.7322,-5.6271,-5.5672,-5.557,-5.317,-5.2757,-5.749,-5.3931,-5.2432,-5.7791,-5.7564,0.0,0.0,-5.4112,-5.2183,-4.924,-4.8881,0.0,0.0,0.0,0.0,0.0,0.0,0.0,0.0,0.0,0.0,-6.1716,-6.3492,-6.4476,-6.4701,-6.5112,-6.5605,-6.6178,-6.6681,-6.7573,-6.8738,-6.9005,-6.936,-6.99,-7.0425,-7.0563,-7.0494,-7.0777,-7.0898,-7.0898,-7.0898,-7.0898,-7.0898,-4.5774,-4.6424,-4.7494,-5.0932,-5.2155,-5.2996,-5.3913,-5.4065,-5.4371,-5.525,-5.46,-5.4065,-5.4104,-5.4868,-5.5365,-5.5403,-5.5403,-5.5403,-5.5377,-5.5427,-5.5413,-5.5288,-5.4522,-5.4181,-5.4434,-5.4314,-5.4418,-5.4697,-4.9498,-4.6081,-4.4277,-3.8298,-4.0011,-4.8105,-4.6515,-4.9992,-5.6907,-5.4508,-5.4465,-5.5917,-5.5105,-5.6321,-5.8604,-5.8604,-5.9648,-6.1118,-6.1118,-6.1118,-6.1118,-6.1118,-6.1079,-6.1099,-6.1099,-6.1099,-6.106,-6.1002,-6.0757,-6.0507,-6.0391,-6.0103,-5.9792,-5.9804,-5.9502,-5.9325,-5.9706,-5.9502,-5.8836,-5.7554,-5.6992,-5.6625,-5.6197,-5.615,-5.7006,-5.9467,-5.8403,-5.8166,-6.0715,-5.9289,0.0,-5.0241,-5.0899,-5.0926,-4.8644,-5.0897,0.0,0.0,0.0,0.0,0.0,0.0,0.0,-5.1434,-5.2889,-5.4192,-5.5216,-6.0805,-6.4273,-6.5569,-6.5569,-6.5717,-6.6035,-6.6844,-6.7653,-6.8539,-6.9425,-6.9759,-6.9783,-7.0591,-7.0898,-7.0898,-7.0898,-7.0898,-7.0898,-7.0898,-7.0898,-7.0898,-4.9671,-5.0436,-5.1314,-5.2996,-5.4027,-5.4677,-5.4944,-5.5441,-5.5899,-5.6167,-5.6053,-5.5949,-5.5949,-5.5607,-5.5403,-5.5403,-5.544,-5.5451,-5.5451,-5.566,-5.5745,-5.5724,-5.5499,-5.5403,-5.5498,-5.4939,-5.4975,-5.5625,-4.9885,-4.7124,-4.7124,-4.4612,-4.6776,-5.273,-5.2746,-5.379,-5.5608,-5.5917,-5.6051,-5.6051,-5.636,-5.6979,-5.783,-5.9029,-5.9803,-6.0344,-6.0886,-6.1118,-6.1118,-6.1118,-6.1118,-6.1118,-6.1118,-6.1118,-6.1118,-6.106,-6.1002,-6.0902,-6.0817,-6.0712,-6.0642,-6.0608,-6.0533,-6.0482,-6.0597,-5.9852,-5.8863,-5.7925,-5.7046,-5.6267,-5.5549,-5.5892,-5.6758,-5.8101,-5.8272,-5.8699,-6.0045,-5.9642,-5.8547,-5.6746,-5.7528,-5.7692,-5.6353,-5.8816,0.0,0.0,0.0,0.0,0.0,0.0,0.0,0.0,-5.7824,-6.0813,-6.2118,-6.3359,-6.4336,-6.4971,-6.5367,-6.5663,-6.5923,-6.6192,-6.6731,-6.7564,-6.7847,-6.827,-6.8898,-6.9744,-7.0117,-7.0182,-7.0695,-7.0925,-7.0952,-7.0925,-7.0898,-7.0898,-5.3378,-5.3874,-5.4409,-5.4944,-5.5721,-5.6408,-5.674,-5.7172,-5.7542,-5.7583,-5.7429,-5.7311,-5.732,-5.652,-5.5859,-5.5552,-5.5499,-5.5508,-5.5554,-5.5766,-5.5905,-5.5905,-5.5959,-5.6012,-5.6012,-5.5509,-5.5509,-5.6012,-5.2282,-5.0735,-5.1238,-5.0387,-5.205,-5.5706,-5.5569,-5.5608,-5.5745,-5.6497,-5.6515,-5.6051,-5.6592,-5.7018,-5.7443,-5.8526,-5.9145,-5.9493,-5.9996,-6.0151,-6.0151,-6.0151,-6.0151,-6.0151,-6.0151,-6.0151,-6.0267,-6.0925,-6.1118,-6.1099,-6.1022,-6.1002,-6.0905,-6.0573,-6.0432,-6.0227,-5.9725,-5.9152,-5.8451,-5.7594,-5.6994,-5.6443,-5.56,-5.583,-5.6558,-5.7747,-5.8311,-5.8987,-6.0119,-6.0245,-5.9415,-5.7073,-5.7319,-5.7434,-5.6872,-5.8475,-5.7583,0.0,0.0,0.0,0.0,0.0,-5.9804,-5.7335,-6.0896,-6.3399,-6.4573,-6.4419,-6.4614,-6.5137,-6.5485,-6.5728,-6.5897,-6.5897,-6.6167,-6.6667,-6.6974,-6.7423,-6.8001,-6.8539,-6.8822,-6.8911,-6.9335,-6.9528,-6.9592,-6.9886,-6.9975,-6.9975,-5.6587,-5.6625,-5.6702,-5.674,-5.7374,-5.8186,-5.9071,-5.913,-5.9158,-5.9371,-5.8692,-5.8203,-5.8258,-5.755,-5.6763,-5.5955,-5.5654,-5.5593,-5.5703,-5.5827,-5.5924,-5.5924,-5.5959,-5.6012,-5.6012,-5.6012,-5.6012,-5.6012,-5.6012,-5.6012,-5.5973,-5.5238,-5.5668,-5.7061,-5.5569,-5.5706,-5.7061,-5.6343,-5.6012,-5.6012,-5.6012,-5.6476,-5.7211,-5.7288,-5.7791,-5.8526,-5.8565,-5.8642,-5.8681,-5.8681,-5.872,-5.8758,-5.8758,-5.8758,-5.9068,-6.0499,-6.0925,-6.0906,-6.0867,-6.0809,-6.0654,-5.9822,-5.938,-5.8847,-5.7739,-5.7774,-5.7781,-5.6851,-5.704,-5.7116,-5.625,-5.6132,-5.6729,-5.8336,-5.8607,-5.9167,-6.0766,-6.0997,-5.8852,-5.3123,-5.2487,-5.2466,-5.2324,-5.2401,-5.4556,-5.9681,0.0,0.0,0.0,0.0,-5.8197,-6.1897,-6.205,-6.2474,-6.3281,-6.4166,-6.5051,-6.5897,-6.5897,-6.5897,-6.5897,-6.5897,-6.5897,-6.5936,-6.6667,-6.7064,-6.7113,-6.7113,-6.7176,-6.7286,-6.7253,-6.7229,-6.7358,-6.8155,-6.8398,-6.8398,-5.6473,-5.7122,-5.7772,-5.8421,-5.9224,-5.9863,-6.02,-6.0212,-6.0147,-6.02,-5.9599,-5.9134,-5.9062,-5.8366,-5.7901,-5.7834,-5.6598,-5.5807,-5.5827,-5.5923,-5.5977,-5.5977,-5.5995,-5.6012,-5.6012,-5.6012,-5.6012,-5.6012,-5.6012,-5.6012,-5.6012,-5.5818,-5.5917,-5.6265,-5.5896,-5.5917,-5.6265,-5.6072,-5.6012,-5.6012,-5.6012,-5.6128,-5.6399,-5.7056,-5.7443,-5.7675,-5.8372,-5.9029,-5.9571,-5.9571,-5.9996,-6.0499,-6.0499,-6.0499,-6.0344,-5.9455,-5.9184,-5.9184,-5.9166,-5.9166,-5.9127,-5.8915,-5.88,-5.8684,-5.8392,-5.8353,-5.8142,-5.7313,-5.7699,-5.7969,-5.7137,-5.7559,-5.8315,-5.9321,-5.9534,-5.9901,-6.08,-6.0976,-6.0415,-5.8858,-5.9281,-5.9373,-5.8719,-5.9258,-5.7774,-5.3272,-5.4073,-5.4534,-5.3942,-5.3859,-5.6053,-6.0935,-6.1743,-6.2474,-6.3281,-6.4166,-6.5051,-6.5897,-6.5897,-6.5897,-6.5897,-6.5897,-6.5897,-6.5897,-6.609,-6.6217,-6.6266,-6.6227,-6.6637,-6.7286,-6.7215,-6.7614,-6.8231,-6.8347,-6.8371,-6.8317,-5.812,-5.8578,-5.9064,-5.9633,-6.0092,-6.0425,-6.0559,-6.0533,-6.0506,-6.061,-6.0301,-6.0065,-6.0073,-5.9364,-5.8929,-5.905,-5.7755,-5.6983,-5.7101,-5.6752,-5.6557,-5.6557,-5.6188,-5.6012,-5.6012,-5.6012,-5.6012,-5.6012,-5.6012,-5.6012,-5.6012,-5.6012,-5.6012,-5.6012,-5.6012,-5.6012,-5.6012,-5.6012,-5.6244,-5.6592,-5.6592,-5.6824,-5.725,-5.7714,-5.7637,-5.7404,-5.8294,-5.8642,-5.8758,-5.9184,-5.9609,-5.9957,-5.9957,-5.9957,-5.9764,-5.8874,-5.9145,-5.9725,-5.9725,-5.9725,-5.9571,-5.8797,-5.8294,-5.7907,-5.7482,-5.7387,-5.7214,-5.6807,-5.7369,-5.7833,-5.7387,-5.8023,-5.8856,-5.963,-5.9148,-5.9186,-6.0657,-6.0234,-6.0003,-6.0704,-6.1204,-6.132,-6.0858,-6.1243,-5.9758,-5.5522,-5.5999,-5.6345,-5.5945,-5.6307,-5.8174,-6.182,-6.2397,-6.3051,-6.3897,-6.4743,-6.5436,-6.5897,-6.5897,-6.5897,-6.5897,-6.5897,-6.5897,-6.5897,-6.5923,-6.5972,-6.5958,-6.5558,-6.5697,-6.6167,-6.6097,-6.6343,-6.6805,-6.7128,-6.7165,-6.7138,-6.0159,-6.0159,-6.0256,-6.0453,-6.0387,-6.0387,-6.0585,-6.0571,-6.0559,-6.0757,-6.0734,-6.0781,-6.092,-6.0303,-5.9858,-5.9896,-5.9117,-5.8578,-5.8491,-5.7776,-5.739,-5.739,-5.6616,-5.6188,-5.6188,-5.6072,-5.5995,-5.5995,-5.5995,-5.5995,-5.6012,-5.6012,-5.6012,-5.6012,-5.6012,-5.6089,-5.6205,-5.6205,-5.6708,-5.7521,-5.7521,-5.7946,-5.8604,-5.8604,-5.8139,-5.7598,-5.8333,-5.8217,-5.783,-5.8565,-5.8874,-5.899,-5.899,-5.899,-5.899,-5.899,-5.9996,-6.1041,-6.0809,-6.0731,-6.0383,-5.8952,-5.8023,-5.7288,-5.6553,-5.6399,-5.6399,-5.6399,-5.7095,-5.7714,-5.7714,-5.841,-5.8915,-5.878,-5.8201,-5.8199,-5.9496,-5.9088,-5.9204,-6.0627,-6.0781,-6.0781,-6.0781,-6.0781,-6.0781,-6.0781,-6.0781,-6.0781,-6.0781,-6.0935,-6.1704,-6.3243,-6.332,-6.3782,-6.4782,-6.5513,-6.5897,-6.5897,-6.5897,-6.5897,-6.5897,-6.5923,-6.5923,-6.5923,-6.5996,-6.602,-6.5967,-6.5141,-6.4894,-6.4949,-6.4763,-6.4778,-6.4946,-6.5551,-6.5767,-6.574,-6.0506,-6.0506,-6.0533,-6.0597,-6.0453,-6.048,-6.071,-6.061,-6.0533,-6.0685,-6.0734,-6.0734,-6.066,-6.0642,-6.0635,-6.0718,-6.0519,-5.9826,-5.849,-5.8297,-5.8219,-5.8219,-5.7429,-5.7004,-5.7004,-5.631,-5.5943,-5.598,-5.598,-5.6016,-5.6012,-5.6012,-5.6012,-5.6012,-5.6012,-5.6399,-5.7095,-5.7095,-5.7598,-5.841,-5.841,-5.8488,-5.8604,-5.8604,-5.8526,-5.841,-5.8526,-5.899,-5.9532,-5.9648,-6.0151,-6.0692,-6.0692,-6.0692,-6.0692,-6.0692,-6.0886,-6.0809,-5.9377,-5.899,-5.8913,-5.8642,-5.8488,-5.8372,-5.8217,-5.8178,-5.8178,-5.8178,-5.8874,-5.9493,-5.9493,-6.0151,-5.932,-5.5055,-5.7776,-5.9011,-5.4955,-5.7901,-6.0558,-6.0781,-6.0781,-6.0781,-6.0781,-6.0781,-6.0781,-6.0781,-6.0781,-6.0781,-6.0781,-6.1512,-6.232,-6.3281,-6.332,-6.4089,-6.5667,-6.582,-6.5897,-6.5897,-6.5897,-6.5897,-6.5897,-6.5972,-6.5996,-6.5996,-6.6005,-6.6036,-6.6041,-6.5186,-6.5203,-6.572,-6.4908,-6.5026,-6.5628,-6.5624,-6.558,-6.5523,-6.0441,-6.0441,-6.0468,-6.061,-6.0585,-6.061,-6.0757,-6.071,-6.066,-6.0734,-6.0734,-6.0734,-6.0734,-6.0757,-6.0804,-6.0827,-6.0843,-6.0496,-5.9733,-5.9276,-5.9065,-5.9065,-5.8276,-5.7872,-5.7872,-5.7023,-5.6599,-5.6676,-5.6676,-5.6638,-5.6656,-5.7081,-5.7274,-5.7274,-5.7274,-5.7506,-5.7892,-5.7892,-5.8394,-5.9186,-5.9205,-5.9495,-5.9882,-5.9957,-5.9687,-5.9339,-5.9803,-5.99,-5.992,-6.0345,-6.0732,-6.1041,-6.1041,-6.106,-6.1118,-6.1118,-6.1118,-6.0925,-6.0151,-5.9957,-5.9841,-5.9416,-5.93,-5.9184,-5.872,-5.8604,-5.8604,-5.8604,-5.9243,-5.9843,-5.9843,-6.0519,-6.0228,-5.7852,-5.8623,-5.9027,-5.7533,-5.8572,-5.9804,-6.0704,-6.0781,-6.0781,-6.0781,-6.0781,-6.0781,-6.0781,-6.0781,-6.0781,-6.0781,-6.1166,-6.1781,-6.2627,-6.3974,-6.5089,-6.5897,-6.5897,-6.5897,-6.5897,-6.5897,-6.5923,-6.5947,-6.5996,-6.5982,-6.6005,-6.6036,-6.6058,-6.6019,-6.5633,-6.5704,-6.5967,-6.551,-6.5576,-6.5846,-6.5635,-6.558,-6.5552,-6.0441,-6.0441,-6.0494,-6.0685,-6.0685,-6.0685,-6.0781,-6.0757,-6.0757,-6.0781,-6.0734,-6.0757,-6.0888,-6.0804,-6.0781,-6.0781,-6.0781,-6.0781,-6.0781,-6.0211,-5.9887,-5.9887,-5.9083,-5.8564,-5.8371,-5.7755,-5.7446,-5.7466,-5.7466,-5.7466,-5.7486,-5.8104,-5.8412,-5.8412,-5.8412,-5.8528,-5.8721,-5.8721,-5.9223,-5.9994,-6.0074,-6.0441,-6.1021,-6.106,-6.0693,-6.0229,-6.0848,-6.0635,-6.0152,-6.077,-6.1022,-6.1022,-6.1022,-6.1041,-6.1118,-6.1118,-6.1118,-6.1118,-6.1118,-6.1118,-6.0963,-6.0344,-6.019,-5.9996,-5.9339,-5.9184,-5.9166,-5.9166,-5.9631,-6.0094,-6.0094,-6.0555,-6.059,-5.9353,-5.8984,-5.8924,-5.9034,-5.8934,-5.9358,-6.0666,-6.0781,-6.0781,-6.0781,-6.0781,-6.0781,-6.0781,-6.0781,-6.0781,-6.0781,-6.0973,-6.1473,-6.2358,-6.4474,-6.5705,-6.5897,-6.5897,-6.5897,-6.5897,-6.5897,-6.5947,-6.5996,-6.602,-6.6005,-6.6036,-6.6102,-6.608,-6.6036,-6.6058,-6.6052,-6.5996,-6.5972,-6.5923,-6.5872,-6.5701,-6.5608,-6.558,-6.0757,-6.0757,-6.0757,-6.0781,-6.0685,-6.0635,-6.0757,-6.0685,-6.0635,-6.0757,-6.0781,-6.0781,-6.0819,-6.0781,-6.0781,-6.0781,-6.0781,-6.0781,-6.0781,-6.0742,-6.0704,-6.0704,-5.9858,-5.905,-5.8319,-5.8242,-5.8248,-5.8214,-5.8214,-5.8235,-5.8335,-5.8374,-5.8412,-5.8412,-5.8412,-5.8875,-5.9608,-5.9608,-6.011,-6.092,-6.092,-6.0959,-6.0997,-6.0997,-6.0959,-6.092,-6.0997,-6.0962,-6.0925,-6.0963,-6.1041,-6.1079,-6.1079,-6.1118,-6.1118,-6.1118,-6.1118,-6.1118,-6.1118,-6.1118,-6.1079,-6.1041,-6.1002,-6.1002,-6.0925,-6.0887,-6.0809,-6.0809,-6.0884,-6.092,-6.092,-6.0959,-5.9433,-5.4651,-5.7713,-5.9078,-5.4395,-5.7703,-6.0666,-6.0781,-6.0781,-6.0781,-6.0781,-6.0781,-6.0781,-6.0781,-6.0781,-6.0781,-6.0781,-6.155,-6.2358,-6.3205,-6.4166,-6.5089,-6.5897,-6.5897,-6.5897,-6.5897,-6.5897,-6.5947,-6.5996,-6.6005,-6.6036,-6.6102,-6.6165,-6.6144,-6.608,-6.6036,-6.6029,-6.5996,-6.5872,-6.5793,-6.5793,-6.5674,-6.5608,-6.5608,-6.0704,-6.0781,-6.0781,-6.0781,-6.0734,-6.0734,-6.0781,-6.0734,-6.0734,-6.0781,-6.0781,-6.0781,-6.0781,-6.0781,-6.0781,-6.0781,-6.0781,-6.0781,-6.0781,-6.0781,-6.0781,-6.0781,-6.0473,-6.0165,-5.9858,-5.9319,-5.905,-5.9034,-5.9034,-5.9056,-5.9078,-5.9656,-5.9887,-5.9887,-5.9887,-6.008,-6.0388,-6.0388,-6.0602,-6.0955,-6.0976,-6.1018,-6.1021,-6.1041,-6.106,-6.106,-6.106,-6.106,-6.1002,-6.1002,-6.1022,-6.1041,-6.1041,-6.106,-6.1079,-6.1041,-6.1041,-6.1022,-6.1021,-6.1041,-6.1041,-6.1041,-6.1041,-6.1059,-6.1059,-6.1,-6.098,-6.098,-6.0976,-6.0933,-6.0933,-6.0911,-6.0234,-5.8286,-5.9595,-6.015,-5.8204,-5.9588,-6.0781,-6.0781,-6.0781,-6.0781,-6.0781,-6.0781,-6.0781,-6.0781,-6.0781,-6.0781,-6.0781,-6.1089,-6.1666,-6.2512,-6.2858,-6.3705,-6.5089,-6.5089,-6.5359,-6.5897,-6.5947,-6.5996,-6.6005,-6.6036,-6.6102,-6.6144,-6.6144,-6.6123,-6.6102,-6.6036,-6.6005,-6.5996,-6.5947,-6.5897,-6.5846,-6.5767,-6.5701,-6.5701,-6.0627,-6.0781,-6.0781,-6.0781,-6.0781,-6.0781,-6.0781,-6.0781,-6.0781,-6.0781,-6.0781,-6.0781,-6.0781,-6.0781,-6.0781,-6.0781,-6.0781,-6.0781,-6.0781,-6.0781,-6.0781,-6.0781,-6.0781,-6.0781,-6.0781,-6.0204,-5.9896,-5.9896,-5.9896,-5.9896,-5.9935,-6.0512,-6.0781,-6.0781,-6.0781,-6.0781,-6.0781,-6.0781,-6.0866,-6.0911,-6.0955,-6.0959,-6.1021,-6.106,-6.106,-6.106,-6.106,-6.106,-6.1002,-6.0982,-6.0982,-6.1002,-6.0982,-6.1041,-6.106,-6.1021,-6.1021,-6.1,-6.0997,-6.098,-6.0962,-6.0982,-6.098,-6.0997,-6.0997,-6.0976,-6.0976,-6.0976,-6.0933,-6.0888,-6.0888,-6.0804,-6.0781,-6.0781,-6.0781,-6.0781,-6.0781,-6.0781,-6.0781,-6.0781,-6.0781,-6.0781,-6.0781,-6.0781,-6.0781,-6.0781,-6.0781,-6.0781,-6.0781,-6.0781,-6.105,-6.1666,-6.1728,-6.2382,-6.3806,-6.4075,-6.4499,-6.5114,-6.5187,-6.5257,-6.5264,-6.5556,-6.5715,-6.5817,-6.5986,-6.6058,-6.6074,-6.6029,-6.5827,-6.5548,-6.5548,-6.537,-6.5089,-6.5039,-6.5013,-6.5013,-6.0627,-6.0781,-6.0781,-6.0781,-6.0781,-6.0781,-6.0781,-6.0781,-6.0781,-6.0781,-6.0781,-6.0781,-6.0781,-6.0781,-6.0781,-6.0781,-6.0781,-6.0781,-6.0781,-6.0781,-6.0781,-6.0781,-6.0781,-6.0781,-6.0781,-6.0781,-6.0781,-6.0781,-6.0781,-6.0781,-6.0781,-6.0781,-6.0781,-6.0781,-6.0781,-6.0781,-6.0781,-6.0781,-6.0866,-6.0911,-6.0911,-6.0933,-6.0997,-6.0997,-6.0997,-6.0997,-6.0997,-6.1,-6.1002,-6.1018,-6.1,-6.1002,-6.1018,-6.0997,-6.0997,-6.0997,-6.0997,-6.0997,-6.0997,-6.0955,-6.0933,-6.0976,-6.0997,-6.0997,-6.0997,-6.0955,-6.0911,-6.0911,-6.0866,-6.0781,-6.0781,-6.0781,-6.0781,-6.0781,-6.0781,-6.0781,-6.0781,-6.0781,-6.0781,-6.0781,-6.0781,-6.0781,-6.0781,-6.0781,-6.0781,-6.0781,-6.0781,-6.0781,-6.0781,-6.0781,-6.0781,-6.0781,-6.0888,-6.1296,-6.2066,-6.2953,-6.3376,-6.3415,-6.3483,-6.3527,-6.3629,-6.4415,-6.4839,-6.4943,-6.565,-6.5967,-6.5958,-6.5958,-6.5433,-6.4589,-6.4589,-6.4051,-6.332,-6.332,-6.332,-6.332,-5.9742,-6.0396,-6.0781,-6.0781,-6.0781,-6.0781,-6.0781,-6.0781,-6.0781,-6.0781,-6.0781,-6.0781,-6.0781,-6.0781,-6.0781,-6.0781,-6.0781,-6.0781,-6.0781,-6.0781,-6.0781,-6.0781,-6.0781,-6.0781,-6.0781,-6.0781,-6.0781,-6.0781,-6.0781,-6.0781,-6.0781,-6.0781,-6.0781,-6.0781,-6.0781,-6.0781,-6.0781,-6.0781,-6.0866,-6.0911,-6.0911,-6.0933,-6.0997,-6.0997,-6.0997,-6.0997,-6.0997,-6.0997,-6.1018,-6.0997,-6.0997,-6.1018,-6.0997,-6.0997,-6.0976,-6.0955,-6.0933,-6.0933,-6.0888,-6.0866,-6.0866,-6.0911,-6.0911,-6.0866,-6.0866,-6.0827,-6.0804,-6.0804,-6.0804,-6.0781,-6.0781,-6.0781,-6.0781,-6.0781,-6.0781,-6.0781,-6.0781,-6.0781,-6.0781,-6.0781,-6.0781,-6.0781,-6.0781,-6.0781,-6.0781,-6.0781,-6.0781,-6.0804,-6.0888,-6.0888,-6.0911,-6.0933,-6.0955,-6.1092,-6.1323,-6.2172,-6.2866,-6.3483,-6.3527,-6.3548,-6.3527,-6.3819,-6.3934,-6.3913,-6.4078,-6.417,-6.4185,-6.4138,-6.396,-6.3705,-6.3705,-6.3551,-6.332,-6.332,-6.332,-6.332,-5.9358,-6.0204,-6.0781,-6.0781,-6.0781,-6.0781,-6.0781,-6.0781,-6.0781,-6.0781,-6.0781,-6.0781,-6.0781,-6.0781,-6.0781,-6.0781,-6.0781,-6.0781,-6.0781,-6.0781,-6.0781,-6.0781,-6.0781,-6.0781,-6.0781,-6.0781,-6.0781,-6.0781,-6.0781,-6.0781,-6.0781,-6.0781,-6.0781,-6.0781,-6.0781,-6.0781,-6.0781,-6.0781,-6.0866,-6.0911,-6.0911,-6.0933,-6.0997,-6.0997,-6.0997,-6.0997,-6.0997,-6.0997,-6.0997,-6.0976,-6.0955,-6.0933,-6.0933,-6.0933,-6.0911,-6.0888,-6.0866,-6.0866,-6.0804,-6.0781,-6.0804,-6.0866,-6.0804,-6.0781,-6.0781,-6.0781,-6.0781,-6.0781,-6.0781,-6.0781,-6.0781,-6.0781,-6.0781,-6.0781,-6.0781,-6.0781,-6.0781,-6.0781,-6.0781,-6.0781,-6.0781,-6.0781,-6.0781,-6.0804,-6.0866,-6.0888,-6.0888,-6.0911,-6.0933,-6.0933,-6.0955,-6.0997,-6.1018,-6.098,-6.098,-6.1481,-6.1983,-6.2502,-6.2565,-6.2565,-6.2541,-6.2871,-6.2965,-6.2982,-6.3261,-6.3368,-6.3368,-6.332,-6.3128,-6.282,-6.282,-6.2627,-6.232,-6.232,-6.232,-6.232,-5.9242,-6.0089,-6.0704,-6.0781,-6.0781,-6.0781,-6.0781,-6.0781,-6.0781,-6.0781,-6.0781,-6.0781,-6.0781,-6.0781,-6.0781,-6.0781,-6.0781,-6.0781,-6.0781,-6.0781,-6.0781,-6.0781,-6.0781,-6.0781,-6.0781,-6.0781,-6.0781,-6.0781,-6.0781,-6.0781,-6.0781,-6.0781,-6.0781,-6.0781,-6.0781,-6.0781,-6.0781,-6.0781,-6.0866,-6.0911,-6.0911,-6.0933,-6.0976,-6.0976,-6.0976,-6.0976,-6.0976,-6.0976,-6.0976,-6.0911,-6.0866,-6.0781,-6.0781,-6.0781,-6.0781,-6.0781,-6.0781,-6.0781,-6.0781,-6.0781,-6.0781,-6.0781,-6.0781,-6.0781,-6.0781,-6.0781,-6.0781,-6.0781,-6.0781,-6.0781,-6.0781,-6.0781,-6.0781,-6.0781,-6.0781,-6.0781,-6.0781,-6.0781,-6.0781,-6.0781,-6.0819,-6.0781,-6.0781,-6.0888,-6.0933,-6.0997,-6.0997,-6.0997,-6.0997,-6.0997,-6.0997,-6.0997,-6.1021,-6.1002,-6.1002,-6.1002,-6.1021,-6.0997,-6.1021,-6.1,-6.1015,-6.1704,-6.1989,-6.2005,-6.2767,-6.3089,-6.3089,-6.3089,-6.2627,-6.1973,-6.1973,-6.1512,-6.0781,-6.0781,-6.0781,-6.0781,-5.8396,-5.9204,-6.0012,-6.0666,-6.0781,-6.0781,-6.0781,-6.0781,-6.0781,-6.0781,-6.0781,-6.0781,-6.0781,-6.0781,-6.0781,-6.0781,-6.0781,-6.0781,-6.0781,-6.0781,-6.0781,-6.0781,-6.0781,-6.0781,-6.0781,-6.0781,-6.0781,-6.0781,-6.0781,-6.0781,-6.0781,-6.0781,-6.0781,-6.0781,-6.0781,-6.0781,-6.0781,-6.0781,-6.0781,-6.0804,-6.0804,-6.0804,-6.0827,-6.0827,-6.0827,-6.0827,-6.0827,-6.0827,-6.0827,-6.0843,-6.0804,-6.0781,-6.0781,-6.0781,-6.0781,-6.0781,-6.0781,-6.0781,-6.0781,-6.0781,-6.0781,-6.0781,-6.0781,-6.0781,-6.0781,-6.0781,-6.0781,-6.0781,-6.0781,-6.0781,-6.0781,-6.0781,-6.0781,-6.0781,-6.0781,-6.0781,-6.0781,-6.0781,-6.0781,-6.0781,-6.0866,-6.0888,-6.0888,-6.0933,-6.0976,-6.0997,-6.0997,-6.1018,-6.0982,-6.0982,-6.0982,-6.0982,-6.1002,-6.0982,-6.1018,-6.1018,-6.1,-6.0982,-6.098,-6.0976,-6.0933,-6.1103,-6.1119,-6.1074,-6.1281,-6.1358,-6.1358,-6.1358,-6.1243,-6.1089,-6.1089,-6.0973,-6.0781,-6.0781,-6.0781,-6.0781,-5.7588,-5.8665,-5.9627,-6.0089,-6.0512,-6.0781,-6.0781,-6.0781,-6.0781,-6.0781,-6.0781,-6.0781,-6.0781,-6.0781,-6.0781,-6.0781,-6.0781,-6.0781,-6.0781,-6.0781,-6.0781,-6.0781,-6.0781,-6.0781,-6.0781,-6.0781,-6.0781,-6.0781,-6.0781,-6.0781,-6.0781,-6.0781,-6.0781,-6.0781,-6.0781,-6.0781,-6.0781,-6.0781,-6.0781,-6.0781,-6.0781,-6.0781,-6.0781,-6.0781,-6.0781,-6.0781,-6.0781,-6.0781,-6.0781,-6.0781,-6.0781,-6.0781,-6.0781,-6.0781,-6.0781,-6.0781,-6.0781,-6.0781,-6.0781,-6.0781,-6.0781,-6.0781,-6.0781,-6.0781,-6.0781,-6.0781,-6.0781,-6.0781,-6.0781,-6.0781,-6.0781,-6.0781,-6.0781,-6.0781,-6.0843,-6.0866,-6.0866,-6.0888,-6.0911,-6.0911,-6.0933,-6.0955,-6.0959,-6.098,-6.1,-6.1041,-6.1041,-6.1041,-6.1002,-6.1002,-6.0982,-6.1,-6.1,-6.098,-6.0997,-6.0976,-6.0938,-6.0959,-6.0976,-6.0933,-6.0866,-6.0866,-6.0804,-6.0781,-6.0781,-6.0781,-6.0781,-6.0781,-6.0781,-6.0781,-6.0781,-6.0781,-6.0781,-6.0781,-6.0781,-6.0781,-5.6973,-5.8127,-5.9165,-5.9435,-6.0089,-6.0627,-6.0781,-6.0781,-6.0781,-6.0781,-6.0781,-6.0781,-6.0781,-6.0781,-6.0781,-6.0781,-6.0781,-6.0781,-6.0781,-6.0781,-6.0781,-6.0781,-6.0781,-6.0781,-6.0781,-6.0781,-6.0781,-6.0781,-6.0781,-6.0781,-6.0781,-6.0781,-6.0781,-6.0781,-6.0781,-6.0781,-6.0781,-6.0781,-6.0781,-6.0781,-6.0781,-6.0781,-6.0781,-6.0781,-6.0781,-6.0781,-6.0781,-6.0781,-6.0781,-6.0781,-6.0781,-6.0781,-6.0781,-6.0781,-6.0781,-6.0781,-6.0781,-6.0781,-6.0781,-6.0781,-6.0781,-6.0781,-6.0781,-6.0781,-6.0781,-6.0781,-6.0781,-6.0781,-6.0781,-6.0781,-6.0781,-6.0804,-6.0843,-6.0843,-6.0888,-6.0933,-6.0933,-6.0955,-6.0997,-6.0997,-6.0997,-6.1,-6.1002,-6.1022,-6.1041,-6.1118,-6.1118,-6.1099,-6.1022,-6.1002,-6.1021,-6.0997,-6.0976,-6.0976,-6.0955,-6.0911,-6.0888,-6.0888,-6.0888,-6.0827,-6.0781,-6.0781,-6.0781,-6.0781,-6.0781,-6.0781,-6.0781,-6.0781,-6.0781,-6.0781,-6.0781,-6.0781,-6.0781,-6.0781,-6.0781,-6.0796,-5.6857,-5.7165,-5.778,-5.9242,-5.9588,-5.9935,-6.0666,-6.0781,-6.0781,-6.0781,-6.0781,-6.0781,-6.0781,-6.0781,-6.0781,-6.0781,-6.0781,-6.0781,-6.0781,-6.0781,-6.0781,-6.0781,-6.0781,-6.0781,-6.0781,-6.0781,-6.0781,-6.0781,-6.0781,-6.0781,-6.0781,-6.0781,-6.0781,-6.0781,-6.0781,-6.0781,-6.0781,-6.0781,-6.0781,-6.0781,-6.0781,-6.0781,-6.0781,-6.0781,-6.0781,-6.0781,-6.0781,-6.0781,-6.0781,-6.0781,-6.0781,-6.0781,-6.0781,-6.0781,-6.0781,-6.0781,-6.0781,-6.0781,-6.0781,-6.0781,-6.0781,-6.0781,-6.0781,-6.0781,-6.0781,-6.0781,-6.0781,-6.0781,-6.0781,-6.0781,-6.0781,-6.0866,-6.0888,-6.0888,-6.0955,-6.0976,-6.0976,-6.0976,-6.0997,-6.0997,-6.1,-6.1022,-6.106,-6.1099,-6.1118,-6.1118,-6.1118,-6.1118,-6.1099,-6.1022,-6.1021,-6.0997,-6.0955,-6.0888,-6.0843,-6.0843,-6.0804,-6.0804,-6.0804,-6.0781,-6.0781,-6.0781,-6.0781,-6.0781,-6.0781,-6.0781,-6.0781,-6.0781,-6.0781,-6.0781,-6.0781,-6.0781,-6.0781,-6.0781,-6.0757,-6.0825,-5.6203,-5.6665,-5.7242,-5.7973,-5.8896,-5.9627,-6.0012,-6.0473,-6.0781,-6.0781,-6.0781,-6.0781,-6.0781,-6.0781,-6.0781,-6.0781,-6.0781,-6.0781,-6.0781,-6.0781,-6.0781,-6.0781,-6.0781,-6.0781,-6.0781,-6.0781,-6.0781,-6.0781,-6.0781,-6.0781,-6.0781,-6.0781,-6.0781,-6.0781,-6.0781,-6.0781,-6.0781,-6.0781,-6.0781,-6.0781,-6.0781,-6.0781,-6.0781,-6.0781,-6.0781,-6.0781,-6.0781,-6.0781,-6.0781,-6.0781,-6.0781,-6.0781,-6.0781,-6.0781,-6.0781,-6.0781,-6.0781,-6.0781,-6.0781,-6.0781,-6.0781,-6.0781,-6.0781,-6.0781,-6.0781,-6.0781,-6.0781,-6.0781,-6.0804,-6.0866,-6.0866,-6.0911,-6.0955,-6.0955,-6.0959,-6.1,-6.1,-6.1021,-6.1041,-6.1041,-6.106,-6.106,-6.1118,-6.1118,-6.1118,-6.1118,-6.1118,-6.106,-6.1041,-6.1021,-6.0959,-6.0955,-6.0888,-6.0804,-6.0781,-6.0781,-6.0781,-6.0781,-6.0781,-6.0781,-6.0781,-6.0781,-6.0781,-6.0781,-6.0781,-6.0781,-6.0781,-6.0781,-6.0781,-6.0781,-6.0781,-6.0781,-6.0804,-6.0899,-6.0899,-6.0993]}]]